GEFSCGP_500_meanwind_018.txt.gz
Wind_Speed
8 9 11 12 13 15 16 17 19 21 24 26 28 30 32 38 41 45 49 55 61 66 70 75 78 79 81 83 85 86 86 82 78 75 72 70 68 67 66 65 64 64 63 62
9 11 12 13 14 16 17 19 20 20 24 28 30 31 34 39 43 47 53 59 65 70 74 78 80 81 83 85 86 85 82 79 77 75 73 69 66 63 60 59 58 58 58 59
11 12 13 15 16 18 19 21 23 25 26 28 33 34 35 41 46 51 57 63 68 74 78 80 81 82 83 84 83 82 80 78 75 71 66 62 59 56 54 52 51 51 51 51
13 14 16 17 18 19 19 21 23 26 28 31 33 38 38 45 51 56 61 66 72 78 80 80 81 82 83 83 82 80 77 73 69 65 62 60 57 55 53 52 51 50 50 49
15 16 16 17 18 19 20 22 25 27 30 32 34 40 45 50 55 60 65 71 76 79 79 80 81 82 82 82 80 77 72 68 64 63 61 59 58 57 56 56 54 52 50 48
17 17 17 18 19 20 22 24 25 29 34 38 42 45 48 52 58 64 70 74 77 79 79 80 81 82 81 81 78 72 67 65 64 62 61 60 59 59 58 55 52 49 48 46
16 17 17 18 19 21 24 27 32 36 38 40 42 45 49 56 62 67 72 75 77 79 80 81 81 81 80 78 73 68 65 64 63 62 60 60 60 60 57 53 50 47 45 44
17 16 17 18 20 23 26 28 32 35 37 38 42 48 53 57 62 67 72 76 79 79 80 80 80 80 79 74 68 66 65 65 63 62 61 61 61 58 54 51 48 46 45 44
17 17 18 19 22 25 27 29 31 34 37 42 46 49 54 59 63 68 74 77 78 78 79 79 79 79 75 70 66 65 65 64 63 61 61 61 59 56 52 50 48 47 46 45
17 17 18 20 23 25 27 30 33 36 41 45 48 52 56 60 65 71 75 76 77 78 78 78 78 77 71 67 65 65 65 64 62 62 61 60 57 55 52 51 49 48 47 46
18 18 18 21 22 25 27 30 32 36 40 46 52 54 57 61 67 72 75 76 77 77 77 77 77 74 68 65 65 65 64 63 62 61 60 58 56 55 54 53 52 50 48 47
19 19 19 20 22 25 28 32 35 38 41 44 49 55 58 63 69 73 76 76 76 76 76 77 76 70 65 64 64 65 64 63 62 60 58 57 57 57 56 56 55 53 51 49
20 20 21 21 22 24 27 30 34 38 41 44 49 55 60 64 70 74 75 75 75 76 75 76 73 67 63 63 64 65 64 63 61 58 56 57 58 59 59 58 57 56 54 53
20 21 22 25 27 29 32 34 36 38 42 45 49 55 60 65 70 73 74 74 75 75 75 74 70 64 62 62 64 64 64 62 59 57 57 58 59 61 61 61 60 60 59 57
22 22 23 25 27 28 31 34 36 39 42 46 51 55 60 65 70 73 74 74 74 74 73 72 67 62 60 62 63 63 63 61 58 57 57 59 61 63 63 63 64 64 63 60
26 25 25 24 25 27 31 35 37 40 44 48 53 57 61 66 70 73 74 73 73 72 72 70 65 60 60 61 63 63 62 60 57 56 58 61 63 64 64 65 67 67 64 58
32 32 31 30 30 30 34 39 41 43 45 49 54 59 62 68 71 73 74 72 72 72 71 68 62 59 59 61 63 63 61 59 57 57 59 62 64 66 67 68 70 70 64 54
37 38 37 36 35 34 38 41 44 46 47 51 55 59 63 68 72 73 73 72 71 70 69 65 60 57 59 61 63 62 61 59 57 57 59 63 65 67 68 71 73 70 63 50
39 42 43 42 42 40 41 44 47 49 49 52 57 61 64 68 72 72 72 71 70 69 68 63 58 56 58 61 62 61 60 59 57 57 60 63 66 67 69 72 74 71 62 47
39 42 45 45 46 45 46 47 48 51 52 55 58 61 65 68 71 71 71 69 68 68 66 62 57 55 57 60 61 60 60 59 58 58 60 64 66 68 69 72 74 72 63 48
40 44 46 48 48 47 49 50 50 51 53 55 58 61 64 68 71 71 69 68 67 67 65 61 57 55 56 59 60 60 59 59 59 58 60 63 66 68 69 71 74 73 65 51
41 46 49 52 53 53 53 52 51 50 52 54 57 61 64 68 70 70 68 67 66 66 64 60 56 54 55 58 59 59 59 59 59 59 60 62 64 66 68 69 71 72 68 56
41 45 48 51 53 54 55 53 51 50 51 54 57 60 64 67 70 69 67 66 65 64 63 59 55 53 54 57 58 58 58 58 58 58 59 60 63 65 67 68 69 71 70 64
40 44 47 50 54 55 56 54 52 50 51 54 57 60 63 67 69 68 66 65 64 63 62 58 54 53 53 55 57 57 57 57 57 57 57 58 60 63 65 67 68 69 69 68
42 45 47 50 54 56 57 56 54 52 52 54 56 59 63 66 68 68 66 64 63 62 61 57 54 52 52 53 55 55 55 55 56 56 56 57 59 61 64 66 67 68 68 69
41 44 47 50 54 57 58 58 56 53 52 54 56 59 62 65 67 67 65 63 62 61 60 57 53 51 50 51 53 53 54 53 54 54 55 55 57 59 61 64 66 67 67 66

GEFSCGP_500_meanwind_024.txt.gz
Wind_Speed
11 12 13 13 13 13 12 12 13 15 17 19 21 24 27 31 34 37 41 45 49 54 58 63 68 73 77 78 80 82 84 86 86 83 78 74 72 72 72 70 67 63 59 57
11 12 12 13 13 14 13 13 14 16 17 20 21 23 27 31 34 38 43 48 52 57 61 67 72 76 78 79 81 83 85 86 83 79 75 73 73 72 69 65 60 57 54 52
12 13 13 13 13 13 13 14 14 16 18 21 22 22 27 31 36 41 46 51 55 60 65 70 74 76 78 79 81 83 85 83 79 76 74 73 71 68 63 57 53 51 50 50
12 13 13 13 13 14 14 15 16 17 20 23 25 25 29 34 40 45 49 53 57 62 67 72 75 76 78 80 81 84 83 79 76 75 74 73 69 64 58 52 49 50 51 51
13 13 13 14 14 15 15 16 17 19 21 23 25 29 33 37 42 47 51 56 60 64 69 72 74 76 78 80 82 83 80 76 75 75 74 72 67 61 53 50 50 51 53 54
13 14 14 14 15 16 18 18 19 20 22 25 28 32 36 40 45 49 53 57 61 66 69 71 73 75 77 80 81 81 77 74 74 75 73 70 64 57 51 51 53 54 56 56
14 14 15 16 17 18 20 21 23 25 26 29 31 34 38 42 46 51 55 59 62 66 69 71 73 75 77 80 80 78 75 73 74 74 71 68 62 55 53 54 56 58 59 58
15 16 17 17 18 20 22 24 27 29 31 30 32 36 40 44 48 52 56 59 62 66 69 72 74 75 78 79 79 76 73 72 73 73 69 65 60 56 56 59 61 63 63 62
16 17 18 19 21 23 25 26 28 31 33 35 37 40 43 46 49 52 56 59 63 67 70 72 74 76 78 79 77 74 72 72 73 71 68 64 59 58 59 62 65 67 67 67
18 18 19 21 23 25 27 29 31 33 37 40 41 42 44 47 49 53 56 60 64 68 70 72 74 76 77 77 76 72 71 72 72 70 68 64 60 60 62 65 68 70 71 71
19 20 21 22 24 27 29 30 32 34 37 41 44 43 45 46 49 53 57 61 65 68 70 72 74 75 77 76 73 70 70 71 71 69 67 63 61 62 65 68 71 73 74 72
20 21 22 23 25 28 29 31 33 36 38 40 43 44 45 46 49 53 57 61 65 68 71 72 74 75 75 73 71 69 70 71 69 68 66 64 63 64 66 69 73 75 74 70
21 23 24 25 26 28 30 32 34 36 38 39 41 42 44 46 49 53 58 62 66 69 71 72 73 74 73 71 69 69 69 69 68 67 66 64 63 65 67 70 74 75 73 64
22 25 28 30 31 32 33 34 35 37 38 38 39 41 43 46 49 53 58 62 66 69 70 71 72 72 72 70 68 68 68 68 67 66 65 64 64 66 68 72 75 75 71 59
21 25 28 31 33 34 36 37 38 38 39 39 39 40 43 46 49 53 58 62 66 69 70 70 70 71 71 69 67 67 67 67 66 66 65 64 65 67 69 72 75 75 69 56
20 23 26 29 32 35 37 40 41 41 42 42 42 42 44 46 49 53 58 62 66 68 68 69 70 70 69 67 66 65 66 66 65 65 64 64 65 67 69 71 74 74 68 56
18 21 25 28 31 35 39 43 44 44 45 45 45 45 46 47 50 54 58 62 65 67 68 68 69 69 68 66 64 64 64 64 63 63 63 64 65 66 68 71 73 74 69 58
18 22 25 29 33 37 41 44 47 47 47 48 47 48 48 49 51 54 58 61 65 67 67 67 68 68 67 65 63 63 63 63 62 62 62 63 64 65 67 69 71 73 71 62
18 22 26 31 34 37 41 46 49 50 50 53 53 52 51 51 52 54 57 61 64 66 66 66 67 67 66 64 62 61 61 61 60 60 61 62 63 64 65 67 69 71 71 67
18 22 26 30 35 39 42 46 49 52 54 57 57 55 53 52 51 53 57 60 64 65 65 65 66 66 65 63 60 59 59 59 59 59 59 60 61 63 64 66 68 70 70 69
18 21 25 29 33 37 42 46 49 52 55 58 59 58 55 52 52 53 56 60 63 65 65 65 65 64 63 61 59 58 58 58 57 58 58 58 59 61 63 65 67 69 69 68
21 24 27 32 36 39 43 46 49 51 55 57 59 60 57 54 53 54 56 59 63 64 64 64 64 63 62 60 58 56 56 56 56 56 56 56 57 59 61 63 64 66 67 67
23 25 28 31 34 38 42 45 48 51 54 57 59 61 59 56 54 54 56 59 62 64 64 63 63 62 61 59 57 55 54 54 54 54 54 54 55 56 58 60 61 63 63 64
26 27 29 32 35 38 42 45 48 51 54 57 59 62 61 58 55 54 56 59 61 63 63 62 61 61 60 58 56 54 53 53 53 52 51 51 52 54 56 58 59 60 61 62
29 30 31 33 36 38 42 45 48 51 54 57 60 62 62 59 56 55 55 58 61 62 62 61 60 59 58 57 55 53 51 51 51 51 50 49 50 51 53 55 57 58 59 60
31 33 35 36 39 42 44 46 49 51 54 57 60 63 63 60 57 55 55 57 60 61 62 61 59 58 57 56 54 52 50 49 49 49 49 48 48 49 51 53 56 57 58 58

GEFSCGP_500_meanwind_030.txt.gz
Wind_Speed
11 12 14 15 16 16 17 17 18 18 19 19 20 23 25 26 28 31 35 38 42 46 49 52 54 57 61 66 70 74 77 80 83 85 87 88 86 84 82 81 80 78 74 69
12 13 14 15 15 15 15 16 17 18 19 20 21 23 26 27 30 34 37 41 44 47 50 53 56 59 64 68 72 76 79 81 84 86 88 87 84 82 81 80 78 74 70 65
12 13 14 14 14 14 15 16 18 19 20 22 23 23 27 29 33 36 39 42 45 48 51 54 57 61 65 70 73 77 79 82 85 87 87 84 81 80 79 77 74 70 66 64
11 12 13 13 14 15 16 17 19 21 22 24 26 25 29 31 35 38 41 43 46 49 52 55 59 63 67 71 74 77 80 83 86 87 85 82 80 79 78 76 72 67 65 65
10 11 12 13 14 16 17 19 21 22 23 25 27 28 31 34 36 39 42 44 47 50 53 56 60 64 68 72 75 77 81 83 85 85 83 80 79 79 77 74 69 66 65 67
9 11 12 14 16 18 19 20 21 23 24 26 29 31 33 35 37 39 42 45 48 51 54 57 61 65 69 72 75 78 81 83 84 82 80 79 78 77 75 72 68 66 67 69
9 11 13 16 18 20 22 23 24 25 26 28 30 31 34 35 37 41 44 47 49 52 55 58 62 66 70 73 75 78 80 82 82 80 79 78 77 76 74 71 69 69 70 73
10 12 14 16 19 21 24 26 29 30 30 29 30 31 33 36 39 42 45 47 49 52 55 59 62 66 70 73 75 78 80 81 81 79 77 76 75 74 72 71 70 72 74 77
10 12 15 17 19 22 24 27 29 31 32 33 33 35 37 40 41 43 46 48 50 53 56 59 63 67 70 73 75 77 79 80 79 77 75 74 73 72 71 71 71 73 76 78
10 12 15 17 20 23 26 28 31 34 37 38 38 39 42 42 43 44 46 48 51 53 56 60 64 67 70 73 75 77 79 79 77 75 73 72 71 70 71 71 72 74 77 77
9 11 14 16 20 23 26 28 31 33 36 40 42 42 44 45 46 46 48 49 51 53 56 60 64 67 70 72 74 76 78 77 75 73 71 70 69 69 70 71 72 74 76 75
7 9 12 16 19 23 25 28 31 34 36 39 42 44 47 48 49 49 49 50 52 54 57 60 64 67 70 72 74 75 76 75 73 71 69 68 67 68 69 70 71 73 75 75
4 7 10 14 18 21 24 27 30 33 37 40 43 45 50 51 52 51 51 52 53 55 57 60 64 67 70 71 73 74 75 74 71 69 68 66 66 66 68 70 71 72 73 74
3 6 9 13 16 20 23 27 30 34 37 40 44 47 50 54 55 55 54 54 54 55 57 60 64 67 69 71 72 73 74 72 69 67 66 65 64 65 67 69 70 71 72 73
6 7 10 13 16 19 23 26 30 33 37 40 44 48 52 55 58 58 56 56 55 56 58 60 64 67 69 70 71 72 72 70 68 66 65 64 63 64 65 67 69 70 71 72
9 10 12 14 17 19 22 25 29 33 37 41 45 48 53 56 59 60 59 58 57 57 58 61 64 66 68 69 70 71 71 69 67 65 64 63 62 62 63 65 67 68 69 70
12 13 14 15 18 20 21 25 28 32 36 41 45 49 54 57 60 62 62 60 58 58 59 61 63 66 67 68 69 69 69 68 66 64 63 62 61 61 62 63 65 66 66 68
15 16 16 17 19 22 25 27 29 31 36 40 44 48 53 57 61 64 65 63 60 59 59 60 63 65 66 67 68 68 68 67 65 63 62 60 60 60 61 62 63 64 65 66
19 19 20 21 22 23 26 29 32 34 36 40 44 48 53 57 61 64 67 65 62 60 59 60 63 64 65 66 67 67 67 66 64 62 60 59 59 59 60 60 61 62 63 64
22 22 22 24 26 28 29 32 34 37 39 43 46 49 53 57 61 64 67 66 63 61 60 60 62 64 65 65 65 66 66 65 64 61 59 58 58 59 59 59 60 61 62 62
25 25 24 25 27 30 31 34 36 38 41 44 47 49 53 56 60 63 67 67 64 62 60 60 62 63 64 64 64 64 65 64 63 61 58 57 57 57 58 59 59 59 60 61
29 28 27 27 29 32 33 35 37 39 41 43 46 49 52 56 59 63 66 68 66 63 61 60 61 62 63 63 63 63 63 63 62 60 58 57 56 56 56 57 58 58 58 59
32 31 30 29 29 34 34 35 38 40 42 44 46 49 52 55 59 62 65 68 67 64 62 60 60 62 62 62 62 62 62 62 61 59 57 56 55 55 55 55 56 56 56 56
35 34 33 32 30 35 36 38 40 43 44 45 47 49 52 55 58 62 65 67 67 65 62 60 60 61 61 61 60 61 61 61 60 58 57 55 54 54 54 54 55 55 55 55
38 36 35 35 35 37 36 39 42 44 46 47 48 50 52 55 58 61 64 66 67 66 63 60 59 60 60 60 59 59 60 60 59 57 56 54 53 53 53 53 54 54 55 56
38 37 38 38 39 42 39 41 44 46 48 48 49 50 52 55 57 60 63 65 67 66 64 60 58 58 59 58 58 58 58 58 58 56 54 53 52 52 51 51 52 54 54 54

GEFSCGP_500_meanwind_036.txt.gz
Wind_Speed
10 10 10 11 11 12 12 13 15 16 18 19 20 23 24 25 27 28 30 31 34 36 39 41 43 45 48 51 54 58 62 66 68 71 75 79 83 87 89 88 85 81 79 77
9 9 9 10 11 12 13 14 15 16 18 19 20 22 24 25 26 28 29 31 34 37 39 42 44 47 49 52 56 60 64 67 69 72 76 80 83 86 87 84 81 78 77 76
7 7 7 8 10 12 13 14 15 16 17 19 20 21 23 24 26 27 29 32 35 38 40 43 45 48 50 53 57 61 64 67 69 73 77 80 84 86 84 80 77 76 75 75
5 5 6 7 9 11 12 14 15 17 18 19 20 21 24 25 27 29 31 33 36 39 41 43 46 49 52 54 58 61 65 67 70 73 77 81 83 83 81 77 75 74 74 73
3 3 4 6 8 10 12 14 15 17 18 19 21 23 25 27 29 31 33 36 38 40 42 44 47 50 52 55 58 62 65 68 71 74 77 81 82 81 78 75 73 73 72 72
2 2 3 5 7 9 11 13 14 17 19 20 22 24 27 29 31 34 37 39 41 42 44 46 48 51 53 56 59 63 66 68 71 74 78 80 81 79 75 73 72 71 70 70
3 1 1 3 5 7 9 12 14 17 19 21 23 26 28 31 33 37 40 43 44 46 46 48 49 52 54 57 60 63 66 68 71 75 78 80 79 77 73 71 70 70 68 68
5 3 1 2 4 6 8 11 14 17 19 20 24 27 30 32 36 39 42 45 48 49 50 50 51 53 55 58 61 64 66 69 71 75 77 79 78 75 72 70 69 69 68 68
7 5 3 1 3 6 8 11 14 16 18 21 25 27 31 34 38 41 44 47 50 53 53 53 54 55 57 59 62 65 67 69 71 74 77 78 76 73 71 69 69 68 67 67
9 7 5 4 4 6 8 11 14 17 21 23 26 29 32 35 38 42 45 49 52 55 57 57 57 57 58 60 62 65 67 69 71 74 76 77 75 72 69 68 67 67 66 66
11 9 8 6 6 8 10 12 15 18 22 26 28 31 33 35 39 42 46 50 53 57 59 61 60 60 60 61 63 65 67 68 71 74 76 76 74 71 68 67 66 66 65 65
14 12 10 9 9 10 11 14 16 19 22 24 27 31 34 36 40 43 46 50 54 58 61 63 63 62 61 62 63 65 67 68 71 73 75 75 73 70 68 66 65 65 64 65
16 14 13 12 12 12 13 15 18 20 22 25 27 30 34 36 39 43 46 50 54 58 62 64 66 65 63 63 64 66 67 68 70 73 74 74 72 69 67 65 64 64 63 64
19 17 16 16 15 15 15 17 19 22 24 26 28 30 33 37 40 43 46 50 54 58 62 65 67 68 66 64 65 66 67 68 70 72 74 73 72 69 66 64 63 63 63 63
21 20 19 18 18 17 17 19 20 23 26 28 30 32 35 37 40 44 47 51 54 58 62 65 68 70 68 66 65 66 67 68 69 71 73 73 71 68 66 64 63 62 62 62
23 23 22 21 21 20 19 21 22 24 27 29 31 33 36 38 41 44 47 51 54 58 61 65 68 71 70 67 66 66 67 67 69 70 72 72 70 68 66 64 62 61 61 61
26 26 25 24 24 25 22 23 24 25 28 31 32 35 37 39 41 45 47 51 55 58 61 65 68 71 71 69 67 66 67 67 68 70 71 71 70 68 65 63 61 61 61 60
28 29 29 28 27 27 25 26 27 28 29 32 33 36 39 41 42 45 48 51 55 58 61 64 68 70 72 71 68 67 67 67 67 69 70 71 70 67 65 63 61 60 60 60
31 31 32 31 31 30 28 29 31 31 30 32 35 37 39 42 44 45 48 51 54 57 61 64 67 70 72 72 69 67 67 66 67 68 69 70 69 67 64 62 60 59 58 59
34 35 35 34 34 33 30 32 34 35 33 34 37 39 41 44 47 48 49 51 54 57 60 63 66 69 71 72 70 67 66 66 66 67 68 69 68 66 63 61 60 58 57 58
37 38 38 37 37 35 33 35 37 37 38 38 39 41 42 45 48 49 50 52 54 57 60 62 65 68 70 72 71 68 66 65 65 66 67 68 68 65 63 61 59 57 56 56
40 41 40 40 39 36 35 37 39 40 40 41 42 43 44 45 47 49 50 52 54 57 59 61 64 66 69 71 71 68 66 65 64 64 66 67 67 66 63 60 58 57 55 54
42 42 44 43 40 37 37 40 42 44 43 43 44 45 45 46 48 49 50 52 53 56 58 60 62 65 67 69 71 69 66 65 63 63 64 66 67 66 63 60 58 56 54 52
44 44 46 45 40 36 38 41 44 46 46 46 47 47 47 47 48 50 50 51 53 55 58 59 61 63 66 68 69 69 67 64 63 62 63 64 66 66 64 60 57 54 53 51
47 46 45 45 38 35 37 40 43 45 47 47 48 48 48 49 49 50 50 51 52 55 57 58 59 61 64 66 68 68 67 64 62 61 61 63 64 65 64 61 57 54 52 51
50 46 45 42 36 37 38 37 39 43 46 47 48 48 48 49 49 50 51 51 52 55 57 58 58 59 61 64 66 67 67 64 61 60 60 61 62 63 63 61 58 55 52 51

GEFSCGP_500_meanwind_042.txt.gz
Wind_Speed
9 8 8 8 8 8 8 8 9 9 9 11 12 13 15 16 18 20 22 24 27 29 31 34 37 39 42 44 47 49 50 51 53 55 58 61 64 67 71 75 80 86 91 93
9 8 8 7 7 7 7 7 7 8 9 11 12 13 15 17 19 21 24 26 28 31 33 35 39 42 44 47 49 51 52 53 54 56 59 62 65 68 72 77 82 87 91 90
9 8 7 7 7 6 6 6 7 7 8 10 11 13 15 17 19 22 25 28 30 33 36 38 41 44 47 49 52 54 55 55 56 58 60 63 66 69 73 78 84 88 89 87
9 8 7 7 7 7 6 6 6 7 8 8 10 11 14 16 19 22 25 28 31 34 37 40 43 46 48 51 55 57 58 59 59 60 62 64 68 70 74 79 84 87 87 84
10 10 9 8 8 7 6 6 6 7 8 9 11 12 14 17 19 22 25 28 32 35 38 42 45 47 50 53 56 60 62 62 62 62 64 66 69 72 75 80 84 86 85 81
12 11 10 10 9 9 9 8 8 8 9 10 12 14 16 18 21 23 26 29 32 35 39 43 46 49 52 55 58 61 64 66 65 65 66 68 70 72 76 80 84 85 83 78
14 13 13 12 12 11 11 11 10 11 12 12 14 15 17 20 22 25 27 30 32 36 40 43 47 50 53 56 59 62 66 68 69 68 68 69 71 73 77 80 83 83 81 76
17 15 15 15 14 14 13 13 13 14 14 15 16 17 18 20 22 25 28 31 34 37 40 44 47 51 54 57 60 63 67 70 71 71 70 71 72 74 77 80 82 82 80 75
19 18 17 17 17 16 16 16 16 17 17 17 18 19 19 21 24 26 29 31 34 37 40 44 48 52 55 58 61 64 67 71 73 73 72 72 73 75 77 80 81 81 78 74
21 21 19 20 20 19 19 19 19 19 20 21 21 22 24 24 27 30 32 34 36 39 42 45 49 53 56 59 62 65 67 71 74 75 74 73 74 75 77 80 80 80 77 73
23 23 22 22 22 22 22 21 22 23 24 25 25 24 26 27 29 32 35 37 40 42 45 47 50 53 57 60 62 65 68 71 74 76 75 75 74 75 77 79 80 79 76 73
25 25 25 24 24 25 25 24 25 26 26 27 29 26 28 30 31 33 35 38 41 44 46 48 51 54 57 60 63 65 68 71 74 76 77 76 75 75 77 78 79 78 75 72
26 27 27 27 27 27 27 26 28 29 30 30 31 29 31 33 34 35 37 39 42 45 48 49 52 54 57 60 63 65 67 70 73 76 78 76 75 75 76 78 79 78 74 71
29 29 29 30 31 30 29 29 30 33 33 34 32 31 31 36 37 39 41 43 45 47 49 51 53 54 57 60 63 65 67 70 73 75 78 77 76 75 76 77 78 77 74 70
31 30 30 32 33 35 33 31 32 34 34 37 35 34 33 37 38 39 42 44 46 48 51 53 54 55 56 60 63 65 67 69 72 75 77 78 76 75 75 76 77 76 74 70
34 33 33 33 35 38 36 32 34 36 36 37 38 37 36 40 39 40 42 45 46 49 51 53 54 55 56 59 62 64 67 69 71 74 76 77 76 75 74 75 76 75 73 69
36 36 37 36 37 40 38 33 35 38 38 39 40 39 40 41 41 41 44 46 48 49 52 54 55 56 56 58 61 64 66 68 70 72 75 77 77 75 74 74 75 75 73 69
37 38 39 40 40 42 37 36 37 40 40 41 42 42 43 44 43 43 46 48 49 51 53 55 56 56 56 58 61 63 66 67 69 71 74 76 76 75 73 73 74 74 72 69
39 39 41 43 44 44 38 37 39 42 42 42 44 44 45 46 46 44 47 49 51 52 54 55 56 56 56 57 60 63 65 66 68 70 72 74 75 74 72 72 73 73 72 69
41 41 43 45 47 47 42 39 40 42 44 44 46 46 47 48 49 48 49 51 52 53 54 55 56 55 56 57 59 62 64 66 67 68 70 73 74 73 72 71 71 72 71 69
44 44 45 46 49 50 44 42 42 42 43 45 48 49 50 52 52 52 52 53 54 54 54 55 56 55 55 57 59 61 64 65 66 67 69 71 73 72 71 70 70 70 70 68
50 49 48 47 50 49 44 43 41 41 43 46 49 51 53 54 53 53 53 54 54 54 54 55 55 55 56 57 59 61 63 65 66 66 67 69 71 71 70 68 68 69 69 68
56 53 52 52 51 48 46 43 40 41 44 47 50 52 54 55 55 54 54 55 54 54 54 54 55 55 56 57 59 61 63 65 66 65 65 67 69 69 68 67 66 67 67 67
61 59 59 58 54 50 48 45 43 45 48 49 51 53 54 56 56 56 56 56 55 55 55 55 56 57 57 58 60 61 63 65 65 65 64 65 67 67 67 65 64 65 65 65
64 64 64 62 58 56 53 50 50 50 51 52 53 54 55 57 58 58 58 58 58 58 58 58 58 59 59 59 60 62 63 64 64 64 62 63 64 66 65 63 63 63 64 65
66 66 67 67 63 63 61 57 57 57 56 56 57 57 57 59 60 60 61 61 62 61 61 61 61 61 61 61 61 62 63 64 63 62 61 61 62 63 63 62 61 61 62 64

GEFSCGP_500_meanwind_048.txt.gz
Wind_Speed
12 12 11 11 10 10 10 9 9 9 8 8 7 7 6 6 7 8 9 10 11 12 14 16 18 21 24 27 30 33 35 38 40 42 44 46 49 52 55 58 60 60 61 62
13 13 13 13 12 12 12 11 10 10 9 9 9 9 9 9 9 10 11 11 12 13 15 17 20 22 25 28 31 34 37 39 42 44 46 48 51 54 57 60 62 63 64 64
14 14 15 15 15 14 14 13 13 12 12 12 12 12 12 12 12 13 14 14 14 15 17 19 22 24 27 30 32 35 38 41 44 46 48 50 53 56 59 62 64 66 66 67
15 16 16 17 17 17 16 16 15 15 15 15 15 15 15 15 16 16 17 18 18 18 20 22 24 27 29 31 34 37 40 43 46 48 50 52 55 57 60 63 66 68 69 69
16 17 17 18 19 19 18 19 18 18 19 19 19 19 17 18 19 20 21 22 22 22 23 25 28 30 32 34 36 38 41 44 47 50 52 54 56 58 61 65 67 69 70 71
17 18 19 19 20 21 21 22 22 22 23 22 21 23 19 21 22 23 24 25 26 27 27 29 31 33 35 37 39 41 43 45 48 51 53 56 58 60 62 65 68 70 72 73
18 19 20 21 22 22 23 25 26 26 26 25 25 26 22 24 25 26 26 28 29 30 31 32 34 36 38 40 42 43 45 47 49 51 54 57 59 61 63 66 69 71 73 74
20 20 21 22 23 25 25 27 29 31 30 29 29 29 25 26 28 28 29 31 32 33 34 35 36 38 40 42 44 45 47 48 50 52 55 57 60 62 64 67 70 72 73 74
22 21 22 24 25 26 27 29 31 34 35 35 34 32 28 28 30 31 32 34 35 35 36 37 38 40 42 44 46 47 49 50 51 53 55 58 60 63 65 68 71 73 74 75
25 24 23 25 26 27 30 31 33 36 39 39 38 35 31 30 32 34 35 36 37 38 39 39 40 42 43 45 47 49 50 51 52 54 55 58 61 63 66 69 71 73 74 75
28 28 25 26 27 28 30 32 34 37 41 43 44 38 32 33 36 37 38 40 40 40 41 42 43 44 45 47 49 51 52 53 54 55 56 58 61 64 66 69 72 74 74 75
30 30 28 28 28 30 31 32 35 39 41 45 48 42 32 35 38 40 42 43 43 42 42 43 44 46 47 49 50 52 53 54 55 55 56 58 61 64 67 69 72 74 74 75
32 33 32 30 30 32 33 34 35 39 43 45 49 45 35 36 39 43 45 46 45 44 44 45 46 47 48 50 52 53 54 55 55 56 57 58 61 64 67 70 72 74 74 75
36 35 35 34 33 36 36 35 36 39 43 45 46 45 38 37 41 45 48 48 47 46 46 47 48 48 50 51 53 54 55 55 55 56 57 59 61 64 67 70 72 73 74 74
38 38 37 36 36 39 41 39 37 40 42 46 45 46 41 39 43 47 48 48 48 47 48 49 49 50 51 53 54 56 56 56 56 57 58 59 61 64 67 69 72 73 73 73
40 41 41 39 38 42 44 40 39 40 42 44 46 45 41 43 46 47 48 49 49 49 49 50 51 51 52 54 55 56 56 56 57 57 58 60 62 64 67 70 72 72 72 72
41 43 44 44 42 45 45 40 40 42 42 43 45 44 43 44 46 47 48 49 49 49 50 51 52 53 53 55 56 56 56 57 57 58 59 60 63 65 68 69 71 71 71 71
43 44 46 49 48 51 45 43 42 43 43 43 44 44 44 45 46 46 47 49 49 50 50 51 53 54 54 55 56 56 56 57 58 59 60 61 64 66 68 69 70 70 70 70
45 46 49 51 54 55 49 44 45 47 46 44 46 46 45 46 47 47 48 49 50 50 52 53 54 55 55 56 56 57 57 58 59 60 61 63 65 67 68 69 70 70 69 68
48 49 52 54 57 58 51 49 49 51 50 48 49 49 49 49 49 49 50 51 52 53 54 55 56 56 57 57 58 59 59 59 61 62 63 64 66 67 68 68 68 68 67 66
53 53 54 56 59 59 52 52 53 53 52 52 53 53 53 53 53 53 54 55 56 57 58 59 59 59 58 59 59 60 60 61 63 64 65 66 67 67 67 67 67 66 65 64
56 57 57 58 61 59 55 56 56 56 57 57 57 57 58 58 58 58 59 59 59 60 60 61 61 61 61 61 61 61 62 63 65 66 66 66 66 66 66 65 64 64 63 61
55 56 58 60 60 58 59 59 59 60 62 62 62 63 63 64 63 63 63 62 62 62 63 63 63 62 62 62 63 63 64 65 65 65 65 65 65 65 64 63 62 61 60 59
52 54 57 58 57 57 58 59 61 63 65 65 65 65 65 65 65 65 64 64 64 63 64 64 63 62 62 62 63 63 63 63 63 63 63 63 63 63 61 60 59 58 57 57
46 49 52 53 52 54 55 57 59 61 62 63 63 63 64 64 63 64 63 63 63 62 62 62 62 61 61 61 60 60 60 59 59 59 59 60 60 60 58 57 56 55 55 54
40 43 47 47 45 49 50 51 53 54 55 55 55 55 55 56 57 57 56 56 56 57 57 58 58 58 57 56 55 54 55 56 57 57 57 57 57 57 56 55 54 53 53 52

GEFSCGP_500_meanwind_054.txt.gz
Wind_Speed
19 20 20 20 20 21 21 20 20 21 21 20 18 17 18 19 17 17 18 18 19 20 21 21 22 24 25 27 28 29 30 31 32 33 35 36 38 40 42 44 45 47 48 49
21 21 22 21 22 22 22 22 22 23 24 23 22 20 21 21 20 20 20 21 22 22 23 24 25 27 28 30 31 32 34 35 36 36 38 39 41 42 44 46 47 49 50 51
22 22 23 23 23 24 24 25 25 25 26 26 26 22 22 24 23 22 23 23 24 25 26 27 28 29 31 32 34 35 36 37 38 39 40 41 43 45 47 48 49 51 52 53
23 23 24 24 24 26 25 26 27 28 28 28 29 27 19 26 24 23 24 25 26 27 28 29 31 32 34 35 37 38 39 40 41 42 43 44 46 47 49 50 52 53 54 55
23 23 24 24 25 27 27 28 29 29 30 30 29 32 22 25 25 25 27 28 28 30 30 32 33 35 36 38 39 41 42 42 44 45 46 47 48 49 51 52 54 54 56 57
23 23 24 24 26 28 29 30 31 31 32 31 30 33 29 25 27 28 29 30 31 32 33 34 36 37 39 41 42 43 44 45 46 47 48 49 50 52 53 54 56 56 57 58
22 23 25 26 27 28 30 32 34 35 33 33 32 33 29 27 28 30 31 32 34 35 36 37 39 40 42 43 44 46 47 47 48 49 50 51 52 53 54 56 57 57 58 59
23 23 25 27 28 29 30 32 35 38 38 36 34 34 29 28 29 31 33 34 36 37 39 40 42 44 45 46 47 48 49 50 50 51 52 53 54 55 56 58 59 59 60 61
27 25 26 28 29 31 32 32 34 39 41 40 37 35 31 28 27 29 32 35 37 40 42 44 46 48 49 49 49 51 51 52 53 53 54 55 55 57 58 59 60 60 61 62
30 29 27 28 30 32 34 35 36 38 43 44 41 36 32 30 30 30 32 36 39 42 45 48 50 52 52 52 52 53 53 53 54 55 56 56 57 59 60 60 60 61 62 64
34 33 31 30 31 33 34 35 37 39 42 45 47 41 35 36 34 35 36 39 43 46 48 50 53 54 55 54 54 54 54 55 56 57 57 58 59 60 61 61 61 63 64 65
35 37 35 33 33 34 36 37 38 40 43 45 49 47 38 38 39 40 41 42 44 47 50 52 53 54 55 55 55 55 55 56 57 58 59 59 60 61 62 62 63 65 66 67
38 40 40 38 36 37 39 39 40 42 44 45 48 49 43 45 45 45 46 47 47 48 50 51 53 53 54 55 55 55 56 56 57 58 59 60 61 62 63 64 65 66 67 67
42 43 43 43 41 42 43 42 42 43 45 48 49 51 47 48 50 51 50 50 51 51 52 52 53 54 54 55 55 55 56 57 58 59 59 60 62 64 64 65 66 67 67 68
45 47 46 46 45 46 48 46 44 45 46 50 51 52 52 53 55 55 56 56 55 55 55 55 55 54 55 55 56 56 56 57 59 59 60 62 64 65 66 67 67 67 67 67
48 51 51 51 49 51 53 48 46 47 48 50 53 54 53 56 57 58 59 59 59 58 57 57 57 57 56 57 57 57 58 59 60 61 62 64 66 66 67 67 67 67 66 66
50 52 54 55 53 56 55 49 50 50 51 52 55 56 58 58 59 60 60 60 60 59 59 58 58 58 58 59 59 60 61 62 63 64 65 65 66 67 67 66 66 65 64 63
50 52 54 56 56 58 54 52 52 54 53 54 56 58 60 60 60 61 61 61 60 60 59 59 59 59 60 61 62 62 63 64 65 65 66 66 66 65 65 64 63 62 60 60
47 49 53 56 57 57 54 52 54 56 55 54 57 58 59 59 58 59 60 61 61 61 61 61 61 61 60 60 61 62 62 63 64 65 64 64 63 63 62 60 59 58 57 58
44 46 49 51 54 55 52 52 53 53 54 54 56 57 57 57 58 57 57 59 60 60 61 61 61 60 58 58 60 60 61 61 61 61 61 60 59 59 58 57 56 56 56 56
43 45 47 49 51 51 50 51 52 53 54 54 55 56 56 56 56 55 55 55 56 56 56 57 57 56 56 56 56 56 56 57 58 58 58 57 56 56 54 53 53 54 54 54
42 44 45 47 49 49 49 50 50 51 52 53 54 54 54 53 52 52 52 52 51 50 51 52 54 54 53 54 54 54 53 53 53 53 53 52 52 52 51 51 51 51 51 51
42 43 44 46 46 46 48 49 49 50 51 50 51 50 50 49 49 49 49 47 46 46 47 48 49 49 50 51 51 51 51 50 49 49 49 50 50 49 49 49 50 50 49 49
43 43 44 46 45 45 47 47 47 48 48 48 49 48 48 48 47 46 44 43 43 43 44 44 44 45 45 47 48 50 49 49 49 49 49 49 49 48 49 49 49 49 48 48
44 45 46 47 46 47 46 47 48 48 48 48 47 46 46 45 43 42 42 42 42 42 43 43 44 45 45 45 47 48 49 50 50 51 51 51 50 50 50 49 49 48 48 48
42 45 49 49 49 51 49 49 49 48 47 46 45 44 44 43 42 42 42 43 43 43 44 43 44 45 46 48 49 50 51 51 52 52 52 52 52 51 51 50 50 50 49 48

GEFSCGP_500_meanwind_060.txt.gz
Wind_Speed
25 25 25 24 24 24 24 24 24 25 25 24 21 19 20 25 26 24 23 24 24 25 27 27 27 28 29 29 30 31 32 33 34 35 36 37 38 40 41 43 44 45 45 46
25 25 26 26 26 26 26 26 26 26 26 26 22 18 22 25 26 26 26 27 27 27 29 30 30 31 31 32 33 35 35 37 37 39 40 40 42 43 44 46 47 48 49 49
24 24 25 25 26 26 26 28 27 27 26 25 24 16 20 24 26 28 28 28 29 30 32 33 33 34 34 35 37 38 39 40 41 42 43 43 45 45 47 48 50 51 52 52
20 21 22 23 25 26 25 27 28 28 27 25 25 21 20 23 25 28 29 30 31 33 34 36 36 37 37 39 41 41 42 43 44 46 46 47 48 49 50 52 53 54 55 55
18 19 20 21 23 25 26 27 28 28 27 26 26 24 22 24 24 27 30 31 32 34 36 38 39 40 41 42 43 44 46 47 48 49 50 51 51 52 53 54 55 56 57 58
18 19 20 21 23 25 27 28 29 29 29 27 26 26 24 25 26 27 29 31 33 34 36 38 40 42 43 45 46 48 49 50 51 52 53 53 54 55 56 57 57 58 59 59
18 20 21 22 24 26 28 30 32 33 31 30 29 28 25 29 31 31 32 32 33 34 36 37 39 41 43 46 47 49 50 51 53 54 54 55 57 58 59 59 60 60 60 60
20 21 22 24 26 27 29 31 33 36 36 34 31 30 27 30 33 34 36 36 36 36 36 37 38 40 42 44 46 48 50 52 53 54 55 56 57 59 60 61 61 61 61 61
24 23 24 26 27 29 31 31 34 37 39 39 37 34 30 31 35 38 40 40 39 38 38 39 40 41 43 44 46 47 49 51 52 54 55 56 58 59 60 60 61 62 63 63
27 27 26 27 29 30 33 34 37 39 42 45 44 40 35 36 38 40 42 42 41 41 41 42 43 43 44 45 46 47 49 50 52 53 55 55 57 58 60 61 62 62 63 63
31 31 30 30 31 33 34 36 38 40 43 46 49 47 40 41 42 46 48 47 45 44 44 44 44 44 45 46 47 48 49 51 52 53 54 55 57 59 60 61 61 62 63 64
34 35 35 34 34 36 37 38 40 42 45 47 50 50 42 43 47 51 51 50 49 48 48 47 47 47 47 48 48 49 49 50 51 52 52 53 55 56 57 59 60 62 63 64
36 37 38 38 37 38 39 40 41 43 45 47 49 49 45 47 50 52 53 52 52 51 50 50 49 49 49 48 48 48 48 49 49 50 51 52 54 55 56 58 60 61 62 63
37 37 37 38 37 39 40 39 40 42 44 46 47 48 45 48 52 52 52 52 52 51 51 50 50 49 49 48 47 47 47 47 48 49 50 52 53 55 57 58 59 61 62 62
37 36 36 36 36 38 39 39 39 41 43 46 46 47 47 49 50 50 50 50 50 50 51 51 50 49 48 48 47 47 46 47 47 48 50 52 53 55 56 57 58 59 59 60
34 35 35 34 34 36 37 36 37 39 41 43 44 44 46 48 48 49 49 50 50 50 50 49 48 48 48 47 47 46 47 47 48 49 50 51 53 53 54 55 55 56 57 57
30 32 33 32 33 34 33 33 35 37 38 41 43 44 46 46 46 47 48 48 49 48 48 48 48 48 48 47 47 47 48 48 49 49 49 50 50 51 52 53 54 54 54 54
30 32 34 35 35 35 34 35 37 38 39 40 41 43 44 45 46 47 47 48 48 47 48 49 49 49 48 47 47 47 47 47 47 46 46 47 48 49 50 51 52 52 52 52
30 32 35 36 37 37 36 38 40 41 40 42 43 43 44 45 46 47 47 48 48 48 49 49 49 48 47 47 47 47 46 45 44 44 45 46 47 49 50 51 52 52 52 52
31 33 35 37 40 41 41 43 44 45 46 46 46 47 47 48 48 47 48 48 49 49 49 49 48 47 47 48 47 46 45 45 45 45 46 47 47 49 50 51 52 53 53 53
34 36 37 40 43 44 44 46 47 49 50 50 50 50 51 51 52 51 51 51 51 50 50 49 49 48 48 48 47 46 46 46 46 47 47 48 50 50 51 52 52 53 53 54
38 40 41 43 46 46 48 49 51 52 53 53 53 54 54 54 55 55 54 54 53 53 52 51 50 49 49 49 48 47 47 48 48 49 50 51 52 52 52 53 53 54 55 55
42 43 45 47 49 49 51 53 54 56 57 57 57 57 58 58 58 58 58 57 56 55 53 52 51 50 50 50 50 49 50 50 50 51 53 53 54 54 54 55 55 55 55 56
46 46 48 51 50 52 54 56 57 59 59 60 60 61 62 61 61 61 60 60 59 57 55 54 53 52 52 52 52 52 52 52 53 53 54 55 55 55 56 56 55 55 55 55
49 51 53 55 55 56 58 59 60 61 62 63 63 64 64 64 64 63 62 61 60 58 57 56 55 54 53 53 53 53 53 54 54 54 55 56 57 56 56 56 55 55 55 55
51 55 59 59 60 62 62 63 65 65 65 66 66 66 66 66 65 64 62 61 60 58 57 57 56 55 54 54 54 54 55 55 55 56 56 57 57 56 56 56 55 55 56 55

GEFSCGP_500_meanwind_066.txt.gz
Wind_Speed
21 22 23 24 24 24 25 25 24 25 25 24 24 26 26 26 26 26 26 26 27 27 27 29 29 30 32 33 34 35 37 38 39 40 41 42 43 44 44 44 45 46 47 49
19 20 21 22 22 22 23 23 23 23 24 22 22 25 27 26 26 26 26 26 26 27 27 28 29 30 32 33 35 37 38 39 41 42 43 44 45 45 45 46 47 49 51 52
17 18 18 19 19 20 21 22 22 22 21 21 21 22 27 26 25 26 26 26 27 27 27 28 29 30 31 33 35 37 38 40 41 43 44 45 46 47 47 48 50 52 54 54
14 15 16 17 18 19 19 21 21 22 21 20 22 21 25 29 28 27 27 27 27 28 28 29 30 30 31 33 34 36 38 40 42 44 45 46 47 48 49 51 53 54 55 56
13 14 15 17 18 19 20 21 22 23 23 22 22 22 22 28 30 29 29 29 29 29 30 31 32 32 33 34 35 37 39 41 43 44 46 48 49 50 52 54 55 55 57 58
14 15 16 17 19 20 21 22 24 25 25 25 22 22 23 27 29 32 34 33 33 32 33 34 35 35 36 36 37 39 40 42 44 46 47 49 50 52 54 55 56 57 58 59
15 15 17 18 20 21 23 25 27 28 28 28 28 27 26 29 32 34 36 36 35 35 35 35 36 37 38 39 40 41 42 44 46 47 49 50 52 54 55 56 58 59 60 60
17 16 17 19 21 23 24 26 28 30 31 31 30 29 28 30 32 34 36 37 36 36 35 36 37 39 40 41 42 44 45 47 48 50 51 53 54 55 56 58 59 60 61 62
19 20 19 22 23 26 27 28 30 32 34 35 33 31 30 30 32 34 37 38 38 37 37 38 39 40 41 42 43 45 46 48 50 51 53 54 56 57 58 59 61 61 62 63
22 23 22 23 26 27 29 31 32 34 36 37 35 34 32 32 34 36 38 39 39 39 40 40 40 41 42 43 44 46 47 48 50 51 53 55 56 57 58 59 60 62 63 64
26 26 26 26 27 29 29 30 32 33 34 37 37 33 32 33 35 36 37 38 39 39 39 40 41 42 43 44 45 46 47 49 50 51 53 54 55 56 57 58 59 60 61 62
28 29 28 28 29 31 31 30 30 32 33 34 36 34 32 34 36 37 37 38 39 39 40 41 42 43 44 45 45 46 47 49 51 52 53 54 55 57 57 58 59 59 59 60
29 30 30 29 31 31 30 28 29 31 31 31 32 32 31 34 37 38 39 40 41 42 42 43 44 46 47 47 48 48 49 51 52 53 54 54 55 57 57 58 58 58 58 59
31 30 31 30 29 30 30 30 30 31 32 32 31 32 31 35 37 38 39 41 43 44 45 46 47 48 49 50 51 51 52 53 53 54 54 54 55 56 57 57 57 57 57 58
32 30 30 29 28 29 28 27 29 31 33 35 33 34 36 37 38 40 42 44 45 47 48 49 50 51 52 53 54 55 55 56 56 56 56 56 56 55 56 56 56 57 58 58
31 31 30 28 29 29 27 27 30 31 33 35 36 37 39 41 42 44 45 47 49 50 51 52 53 54 55 56 57 57 58 58 58 58 58 58 58 57 57 56 56 57 57 57
30 31 31 29 29 29 28 29 31 33 34 37 39 40 42 44 45 47 49 51 52 53 55 56 57 59 59 60 61 61 61 61 61 60 60 59 59 58 57 57 57 57 56 56
30 31 32 30 30 31 30 32 34 36 37 39 41 43 45 47 48 50 52 55 56 58 60 61 62 63 64 64 64 64 64 64 63 63 62 61 60 59 59 58 58 58 57 57
30 31 33 34 35 35 33 35 38 40 41 43 45 47 48 50 52 53 56 59 61 62 64 65 66 67 68 68 68 67 66 65 65 64 62 61 61 59 59 58 58 58 57 57
30 32 35 37 39 39 38 40 43 45 47 48 50 52 54 56 57 58 61 63 65 67 68 70 70 71 71 70 70 69 68 66 65 64 62 61 61 60 59 58 57 57 57 57
31 34 36 38 42 42 43 46 47 49 52 53 55 57 59 61 63 65 67 69 70 72 73 73 74 74 73 72 71 69 68 66 65 64 62 61 60 59 58 58 57 57 57 57
34 36 38 41 44 45 48 50 52 54 56 57 59 62 63 65 67 69 71 72 74 75 76 76 76 75 73 72 70 68 66 65 64 62 60 59 58 58 58 58 57 57 57 57
37 38 41 45 47 48 51 53 56 58 60 62 64 65 68 69 71 73 74 76 77 77 77 77 76 74 71 69 68 66 64 63 62 60 59 58 58 58 58 57 57 57 57 57
39 41 46 49 49 51 53 56 58 60 63 65 67 69 71 73 75 76 78 78 78 78 77 75 73 70 68 66 65 64 63 62 60 59 58 58 57 56 56 56 56 55 55 54
41 47 51 53 53 56 58 60 62 64 66 68 70 72 74 76 77 78 79 78 77 75 73 71 69 67 65 63 62 62 62 60 58 57 56 56 55 54 54 53 53 53 53 54
45 52 55 56 57 60 62 64 66 68 69 71 73 74 76 78 78 78 77 76 73 71 69 67 65 64 62 61 60 60 59 58 57 55 54 53 53 52 51 50 49 50 50 51

GEFSCGP_500_meanwind_072.txt.gz
Wind_Speed
17 18 18 18 18 17 17 17 18 19 18 17 18 18 17 18 18 18 18 18 19 19 19 19 20 22 23 24 26 27 28 30 32 34 35 36 37 38 39 41 42 44 45 47
16 17 17 16 16 15 15 15 16 16 16 16 16 17 17 17 17 18 18 19 20 20 20 21 21 22 24 25 27 28 29 31 33 35 37 38 39 39 40 41 43 45 48 50
14 15 15 14 14 14 14 14 13 12 14 16 16 18 17 17 17 18 18 19 20 21 22 23 23 24 26 27 28 29 30 32 33 35 37 38 40 41 42 44 46 48 50 52
14 13 13 13 13 13 13 14 13 12 13 14 17 19 19 18 17 18 19 19 21 22 23 24 25 26 27 28 29 30 31 32 34 35 37 39 41 42 44 47 48 50 52 54
13 13 13 13 13 13 14 14 14 13 14 15 17 19 22 20 20 20 20 21 22 23 24 25 26 27 28 29 31 32 33 34 35 37 39 40 42 43 45 47 49 51 54 56
14 13 13 13 14 14 15 16 16 16 16 16 17 18 22 23 23 22 22 23 23 24 24 25 26 28 29 30 31 33 34 35 36 37 39 40 42 43 45 47 49 52 54 57
14 13 14 14 15 15 16 18 19 19 18 18 19 20 22 24 24 24 24 24 24 24 24 25 26 27 29 31 33 34 35 36 37 38 39 40 42 44 45 47 49 51 54 56
14 14 15 15 17 18 19 20 21 22 21 20 21 22 23 24 25 25 24 24 23 23 24 24 26 28 30 31 32 34 35 36 37 39 40 42 44 45 47 49 51 53 54 56
16 16 17 18 19 20 21 22 22 23 24 22 21 22 23 24 24 23 22 22 22 23 24 25 27 29 31 32 33 35 36 38 39 41 43 45 47 49 50 52 53 55 56 58
19 18 18 19 21 22 23 24 24 25 26 26 23 22 24 24 23 22 22 23 24 25 26 28 29 31 33 35 36 37 39 41 43 44 46 48 50 52 54 55 57 59 60 61
22 21 20 21 22 24 25 25 26 27 27 28 25 21 24 23 23 23 24 25 26 28 29 31 33 35 37 39 40 42 44 45 47 49 51 53 55 57 59 60 61 62 63 64
23 23 22 23 25 26 26 26 27 28 28 27 26 21 23 23 25 25 26 28 30 32 33 35 37 39 41 43 45 46 48 50 53 55 57 59 61 62 64 65 66 67 67 68
25 25 25 25 26 27 27 27 28 29 28 26 25 21 24 26 27 28 30 32 34 36 37 39 41 43 45 47 50 52 54 56 58 61 63 65 66 68 69 69 70 70 70 70
28 28 27 27 28 29 27 27 28 30 29 27 24 23 24 28 30 31 33 35 37 39 42 44 46 48 50 52 55 57 60 62 64 67 69 70 72 73 73 74 74 73 73 72
30 30 29 29 29 30 28 27 29 30 30 30 26 27 27 29 31 34 36 38 41 43 46 48 50 53 55 58 60 63 65 68 70 72 74 75 76 77 77 76 76 75 75 74
31 32 31 29 30 30 29 28 29 29 30 31 30 29 31 32 35 37 40 42 45 47 50 52 55 58 60 63 65 68 71 73 75 77 78 79 79 79 78 77 76 75 74 72
33 33 33 31 30 31 30 29 29 30 30 31 31 32 34 36 38 41 43 46 49 52 54 57 60 62 65 68 71 73 76 78 80 81 81 81 80 79 78 76 75 73 72 70
33 33 35 34 32 31 30 29 30 30 31 32 33 35 37 39 42 44 47 50 53 56 59 62 64 67 70 72 75 77 80 81 82 83 82 81 80 78 76 74 72 70 69 67
33 34 36 36 33 30 29 31 31 32 33 34 36 38 40 43 45 48 51 54 57 60 63 66 69 72 74 77 79 81 82 83 83 82 81 80 78 75 73 70 68 67 65 64
33 34 36 35 35 32 32 32 33 35 36 37 39 41 44 47 50 52 55 58 60 63 67 70 73 76 78 80 82 83 83 83 82 81 79 76 73 70 68 66 64 63 61 60
33 34 35 35 36 35 35 35 36 37 39 41 42 45 48 51 54 57 60 63 66 69 72 74 77 79 81 82 83 83 83 82 80 78 74 70 67 65 63 62 60 58 57 56
33 34 34 36 37 38 38 38 39 40 42 44 47 49 52 55 58 61 64 67 69 72 74 76 78 80 81 82 82 82 80 79 76 72 68 65 63 61 60 59 57 56 55 54
33 34 35 36 38 40 39 40 42 43 46 48 51 54 57 59 62 64 67 70 72 74 76 78 80 81 80 80 80 79 77 74 70 67 64 61 59 58 57 56 55 53 52 52
33 34 36 38 39 41 42 43 45 47 50 52 55 58 60 63 66 68 70 72 74 75 77 79 80 80 79 77 76 74 72 69 66 63 60 58 57 54 53 52 52 50 49 48
33 36 39 40 40 42 44 46 48 50 53 56 58 61 64 67 69 70 72 73 75 76 78 79 79 78 77 75 71 69 67 65 62 59 57 56 54 52 50 49 49 47 46 46
35 39 42 41 42 44 46 48 50 53 56 58 61 64 66 68 70 71 73 74 76 77 78 78 77 75 73 70 67 65 63 61 59 56 54 52 50 48 47 46 44 44 44 43

GEFSCGP_500_meanwind_078.txt.gz
Wind_Speed
21 22 23 22 22 22 22 21 22 21 20 19 19 19 20 19 19 20 20 21 22 23 23 23 24 25 26 26 27 27 28 28 29 30 30 31 32 33 35 37 38 40 42 43
21 22 22 22 22 21 21 20 20 20 19 17 18 18 18 18 18 19 21 22 23 23 24 24 25 26 26 27 28 28 29 29 29 30 30 31 32 33 35 37 38 40 42 44
22 22 22 21 21 20 19 19 18 18 18 17 17 16 17 17 19 20 22 23 24 24 24 25 26 27 28 29 30 30 30 31 31 31 31 32 33 34 36 38 39 41 42 44
22 22 21 20 20 19 18 18 17 17 18 18 18 17 17 18 19 21 23 24 25 26 26 27 28 29 30 30 31 31 31 31 31 32 32 33 34 35 37 38 40 41 43 44
22 21 21 20 19 19 18 17 17 17 18 18 18 19 18 19 21 22 24 25 27 27 28 29 29 30 30 30 30 30 30 30 30 31 32 33 34 35 37 38 40 41 43 45
22 22 21 20 20 19 18 18 18 18 18 18 19 20 21 20 22 24 25 26 27 28 29 30 30 29 30 30 30 30 29 29 30 31 32 34 35 36 38 40 41 43 45 47
23 22 21 21 20 20 19 19 19 19 19 19 20 22 22 22 23 25 26 27 28 29 29 29 29 29 29 30 30 29 29 30 32 33 35 36 37 39 40 42 44 46 48 50
22 21 21 21 21 20 20 21 21 22 21 21 22 22 23 24 25 26 27 28 29 30 29 28 29 29 30 30 30 30 32 33 35 36 38 40 42 43 45 47 49 51 53 56
22 22 22 22 21 21 21 22 23 24 24 23 23 23 24 26 28 29 30 30 30 30 29 29 29 30 31 31 32 34 35 37 38 40 42 44 46 48 50 53 55 58 60 63
23 23 23 23 23 23 24 24 25 26 28 27 25 24 26 28 29 30 31 30 30 30 30 30 31 32 33 35 36 37 39 41 43 45 47 49 52 54 57 59 62 64 67 69
25 25 24 24 25 25 26 26 27 29 30 30 29 26 28 30 31 32 32 31 31 31 32 33 35 35 36 38 39 41 43 45 47 50 52 55 57 60 62 65 68 70 72 75
27 27 26 26 27 28 28 28 30 31 32 32 32 30 30 31 33 34 33 32 33 34 35 36 37 38 40 41 43 45 47 50 52 55 57 60 62 65 68 70 73 75 77 80
29 29 28 28 29 30 30 30 31 33 34 34 33 30 31 33 35 35 34 34 35 36 38 39 40 41 43 45 47 49 52 55 57 60 62 65 68 70 73 75 78 80 82 83
31 31 31 31 31 32 32 32 33 34 35 36 32 31 32 35 36 36 35 36 38 39 40 41 43 45 47 49 51 54 56 59 62 65 67 70 73 75 78 80 81 83 85 86
33 33 32 32 33 34 34 33 34 36 36 37 34 32 32 35 36 37 38 39 40 41 43 44 46 48 50 52 55 58 60 63 66 69 72 75 77 79 81 83 84 85 86 87
35 35 35 34 35 36 36 34 35 37 37 37 37 35 34 35 37 38 40 41 42 44 45 47 49 51 54 56 59 62 64 68 71 73 76 78 80 82 84 85 86 87 87 86
35 36 37 37 36 39 38 35 36 37 38 38 38 36 36 36 38 39 41 42 44 46 47 49 52 54 57 60 63 66 68 72 74 77 79 81 83 84 85 87 87 87 86 84
36 36 39 40 40 41 38 37 37 37 38 38 38 37 37 38 39 41 42 44 46 48 50 52 55 58 61 64 67 69 72 75 78 80 81 83 85 86 87 87 86 85 82 79
37 38 40 42 43 43 39 38 38 39 39 38 38 38 39 40 41 43 45 46 49 51 53 56 58 61 64 67 70 73 76 78 80 82 83 84 86 87 87 86 83 79 76 72
39 40 42 43 45 45 41 40 40 41 40 38 39 40 40 42 43 44 47 49 51 54 56 59 62 64 67 70 73 76 78 80 81 83 84 85 86 86 85 82 77 73 69 66
41 42 44 45 46 46 44 43 42 41 40 40 40 41 42 43 45 47 49 51 54 56 59 62 64 67 70 74 76 78 79 81 83 84 85 85 85 82 79 75 70 67 64 60
43 45 45 46 47 46 45 43 42 42 42 42 42 42 44 45 47 49 51 54 56 59 62 65 67 70 73 75 77 79 80 82 84 84 85 83 80 76 72 68 64 61 59 56
44 44 45 45 45 45 44 43 43 43 42 42 43 44 46 47 49 52 54 56 59 62 65 68 71 73 74 76 78 80 82 84 84 84 82 78 74 69 66 63 60 57 55 53
44 44 44 44 44 44 44 43 43 42 43 43 45 46 48 50 52 54 56 59 62 65 68 70 72 74 75 77 79 82 83 84 84 81 77 72 68 64 60 57 55 53 52 51
44 44 45 45 44 44 44 43 43 43 44 45 46 48 50 52 55 57 60 63 66 68 70 72 73 75 77 79 81 83 84 83 80 76 71 67 63 59 55 52 51 50 49 50
43 44 44 43 43 43 42 42 43 44 45 47 49 51 53 55 58 60 63 66 68 70 71 73 75 77 79 81 82 82 82 79 75 71 66 62 57 54 51 49 47 46 47 47

GEFSCGP_500_meanwind_084.txt.gz
Wind_Speed
24 23 22 22 21 20 20 21 21 21 20 20 20 20 19 19 19 19 20 20 20 20 20 20 21 21 22 23 24 25 26 27 28 29 29 30 30 31 32 33 33 34 35 36
24 23 23 22 21 20 20 20 21 20 20 19 19 19 19 19 19 19 20 20 20 20 21 21 22 23 24 25 26 26 27 28 29 29 30 30 31 32 33 33 34 35 35 36
24 24 22 22 21 20 20 20 20 20 19 19 19 19 19 19 19 20 20 21 21 21 21 22 23 24 26 27 27 28 29 29 30 30 30 30 31 31 32 32 33 34 35 36
25 24 23 22 21 21 20 20 20 19 19 18 18 18 18 19 20 20 21 21 21 22 22 23 25 26 27 28 29 29 30 30 30 29 29 29 29 30 31 32 33 34 36 37
25 24 23 22 22 21 20 20 19 19 19 18 18 19 18 19 20 21 21 22 22 23 24 25 26 28 28 29 30 30 30 30 30 29 29 29 30 31 32 33 34 36 38 39
24 23 23 22 22 21 20 20 20 19 19 18 18 19 19 19 20 22 22 23 23 24 25 27 28 29 30 30 31 31 31 30 30 30 30 31 32 33 34 35 37 39 41 43
24 23 23 22 22 21 20 20 20 19 19 19 19 20 20 20 21 22 23 24 24 26 27 29 30 30 31 31 31 31 31 31 31 32 32 33 35 36 37 39 41 43 45 47
24 23 22 22 21 21 20 20 20 20 20 19 19 20 20 21 22 24 25 25 26 28 29 30 31 32 32 32 32 31 32 32 33 34 35 37 39 40 42 43 45 47 49 52
24 23 23 22 22 21 20 20 21 21 21 21 21 21 21 22 24 25 26 28 29 30 31 32 32 33 33 32 32 33 34 35 36 37 39 40 42 44 45 47 50 52 54 56
24 23 22 22 21 22 22 21 21 22 23 23 22 21 22 24 25 27 29 30 31 32 33 33 34 34 34 34 34 35 36 37 38 40 41 43 45 47 49 51 54 56 59 61
23 23 22 22 22 22 22 22 23 24 25 25 25 23 24 26 27 29 30 32 33 33 34 35 36 36 36 36 37 38 39 40 41 43 45 46 48 51 53 55 58 61 63 66
23 24 23 23 23 24 24 24 25 26 26 27 28 26 26 28 29 31 32 33 35 36 36 37 38 38 38 38 39 40 41 42 44 46 48 50 52 55 57 60 62 65 68 70
25 25 25 25 25 25 25 25 26 28 28 29 29 27 28 31 33 34 35 36 37 37 38 39 39 39 40 40 41 42 44 45 47 49 51 54 56 59 61 64 66 69 72 74
27 27 27 26 27 26 26 26 27 29 30 31 29 29 30 33 35 36 37 37 38 38 39 40 40 41 41 42 43 45 46 48 50 53 55 57 60 63 65 68 70 73 76 78
29 29 28 28 28 29 29 29 29 30 31 33 32 32 32 35 37 38 38 38 39 40 40 41 41 42 43 44 46 48 49 51 54 56 58 61 63 66 69 71 74 77 79 81
31 30 30 30 30 31 31 30 30 31 32 34 35 34 34 37 38 39 39 39 40 40 41 42 43 44 45 47 48 50 52 54 57 59 61 64 67 69 72 74 77 79 81 83
32 32 33 33 32 35 34 30 31 33 33 35 36 36 37 38 39 39 40 41 41 42 43 44 44 46 47 48 50 52 55 57 59 62 64 67 70 72 75 77 79 82 84 86
34 34 35 36 35 37 35 33 33 35 35 36 38 38 39 40 40 41 41 42 42 43 44 45 46 47 49 51 53 55 57 59 62 64 67 70 72 75 77 80 82 84 86 87
35 35 37 38 39 39 36 35 36 37 37 37 39 39 40 41 42 42 42 43 43 44 45 46 47 49 51 53 55 57 59 62 65 67 70 72 75 77 80 82 84 86 87 86
36 36 38 40 41 42 39 38 38 40 39 38 39 40 41 42 42 42 43 43 43 44 45 46 48 50 52 55 57 59 62 65 67 69 72 74 77 80 82 84 86 86 86 83
37 38 39 40 42 43 42 41 40 41 41 40 40 41 41 41 41 42 42 43 44 45 46 48 50 52 55 57 59 62 64 67 69 72 74 76 79 82 84 85 85 84 81 77
39 40 41 41 43 44 43 42 42 42 42 42 42 41 41 41 42 43 43 44 44 46 48 50 52 54 57 59 62 64 67 69 71 74 76 78 81 83 84 84 82 79 75 70
41 41 41 42 43 43 43 44 43 43 43 43 43 42 42 43 43 43 43 44 45 47 50 52 54 56 59 62 64 66 69 71 73 75 78 80 82 83 82 81 77 72 68 64
40 41 42 42 42 43 44 44 44 44 44 43 43 43 43 43 43 43 44 46 47 49 51 54 56 58 61 63 66 69 71 73 75 77 80 82 82 81 78 75 71 67 63 60
41 41 42 42 42 43 44 44 44 44 44 44 44 44 43 43 44 45 46 48 49 51 54 56 58 61 63 65 68 70 73 75 77 80 81 81 80 78 74 70 66 62 59 57
40 40 41 41 42 43 43 43 44 44 44 44 44 43 43 44 45 46 47 49 51 54 56 58 61 63 65 67 70 72 75 77 80 81 80 79 77 74 69 65 60 57 55 53

GEFSCGP_500_meanwind_090.txt.gz
Wind_Speed
33 32 30 30 29 27 26 25 24 25 24 22 22 22 21 20 21 21 21 20 20 20 20 20 20 21 21 22 22 22 23 23 25 26 27 28 29 30 30 31 32 32 32 33
35 33 32 31 29 27 26 25 25 26 24 23 22 21 21 20 20 21 20 20 19 20 20 20 20 21 22 22 23 23 24 25 27 28 29 29 30 30 30 30 31 31 31 32
35 33 33 32 29 27 26 25 25 25 24 23 24 22 21 20 20 21 20 20 19 19 19 19 20 21 22 23 24 25 26 27 28 29 30 30 31 31 31 31 32 32 33 33
35 33 32 31 29 28 26 25 24 24 24 23 24 23 20 19 20 20 20 19 19 19 20 20 21 22 23 24 25 26 28 29 30 31 32 32 32 32 32 32 33 34 35 36
35 33 31 30 28 27 25 24 24 24 24 24 22 25 21 18 19 20 20 20 20 20 21 21 22 23 24 26 27 29 30 31 32 33 33 33 33 33 34 35 35 36 37 38
34 33 30 29 28 28 26 25 25 25 25 24 21 25 23 18 19 20 21 20 21 21 22 23 24 25 26 28 29 31 32 33 34 34 35 35 35 36 36 37 38 39 40 41
31 32 30 29 29 28 26 25 25 25 25 24 22 24 23 19 19 20 21 21 22 22 23 24 26 27 29 30 31 32 33 34 35 36 36 36 37 38 38 39 40 41 42 44
32 31 31 29 28 27 26 25 25 25 24 25 21 21 20 20 21 21 22 22 23 24 25 26 28 29 31 32 33 34 35 36 37 37 38 38 39 40 41 41 42 44 45 46
31 32 30 29 28 28 26 24 23 25 24 24 23 22 19 20 22 24 24 24 25 26 27 28 30 31 32 34 35 36 37 38 39 39 39 40 41 42 42 43 45 46 48 49
31 32 29 28 27 26 25 24 24 25 24 24 23 23 21 18 23 25 26 26 27 28 29 30 31 33 34 36 37 38 38 39 40 41 41 42 43 44 45 46 47 49 51 52
31 31 29 27 26 25 25 24 24 25 24 25 24 24 23 21 23 26 28 29 29 29 30 32 34 35 36 38 39 40 40 41 41 42 42 43 44 46 47 49 50 52 53 55
29 29 28 27 26 26 26 24 24 25 25 25 26 26 25 25 26 28 29 30 31 32 33 34 35 37 38 40 40 41 42 42 43 43 44 45 47 48 50 51 53 54 56 57
28 28 27 27 26 27 25 23 24 25 26 27 27 27 26 27 28 30 31 32 33 34 35 36 38 39 40 41 42 43 43 44 45 45 47 48 49 51 52 53 55 56 58 60
28 27 26 26 27 26 24 24 25 27 27 27 27 27 28 30 31 32 32 33 34 36 37 39 40 41 42 43 44 45 45 46 47 48 49 50 51 53 54 55 57 59 61 63
28 27 26 27 28 26 25 25 26 27 27 28 27 28 28 33 34 34 35 35 36 38 40 41 42 42 43 44 45 46 47 48 49 50 51 52 53 55 56 58 60 62 64 65
29 28 28 28 29 29 29 27 27 27 27 29 30 29 30 33 35 36 38 38 39 40 41 43 44 44 45 46 47 48 49 50 51 51 53 54 55 57 58 60 62 64 66 68
31 30 30 30 30 31 31 27 28 28 29 31 32 31 32 34 35 37 39 40 41 42 43 44 45 47 48 48 49 49 50 50 51 53 54 56 57 59 61 63 64 66 68 70
32 31 33 32 32 34 29 28 29 30 30 32 33 34 35 36 38 39 40 42 43 44 45 46 47 48 49 49 49 49 50 51 53 54 56 58 59 61 63 65 66 68 70 72
34 34 35 35 35 34 31 30 30 32 32 32 34 36 38 39 40 41 42 43 45 46 46 47 48 48 48 48 49 50 51 53 54 56 58 59 61 63 65 66 68 70 72 75
35 35 36 36 36 35 33 32 33 34 35 33 35 37 39 40 41 41 43 44 45 46 46 47 48 48 49 49 50 51 53 54 55 57 59 61 63 65 66 68 70 73 75 78
34 35 36 36 37 36 35 35 35 36 36 37 37 38 39 40 41 42 43 44 45 46 47 47 48 49 49 50 51 52 54 55 57 59 60 62 64 66 68 70 73 76 78 80
33 35 36 37 39 37 35 36 37 37 38 39 40 40 41 41 42 43 44 45 45 46 47 47 48 49 50 51 52 53 55 57 59 60 62 64 66 68 70 73 76 79 81 82
34 34 36 37 38 37 38 38 38 40 41 41 42 42 42 43 43 44 45 45 45 46 47 48 48 49 50 52 53 55 57 58 60 61 63 65 67 70 73 76 78 81 82 82
36 35 36 37 37 38 39 39 41 42 42 42 43 43 43 44 45 45 45 45 45 47 48 48 49 50 51 53 54 56 58 60 61 63 65 67 70 72 75 78 80 82 81 80
37 37 36 36 37 38 38 39 41 42 43 44 43 43 44 44 45 45 45 46 47 47 48 49 50 51 52 54 55 57 59 61 63 65 67 70 72 75 77 79 81 81 79 76
36 36 36 36 37 39 40 40 41 43 43 43 43 44 44 45 45 45 47 47 48 48 49 50 51 52 53 55 56 59 61 63 65 68 70 72 75 77 80 81 80 77 74 70

GEFSCGP_500_meanwind_096.txt.gz
Wind_Speed
36 36 34 35 36 36 36 35 34 34 34 33 31 30 30 29 27 26 25 26 26 25 24 23 23 23 23 23 23 23 23 24 24 25 26 27 28 29 30 31 32 33 34 34
37 35 34 37 37 36 36 36 35 35 36 34 32 30 30 30 28 26 25 25 25 24 24 23 23 23 23 23 23 23 23 23 24 26 27 28 29 30 32 33 34 34 35 35
35 33 35 37 36 36 35 35 35 36 36 36 34 30 29 29 29 27 25 26 25 25 24 24 23 23 23 23 23 23 23 24 25 27 29 30 31 32 34 34 35 35 36 36
37 34 36 36 36 35 34 34 35 37 38 36 35 32 27 29 28 27 26 25 25 24 24 23 23 23 23 23 23 24 25 26 27 28 30 31 33 34 35 36 36 37 38 39
36 34 35 35 35 36 35 35 36 38 38 37 34 36 27 28 28 27 26 25 25 24 24 23 23 23 23 24 24 25 26 27 29 30 32 33 34 35 36 37 38 39 40 40
35 35 36 35 35 36 36 35 36 37 38 37 33 36 29 26 27 27 26 24 24 24 23 23 23 23 24 25 26 27 28 29 31 32 33 35 36 37 38 39 40 41 41 42
33 34 35 35 35 36 36 35 36 37 37 35 33 35 29 25 26 27 25 24 23 23 23 23 23 24 25 26 27 28 29 31 32 33 35 36 37 39 40 41 42 42 43 43
33 33 33 34 33 34 35 36 36 36 36 33 32 33 28 25 25 26 25 23 22 23 23 23 24 25 26 27 28 29 31 33 34 35 36 38 39 40 42 42 43 44 44 45
32 32 32 33 32 34 34 34 33 35 36 35 34 32 28 25 24 25 24 23 23 23 23 24 25 26 27 28 29 31 33 34 36 37 38 40 41 42 43 44 44 45 46 48
32 32 32 33 33 34 34 33 34 36 36 35 33 30 28 24 23 23 24 24 23 23 24 25 26 27 29 30 31 32 34 36 37 39 40 41 43 44 44 46 47 48 49 50
31 32 32 33 33 32 33 33 34 35 37 35 33 28 26 25 24 23 23 24 24 24 25 26 28 29 30 31 33 34 36 38 39 41 42 43 44 45 46 47 49 50 50 51
30 32 32 31 31 33 34 33 33 34 34 33 32 28 25 26 25 25 24 24 25 25 26 28 29 30 32 33 35 36 38 40 41 43 44 45 46 47 48 49 50 51 52 53
30 33 32 32 32 32 32 31 32 33 34 33 31 27 25 26 27 27 27 26 26 27 28 29 30 32 34 35 37 39 40 42 43 45 46 47 48 49 50 51 52 53 54 55
30 31 30 28 27 28 30 30 31 33 33 31 29 26 25 26 28 28 28 28 28 28 30 31 33 34 36 37 39 40 42 43 45 46 47 48 49 50 51 52 53 54 55 56
30 30 28 27 28 30 29 29 30 31 30 30 28 27 25 27 29 30 30 30 30 31 32 34 35 36 37 39 41 42 44 45 47 48 49 50 51 52 53 54 54 56 57 58
31 30 29 29 28 30 30 30 30 31 30 30 30 27 25 30 31 31 31 32 32 34 35 36 37 38 40 41 43 44 45 47 48 49 50 51 52 53 53 54 56 56 57 58
31 31 30 30 29 31 32 29 29 30 30 30 30 27 28 30 31 32 33 33 35 36 37 38 39 40 42 43 44 46 47 49 49 50 51 52 53 53 54 56 56 57 58 59
33 32 32 32 32 35 28 26 28 29 29 29 29 28 29 31 32 33 34 35 36 37 38 39 40 42 43 44 46 47 49 50 51 51 52 53 53 54 55 56 57 58 60 61
33 33 34 33 34 34 31 28 28 29 28 28 30 30 32 33 33 34 35 36 37 38 40 41 42 43 45 46 47 48 49 50 51 52 52 53 54 55 56 57 58 59 61 62
33 33 34 34 34 33 29 28 30 31 29 27 30 32 33 34 35 35 36 37 39 40 41 42 44 45 46 47 48 49 50 50 51 51 52 53 54 56 57 58 59 61 62 63
33 33 33 33 34 32 29 29 30 31 28 28 31 33 34 35 36 36 37 39 40 41 43 44 44 45 46 47 48 48 49 50 50 51 52 54 55 57 58 59 60 62 64 66
33 34 34 34 35 30 28 30 31 30 31 32 33 34 35 36 36 37 38 40 41 42 43 44 45 45 46 46 47 48 49 50 51 52 53 54 56 57 59 60 62 64 66 68
34 33 33 33 32 31 32 32 32 32 33 34 35 36 36 37 37 38 39 40 41 42 43 43 44 45 45 46 47 48 49 50 51 53 54 55 57 58 60 62 64 66 69 72
33 33 34 34 33 33 33 33 34 34 35 36 36 37 37 38 38 39 39 40 41 41 42 43 43 44 45 46 48 49 50 51 52 53 55 56 58 60 62 64 67 70 73 76
34 34 34 34 33 33 34 34 35 36 37 37 37 38 38 39 39 40 40 41 41 42 43 43 44 45 47 48 49 50 51 52 53 55 56 58 60 62 65 67 70 73 76 80
34 33 33 32 32 34 34 35 36 37 37 38 38 38 39 39 40 41 41 42 42 43 44 45 46 46 47 48 49 51 52 53 55 56 58 61 63 66 68 71 73 76 79 82

GEFSCGP_500_meanwind_102.txt.gz
Wind_Speed
38 38 36 34 36 38 38 37 35 35 37 38 37 35 34 36 34 33 33 33 32 32 31 31 31 31 30 30 30 30 30 30 29 29 29 29 29 29 30 31 31 32 33 35
39 37 33 37 39 39 39 38 36 36 39 40 38 36 34 35 35 34 33 33 33 33 32 32 32 32 32 31 31 31 31 31 30 30 30 30 30 30 31 32 33 34 35 36
38 34 35 38 39 39 38 38 37 37 39 41 41 37 33 34 36 35 34 34 34 34 34 34 33 33 33 32 32 32 32 31 31 31 31 31 31 32 33 34 35 36 37 38
40 37 37 38 37 38 37 36 38 38 40 40 41 40 31 32 34 35 34 34 34 34 34 34 34 34 34 33 33 33 32 32 31 31 32 32 33 34 35 36 37 38 38 39
39 36 36 37 36 37 37 37 39 39 40 40 38 42 33 31 32 34 34 34 34 35 34 34 34 34 34 34 33 33 33 32 32 32 33 34 35 36 36 37 38 39 40 41
39 38 38 37 36 38 38 38 39 39 40 41 36 40 38 31 32 33 34 34 35 35 34 34 34 34 33 33 33 33 33 33 33 34 34 35 36 37 38 39 40 41 42 43
37 37 36 35 36 36 37 37 39 40 41 41 38 38 37 32 31 32 33 34 34 34 33 32 33 33 33 32 33 33 33 34 34 35 35 36 37 38 39 40 41 43 44 44
36 36 35 34 34 35 36 37 39 41 41 40 39 38 33 31 30 30 31 32 32 32 32 32 32 32 32 32 32 33 33 34 35 36 37 37 38 39 41 42 43 44 45 45
35 35 35 35 34 36 37 37 37 40 42 41 39 37 32 29 29 30 30 30 30 30 30 31 31 31 32 32 32 33 34 34 36 37 38 38 40 41 43 44 45 46 46 47
35 35 34 35 36 37 37 37 37 39 41 41 38 33 30 28 29 29 28 29 29 29 30 30 30 30 31 32 33 34 35 36 36 37 39 40 42 43 44 45 46 47 47 48
36 36 36 35 36 35 36 37 38 39 40 40 38 33 29 27 26 27 27 28 28 28 29 30 30 31 32 33 34 34 35 36 37 39 40 42 43 44 45 46 47 47 48 49
34 36 36 35 35 35 37 36 37 38 38 38 38 34 29 28 27 27 28 28 29 29 30 30 31 31 32 33 34 35 36 38 39 40 42 43 44 45 46 47 48 49 50 51
35 37 36 35 35 34 34 34 34 36 37 38 38 33 28 27 28 28 29 29 30 30 30 30 31 31 33 34 35 36 37 39 41 42 43 44 45 46 47 48 49 50 51 52
37 37 35 33 31 31 31 32 33 35 36 36 34 31 27 27 29 30 31 31 31 31 32 32 32 33 34 35 36 37 39 41 41 42 43 44 46 47 48 49 50 52 53 54
37 37 34 32 31 31 32 31 32 33 33 34 31 30 26 27 30 32 32 32 32 32 32 33 33 34 35 37 38 39 40 41 42 43 45 46 47 48 49 51 52 53 54 54
36 35 33 32 31 31 32 32 32 32 32 32 31 28 25 29 32 32 32 32 32 33 33 34 34 35 36 37 38 39 40 41 43 45 46 47 48 49 50 51 52 53 54 55
35 34 33 32 31 33 33 29 30 30 30 30 30 27 27 31 32 32 33 33 34 35 35 35 35 36 37 38 39 40 41 43 44 46 47 48 49 50 51 52 53 54 55 55
37 35 34 33 33 35 29 27 28 29 29 29 29 28 30 32 32 32 33 34 34 34 34 35 36 37 38 39 40 41 43 44 45 46 47 49 50 51 52 53 54 54 55 56
37 36 35 35 35 34 29 26 25 28 27 27 29 29 30 31 31 31 32 33 33 34 34 35 36 38 39 40 41 42 43 45 46 47 48 50 51 52 52 53 54 54 55 56
38 37 36 36 35 33 27 25 26 29 28 25 29 29 30 31 31 31 31 32 33 34 36 37 38 39 39 40 42 43 44 45 47 48 49 50 51 52 52 53 54 55 57 58
38 37 36 35 34 32 28 26 27 28 25 26 28 29 30 30 31 31 31 32 34 35 36 37 38 39 40 42 43 44 45 46 47 48 49 50 51 52 53 54 55 57 59 60
37 37 36 35 35 31 28 28 28 27 28 29 29 29 30 30 31 32 33 34 35 36 37 38 39 40 41 43 44 45 46 47 47 48 49 50 51 53 54 55 57 59 61 63
37 36 35 35 33 30 30 31 30 30 30 30 31 31 31 32 33 33 34 35 36 37 38 39 40 42 43 44 45 46 46 47 47 48 50 51 52 54 55 57 59 61 63 65
37 36 36 36 34 33 32 32 32 32 32 31 31 32 32 33 34 35 35 36 37 38 39 40 41 42 43 44 45 46 46 47 48 49 50 52 53 55 57 59 61 63 65 68
37 37 36 36 34 34 34 33 33 34 34 33 33 34 34 34 35 36 36 37 38 39 39 40 41 43 43 44 44 45 46 47 48 50 52 53 55 57 59 61 63 66 68 71
38 37 36 36 35 36 36 35 35 35 35 35 35 35 35 35 36 36 37 38 38 39 40 41 42 43 43 44 45 46 47 48 49 51 53 55 57 59 61 63 65 68 70 73

GEFSCGP_500_meanwind_108.txt.gz
Wind_Speed
43 43 41 38 38 39 39 39 38 39 41 41 40 38 36 37 37 35 35 35 35 35 35 33 32 32 32 32 32 32 32 32 32 32 32 32 32 32 32 32 32 32 32 32
45 43 38 39 40 41 40 40 39 39 41 42 41 39 36 37 37 37 36 36 37 36 36 35 34 33 33 33 33 32 32 32 33 33 33 33 33 33 33 33 33 33 33 34
44 40 39 40 41 41 40 39 38 39 41 43 42 39 36 36 38 39 39 38 38 37 37 36 35 34 34 34 34 33 33 33 33 33 33 34 34 34 34 34 34 34 34 35
45 44 42 42 41 40 40 38 38 39 41 42 42 41 34 35 36 38 39 39 38 38 38 37 36 35 35 34 34 34 34 33 33 34 34 34 34 34 34 34 34 35 35 36
46 44 42 42 40 39 39 39 39 40 40 41 40 42 35 33 34 36 38 38 38 38 38 37 36 36 36 35 34 34 33 33 34 34 34 34 34 34 34 34 35 35 36 37
47 45 44 42 41 41 41 40 40 40 40 41 38 40 38 33 33 34 36 37 37 37 36 36 36 36 35 34 34 34 34 34 34 33 33 33 34 34 34 35 35 36 37 38
49 46 44 42 41 40 40 39 40 41 41 42 38 38 37 34 33 33 34 35 36 36 36 35 35 35 35 35 34 35 34 34 33 33 33 34 34 34 35 35 36 37 38 39
47 45 42 40 39 38 38 39 40 41 42 41 39 37 33 32 31 31 32 34 35 35 35 35 35 35 34 34 34 34 34 33 33 33 33 34 34 34 35 36 37 39 39 40
45 44 41 39 38 39 40 39 38 40 42 41 40 36 31 30 31 31 31 31 32 33 34 34 33 33 33 33 33 33 33 33 33 33 33 33 34 34 36 37 38 39 40 42
43 44 41 39 40 40 40 39 39 40 41 41 39 35 30 28 30 31 31 31 31 32 32 32 32 32 33 33 32 32 32 32 32 32 32 33 34 35 37 38 39 40 42 43
44 44 42 41 41 39 39 39 39 40 41 40 39 35 29 28 29 30 30 29 29 30 31 31 31 31 31 31 30 30 31 31 31 32 33 34 35 37 38 39 40 42 43 44
43 44 43 42 40 40 40 39 39 39 39 38 38 36 30 28 29 30 30 30 29 29 30 30 30 30 30 30 30 30 30 31 32 33 34 36 37 38 39 40 42 43 44 44
44 46 45 44 43 41 40 38 37 37 38 39 37 34 29 28 28 30 30 30 30 29 29 30 30 29 29 29 30 30 31 32 33 34 36 37 38 39 40 42 42 43 44 45
45 46 45 43 40 38 37 37 36 37 38 37 34 31 29 28 29 30 30 30 30 29 29 30 30 30 30 30 30 31 33 34 35 36 37 37 38 39 40 41 42 43 45 46
45 45 42 40 40 38 37 36 37 37 36 35 32 31 28 29 30 30 30 30 29 29 29 29 30 30 30 31 32 33 34 35 36 37 37 37 39 39 41 42 43 44 45 47
43 42 40 39 39 38 38 37 36 35 34 33 33 30 27 30 31 30 29 28 28 28 28 29 29 30 30 31 32 33 34 35 36 36 37 38 39 40 41 42 44 45 47 48
41 40 39 39 38 39 40 35 34 33 32 32 31 27 28 30 30 29 29 28 27 27 28 29 29 30 31 32 32 33 34 35 35 36 37 38 40 41 42 44 45 46 48 49
42 41 40 39 39 41 35 32 32 32 31 31 29 28 28 28 29 29 28 27 27 27 28 29 30 31 32 32 32 33 34 35 36 37 38 39 40 42 43 45 46 48 49 50
44 42 42 41 40 39 34 30 30 31 30 30 29 28 28 29 28 27 27 27 27 28 28 29 30 31 32 32 33 34 35 35 37 37 38 39 41 43 44 46 47 48 49 49
44 43 43 41 40 38 33 31 31 32 30 28 29 28 28 29 28 26 27 27 28 28 28 29 30 30 31 32 33 34 35 36 37 38 39 41 42 44 45 46 47 48 49 50
43 43 42 41 40 38 34 32 32 32 28 28 29 28 28 27 26 27 28 28 28 28 28 29 29 30 31 32 34 35 36 37 38 39 40 42 43 44 45 46 47 48 50 51
41 41 41 40 40 36 33 32 31 29 29 29 28 28 27 27 27 27 27 28 28 28 29 29 30 31 32 33 35 35 36 37 39 40 41 42 44 44 45 46 47 49 51 53
42 40 40 38 35 32 31 30 29 30 29 28 28 27 27 27 27 27 27 28 28 29 29 30 31 32 33 34 35 36 37 38 39 41 42 43 43 44 45 47 48 50 53 55
40 40 39 38 35 33 31 30 30 29 29 28 27 28 28 28 28 28 29 29 29 30 30 31 32 33 34 35 35 36 37 39 40 41 41 42 43 45 46 48 50 52 55 57
39 39 38 37 35 34 33 31 30 30 30 29 29 29 29 29 29 29 30 30 30 31 31 32 33 34 34 35 36 37 38 39 40 40 41 43 44 46 48 49 52 54 57 60
39 38 37 36 34 34 32 31 31 31 30 30 30 30 30 30 30 30 30 31 31 32 32 33 34 34 35 36 37 37 38 39 40 41 43 44 46 47 49 52 54 57 60 62

GEFSCGP_500_meanwind_114.txt.gz
Wind_Speed
49 50 50 46 44 43 43 44 43 42 43 44 43 41 39 40 40 39 39 39 38 38 38 38 36 36 36 36 36 36 36 36 36 35 35 35 35 35 35 35 35 35 35 35
51 51 46 44 44 44 44 44 43 43 44 45 45 43 41 41 41 40 40 40 39 39 39 39 37 37 37 37 37 37 37 37 37 36 36 36 36 36 35 35 36 35 35 35
52 46 44 45 46 45 45 44 43 43 44 45 46 44 42 41 41 41 41 41 41 40 40 39 38 38 38 38 38 38 38 38 38 38 37 37 37 37 36 36 36 36 36 36
52 49 47 47 47 46 45 42 42 43 44 45 46 47 41 40 40 41 41 41 40 40 40 40 39 39 39 39 39 39 38 38 38 38 37 37 37 37 37 37 36 36 36 36
53 50 49 48 45 44 43 42 43 43 44 46 45 48 43 39 39 40 40 39 39 39 40 40 39 39 39 39 39 38 38 38 38 38 38 38 37 37 37 37 37 36 36 36
52 50 49 47 45 44 43 43 44 44 45 48 43 45 45 39 38 38 38 38 38 39 39 40 39 39 38 38 38 38 38 38 38 38 38 38 37 37 37 37 37 36 36 37
53 52 50 49 48 46 45 44 44 45 47 47 42 45 46 40 37 37 37 38 38 38 38 38 38 38 37 37 37 37 37 37 37 37 37 37 37 37 37 37 37 37 37 37
53 53 51 50 50 48 46 45 45 45 45 45 44 45 43 39 37 36 36 36 37 37 37 37 37 37 36 36 37 37 36 36 37 37 37 37 37 36 36 37 37 37 37 38
53 51 49 49 48 47 47 47 43 44 45 45 46 45 41 38 35 34 34 35 35 36 36 36 36 36 36 36 36 36 36 36 36 36 37 36 36 36 36 36 37 37 37 37
50 51 49 47 48 49 47 45 45 46 46 46 45 43 42 38 36 34 34 34 34 34 35 35 35 35 35 35 35 35 35 35 35 36 36 35 36 36 36 36 36 37 37 38
49 50 50 50 49 48 47 47 48 47 48 46 44 42 40 38 35 33 33 33 33 33 33 33 34 34 34 34 34 34 34 34 34 34 34 34 34 34 35 36 36 37 38 39
48 50 50 49 46 45 46 47 47 47 46 45 44 43 39 38 35 33 32 32 32 32 32 32 32 32 32 32 32 32 32 33 33 33 33 33 34 34 35 35 37 38 39 40
48 52 51 51 50 48 48 47 48 46 45 45 45 43 38 38 36 33 32 32 32 32 32 31 31 31 31 31 31 31 32 32 32 33 33 33 33 34 35 36 37 38 39 40
48 52 53 52 48 45 47 46 45 46 47 45 43 39 38 37 35 33 32 32 30 30 30 30 30 30 31 31 31 31 31 32 32 33 33 33 34 35 36 37 37 39 40 41
47 49 49 48 47 46 45 44 45 45 44 43 39 38 36 35 35 34 33 31 30 30 30 29 29 30 30 30 31 31 31 32 32 33 33 34 35 36 36 36 38 39 41 42
46 47 47 48 46 46 48 46 45 44 43 42 40 38 35 36 36 35 33 32 30 29 29 29 28 28 29 29 30 30 31 31 32 32 32 33 34 35 36 37 38 40 42 43
46 46 48 47 46 47 49 45 43 42 41 41 40 35 35 36 35 34 33 32 30 29 28 28 27 27 28 29 29 30 30 30 31 31 32 33 34 35 37 38 40 41 42 43
46 45 45 46 46 50 44 41 42 41 39 38 37 36 36 36 35 34 33 32 30 29 28 27 27 27 28 28 29 29 30 30 31 32 33 34 35 36 38 39 41 42 43 44
46 46 46 48 48 46 43 40 39 39 38 36 36 36 36 35 35 33 32 31 30 29 28 27 27 28 28 28 29 29 30 31 31 32 33 34 36 37 39 40 41 42 43 45
48 47 46 47 46 45 40 38 36 37 37 34 34 34 34 34 34 30 30 30 29 28 28 28 27 27 28 28 29 29 30 31 31 32 33 35 36 38 39 40 41 42 44 45
48 47 46 44 44 42 39 37 36 37 32 29 31 32 32 32 30 29 29 29 28 28 28 28 27 27 27 28 28 29 30 30 31 33 34 35 37 38 39 40 41 43 44 46
47 46 45 44 43 41 37 35 34 32 31 30 29 30 30 30 29 29 28 27 27 27 27 27 27 27 28 28 29 29 30 31 33 34 35 36 37 38 40 41 42 43 45 46
45 42 41 41 38 36 34 33 33 33 31 30 29 29 29 29 29 28 28 27 27 27 27 27 27 28 28 29 30 30 31 33 33 34 35 36 37 38 39 40 42 44 45 47
42 42 41 39 38 36 34 32 32 31 30 29 29 29 28 28 28 28 28 27 27 27 27 28 28 29 30 30 30 31 32 33 34 34 35 36 38 39 40 41 43 44 46 47
40 41 40 38 35 35 34 32 31 30 29 29 28 28 28 28 28 28 28 28 27 27 28 28 29 29 30 30 31 32 33 34 34 35 36 38 39 40 41 42 44 45 47 49
40 39 39 37 33 33 33 33 32 31 30 29 29 28 28 28 28 28 28 28 28 28 29 29 30 30 31 32 33 33 33 34 35 37 38 39 40 41 42 43 45 46 48 50

GEFSCGP_500_meanwind_120.txt.gz
Wind_Speed
55 57 56 52 49 48 48 48 47 46 45 47 47 46 44 45 44 42 41 40 38 36 34 34 34 33 33 32 32 32 33 33 33 33 33 33 33 34 34 34 34 34 34 35
56 57 51 49 50 50 50 49 48 47 47 48 49 48 46 46 45 43 42 41 39 38 37 36 35 35 35 34 34 34 34 34 34 34 34 34 35 34 34 34 35 36 36 36
55 50 49 51 52 52 51 50 47 47 47 49 49 49 47 45 45 44 43 42 40 39 38 38 37 37 36 36 36 35 35 35 35 35 35 35 35 35 34 35 36 36 36 36
54 52 52 52 52 51 50 47 46 47 48 49 50 51 47 45 45 44 43 42 40 40 39 39 38 37 37 36 36 36 36 36 36 35 35 35 35 35 36 36 36 37 37 37
55 53 53 54 51 49 47 45 46 46 48 49 49 52 48 45 44 42 41 41 41 40 40 39 38 37 37 37 37 36 36 36 36 36 36 36 36 36 36 37 37 37 37 38
54 53 52 50 48 48 47 46 46 47 48 52 49 51 50 43 41 41 40 41 40 40 40 40 39 38 38 37 36 36 36 36 36 36 36 36 36 36 36 37 37 37 37 38
55 55 53 51 51 51 51 50 49 49 51 52 47 50 50 40 38 38 38 39 39 39 39 38 38 37 36 36 36 36 36 36 36 36 36 36 36 36 37 37 37 37 37 37
54 55 54 53 52 52 52 52 52 51 51 49 47 49 46 40 37 37 37 37 38 38 37 37 36 36 36 36 36 36 36 35 35 35 35 36 36 36 37 37 37 36 37 38
53 53 52 51 49 50 51 52 50 50 51 50 50 47 44 40 37 36 36 35 36 36 36 36 36 35 35 36 35 35 35 34 34 35 35 35 35 36 36 37 37 37 37 38
52 52 52 50 50 51 50 49 51 52 52 52 51 48 43 38 36 34 33 33 34 35 35 35 35 35 35 34 34 34 34 34 34 35 35 35 35 35 36 37 36 36 37 37
52 52 52 53 54 51 51 52 53 52 52 51 50 47 39 36 34 33 32 31 32 32 33 33 33 33 33 33 33 34 34 34 34 34 34 34 34 34 35 35 35 36 36 36
53 51 52 52 51 49 50 51 51 52 51 49 48 45 39 36 34 33 32 31 30 31 31 31 31 32 32 32 32 32 32 32 32 33 32 32 33 34 34 35 35 35 35 36
52 53 53 52 53 53 52 51 51 50 50 50 47 43 39 37 35 34 33 31 30 29 30 30 30 31 31 31 31 31 31 31 31 32 32 32 33 33 33 34 34 34 35 35
51 52 53 53 52 52 51 52 52 53 52 50 45 40 37 36 35 34 33 31 29 29 29 29 29 30 30 29 30 30 30 31 31 31 31 32 32 32 32 32 33 33 34 35
50 51 50 50 49 51 50 49 50 50 48 47 42 40 35 34 35 34 33 31 30 29 28 28 28 28 28 28 29 29 30 30 30 30 30 31 31 31 31 32 32 33 34 35
48 48 49 50 49 50 52 49 46 46 45 44 42 39 34 34 36 35 34 32 30 28 28 28 28 27 28 28 29 29 30 30 30 30 30 30 31 31 31 31 32 33 34 35
46 46 47 48 49 52 53 49 47 45 44 43 42 35 34 36 36 35 34 31 29 28 28 28 27 27 28 28 28 29 29 29 29 29 30 30 30 30 31 32 33 33 34 36
45 46 45 48 50 53 49 46 46 44 43 41 39 36 36 35 34 35 34 32 30 29 28 28 28 28 28 29 29 29 29 29 28 29 29 29 30 31 32 32 32 33 35 36
45 46 46 46 48 49 47 44 44 43 43 40 38 36 36 35 37 36 33 32 30 29 29 28 28 28 29 29 29 29 29 28 28 28 29 30 30 31 32 32 33 34 35 36
43 46 47 46 46 46 41 39 40 42 43 38 38 36 37 38 38 32 31 31 31 30 29 29 28 28 28 28 29 29 29 29 28 29 29 30 30 31 32 33 34 35 35 36
41 44 47 45 45 42 38 39 41 42 34 32 35 35 36 37 34 30 32 32 31 30 29 29 29 28 28 28 29 29 29 28 28 29 29 30 30 31 32 33 34 34 35 36
38 40 42 43 43 41 37 38 39 34 31 32 33 34 35 34 33 33 33 33 32 31 30 29 29 28 29 28 28 28 28 28 29 29 29 30 31 32 33 33 34 34 36 37
38 38 40 41 41 38 35 34 33 33 33 33 33 33 33 33 33 33 33 32 31 30 29 29 29 29 29 28 27 27 28 28 28 29 30 31 32 33 33 34 34 36 37 38
38 39 39 39 39 36 32 31 32 33 33 33 32 32 32 31 30 30 30 30 30 29 28 28 29 29 28 27 27 27 27 28 29 30 31 32 32 33 33 34 35 37 38 39
37 38 38 39 37 36 33 30 30 32 32 32 32 31 30 30 28 28 28 29 29 28 27 27 27 27 27 27 27 27 28 28 29 30 31 32 32 33 34 35 36 37 39 40
36 35 36 35 33 34 32 31 32 32 31 30 30 30 30 29 28 27 27 27 28 28 27 27 27 27 27 27 27 27 27 28 29 30 31 32 33 34 34 36 37 38 40 41

GEFSCGP_500_meanwind_126.txt.gz
Wind_Speed
61 63 63 59 58 57 56 57 56 54 52 53 54 52 49 48 49 48 46 44 42 39 37 37 36 35 34 33 32 31 31 31 30 30 30 30 30 30 31 31 32 31 31 32
62 64 59 56 57 58 58 58 57 55 55 55 55 54 51 50 50 49 47 46 43 41 40 39 38 37 36 35 34 33 33 33 32 32 32 32 32 32 32 33 32 33 33 34
62 59 56 58 58 58 59 59 56 55 55 56 56 56 54 51 51 50 49 47 45 43 41 41 40 38 37 36 35 35 35 34 34 34 34 34 33 33 33 34 34 35 35 35
60 59 59 59 58 57 58 55 55 55 55 56 57 59 55 52 52 51 49 47 46 44 43 42 41 40 38 37 37 36 36 36 36 36 36 35 34 34 35 36 36 36 36 36
59 59 60 60 57 55 54 53 54 54 56 57 58 60 57 54 53 50 48 47 46 45 43 43 42 41 40 39 39 38 37 37 37 36 36 36 35 35 36 37 37 37 37 37
57 58 59 57 54 55 54 53 54 55 55 60 58 60 61 55 51 48 46 45 45 44 44 43 42 42 41 40 40 39 38 37 37 37 37 36 36 36 37 37 37 38 38 37
55 58 59 59 57 56 56 55 54 56 58 61 57 61 62 52 49 46 45 45 44 44 44 43 43 42 41 40 40 39 39 38 38 38 38 37 37 37 37 37 38 38 38 38
53 56 58 60 59 57 56 57 57 57 59 58 57 60 58 50 47 46 45 44 44 44 43 43 43 42 42 41 40 39 39 38 38 38 38 38 37 37 37 38 38 38 38 38
50 52 56 58 58 58 58 57 55 55 56 56 58 56 54 50 45 43 43 43 43 42 42 42 42 42 41 41 40 39 39 38 39 38 38 37 37 37 37 38 38 38 38 38
49 50 52 55 57 58 58 57 56 56 55 55 56 55 51 46 42 40 40 41 41 41 41 41 42 41 41 41 40 40 40 39 39 38 38 38 37 37 37 37 38 38 38 38
51 49 49 53 57 58 58 58 58 56 55 53 53 52 46 43 40 39 38 39 40 40 41 41 40 40 40 40 40 41 40 39 39 38 38 38 37 37 37 37 37 37 37 37
51 52 51 50 51 54 56 56 57 57 55 53 52 49 43 41 40 39 38 38 38 39 39 39 39 39 39 39 39 39 39 39 38 38 38 37 37 37 37 37 37 37 37 36
50 52 54 52 51 53 55 55 55 55 55 53 51 47 42 40 39 38 38 37 37 37 37 37 37 37 38 38 38 37 37 37 37 37 37 36 36 36 36 36 36 36 36 36
49 52 54 55 53 52 54 54 55 55 55 54 51 45 42 39 37 36 36 36 36 36 36 36 36 36 37 36 36 36 36 36 36 36 36 36 35 35 35 35 35 35 35 36
47 51 52 53 52 52 52 53 54 55 53 51 47 45 42 39 37 36 35 35 35 36 36 36 36 36 36 36 36 35 35 35 35 35 35 35 35 35 34 34 34 35 35 35
43 47 51 52 50 50 53 52 51 52 51 50 48 45 41 40 41 39 38 37 36 35 35 35 36 36 35 35 35 35 35 35 34 34 34 34 34 34 34 34 34 34 34 34
40 43 48 51 51 52 54 51 50 49 48 48 48 43 42 41 40 39 39 38 37 36 35 35 35 34 35 35 35 35 34 34 34 33 33 33 33 33 33 32 32 33 33 34
38 40 43 48 50 54 52 49 49 48 47 47 45 44 44 42 40 41 40 39 37 36 36 36 35 35 35 35 35 35 34 34 33 32 32 32 32 32 32 32 32 33 33 33
36 38 41 45 49 51 50 48 46 47 46 45 45 44 44 44 44 43 41 40 38 37 37 37 37 37 36 35 34 34 34 33 33 32 32 31 32 32 32 32 32 33 33 33
36 38 39 41 44 47 45 44 44 45 45 43 43 43 43 45 46 41 40 40 38 38 38 38 38 37 36 35 34 33 33 33 32 31 31 31 31 31 31 31 31 32 32 33
35 37 40 42 42 43 41 42 43 45 42 40 43 43 43 44 42 39 40 40 39 39 38 38 37 36 35 34 33 33 32 32 32 32 31 30 30 30 31 31 31 32 32 32
35 36 40 42 43 40 38 39 41 39 39 40 41 43 43 42 42 41 41 41 40 39 38 38 36 35 34 33 33 32 32 32 32 32 31 30 30 31 31 31 31 32 32 32
36 35 38 42 40 37 38 37 38 38 38 39 40 41 42 42 42 42 41 40 39 38 38 37 36 35 34 34 32 32 31 31 31 31 31 31 30 30 30 31 31 31 32 33
34 34 37 40 39 38 37 36 38 38 37 37 37 38 39 40 41 41 41 39 39 38 37 37 36 35 34 33 32 31 31 31 30 30 30 30 30 30 30 30 31 31 32 33
34 35 38 40 39 39 39 37 37 36 37 37 37 37 37 38 39 40 40 38 37 37 37 36 35 34 33 33 32 31 31 30 30 30 30 29 29 30 30 30 31 32 32 33
33 34 37 37 37 38 38 37 36 35 34 35 36 35 35 36 37 39 38 37 37 36 35 34 34 33 32 31 31 31 30 30 30 30 29 29 29 29 30 31 31 32 33 33

GEFSCGP_500_meanwind_132.txt.gz
Wind_Speed
55 59 62 60 59 58 58 59 60 59 58 59 59 58 56 55 55 54 53 52 51 48 46 45 43 41 39 38 36 34 33 32 31 30 29 29 28 28 28 27 27 27 28 28
53 58 57 57 58 60 59 58 59 59 59 60 61 61 59 58 57 56 55 53 52 51 49 48 46 44 41 39 38 36 35 34 33 32 31 31 31 30 29 29 29 29 29 29
52 51 54 58 60 61 62 59 57 58 58 60 62 64 63 60 58 58 57 55 54 53 51 49 48 45 43 42 40 38 37 36 35 34 34 33 32 31 31 31 31 31 31 31
48 49 53 58 61 62 63 59 56 57 58 60 62 66 65 62 60 58 57 56 55 53 52 51 49 47 45 43 41 40 39 38 37 37 36 35 33 32 32 33 33 33 33 32
45 46 51 56 59 60 60 58 58 57 57 58 61 66 67 64 62 59 57 56 55 54 53 51 51 49 47 45 43 41 40 40 39 38 37 36 35 34 34 35 35 34 34 34
42 45 50 53 54 57 57 57 57 58 58 61 61 64 68 65 62 58 56 55 55 54 53 52 51 50 49 47 45 43 42 41 40 39 39 37 36 35 36 36 36 35 35 35
41 44 47 50 54 56 57 57 57 58 60 62 60 63 68 64 61 58 56 55 54 54 54 52 51 50 49 48 46 44 43 42 41 40 39 38 37 37 37 37 37 36 36 35
40 42 44 47 51 54 57 57 58 57 58 59 59 62 64 60 58 57 55 54 54 54 53 52 51 50 49 48 47 46 45 43 42 41 40 39 38 38 37 37 37 37 37 37
37 39 41 44 47 52 55 57 55 53 53 54 57 59 61 58 56 56 56 54 54 53 53 52 51 50 49 48 47 46 45 43 42 41 40 40 39 39 38 37 37 37 37 37
35 36 39 41 45 50 54 54 54 55 52 53 55 56 58 55 53 52 53 54 53 52 52 52 51 50 49 48 47 46 45 44 43 42 41 40 40 39 38 38 38 38 38 37
35 35 35 39 42 45 51 55 55 55 54 51 50 51 52 50 49 49 50 51 52 51 51 50 50 49 49 48 47 46 45 44 43 42 41 41 40 39 39 39 38 38 38 38
35 36 35 37 38 42 47 52 56 56 55 52 48 46 47 45 44 45 47 49 50 50 50 49 49 48 48 48 47 46 45 44 43 42 41 41 40 39 39 38 38 38 38 38
33 36 35 35 38 41 44 48 52 54 54 53 51 45 43 42 41 42 44 46 47 47 48 48 48 47 47 47 46 45 44 44 43 42 41 40 39 39 39 39 38 38 38 37
34 36 37 37 37 39 43 45 48 52 56 55 52 45 42 41 40 40 40 42 42 44 45 45 45 46 46 45 45 44 43 42 42 41 40 39 39 38 38 38 38 37 37 36
36 37 38 38 37 38 40 43 47 50 51 52 50 46 44 41 41 39 39 39 40 40 42 42 42 43 44 44 43 42 41 41 41 40 39 39 38 38 38 38 37 36 36 36
35 36 39 39 39 39 39 41 43 46 47 49 50 47 44 43 42 40 39 39 38 39 39 40 40 40 41 42 41 41 40 40 39 38 38 38 38 37 37 37 36 35 35 35
33 34 37 39 38 39 40 40 42 44 46 48 50 47 45 44 42 41 40 39 38 39 40 40 39 39 39 40 40 40 40 39 39 38 37 36 35 35 35 34 34 34 34 34
32 33 36 38 38 39 38 39 39 40 41 45 48 48 47 45 43 42 41 41 40 39 41 41 40 40 39 39 39 39 38 38 37 36 36 35 34 33 33 33 34 34 34 34
32 33 35 37 39 39 37 36 37 39 39 41 45 47 47 47 48 45 42 41 41 41 41 41 41 41 40 39 38 37 37 37 36 35 35 34 34 33 33 33 33 33 33 33
30 33 34 36 37 38 36 35 37 39 40 41 43 45 46 48 48 46 44 44 43 41 41 40 40 40 39 38 37 37 36 36 35 34 33 33 33 33 33 32 32 32 32 32
27 32 35 35 36 36 35 34 38 42 40 40 43 44 46 47 45 44 45 45 45 44 42 40 39 39 38 38 37 36 35 35 34 34 33 33 32 32 32 32 32 32 32 32
27 29 33 35 35 34 33 34 37 38 40 40 42 43 45 45 45 44 45 45 46 45 43 42 40 39 38 38 37 36 35 34 34 33 33 33 32 32 32 32 32 32 32 32
28 29 31 34 34 33 34 35 35 38 40 41 41 42 44 45 44 44 44 44 45 45 44 43 41 40 39 38 37 36 35 35 34 34 33 32 32 32 32 32 31 31 31 31
30 32 33 35 34 34 33 35 37 39 41 42 41 41 43 43 44 44 44 44 44 44 44 43 42 40 39 38 37 36 36 35 34 34 33 33 32 31 31 31 30 30 30 30
30 33 34 35 33 35 33 34 36 39 41 42 42 40 41 42 42 42 43 43 43 43 43 42 41 40 39 38 37 36 36 35 34 33 33 32 31 31 30 30 30 30 30 30
29 32 35 34 33 35 35 35 36 37 39 41 42 41 41 41 40 41 41 41 42 42 42 41 40 40 39 38 37 36 35 34 33 33 32 31 31 30 30 29 29 29 29 29

GEFSCGP_500_meanwind_138.txt.gz
Wind_Speed
41 45 47 47 49 50 51 53 54 54 53 55 56 57 57 56 57 57 56 55 54 52 51 50 49 47 46 45 43 40 38 37 35 33 31 30 29 28 27 26 26 25 25 25
41 44 44 47 48 50 52 53 54 54 53 54 57 59 59 58 58 58 57 56 55 54 53 52 50 50 48 47 44 42 40 38 36 34 33 32 31 29 28 27 26 26 26 26
40 39 41 45 48 50 52 53 52 52 54 56 57 60 60 60 59 59 59 58 56 55 54 53 52 51 50 48 46 44 42 40 38 36 35 34 32 31 29 28 28 28 28 28
38 38 40 43 46 48 50 51 52 52 53 56 57 61 61 60 61 61 60 60 58 56 55 55 53 52 51 50 48 46 44 42 40 39 37 35 34 32 31 30 30 30 30 30
36 37 40 42 42 45 47 49 51 52 53 55 57 61 63 60 62 61 60 60 59 58 57 56 54 53 52 51 50 48 46 45 42 41 39 37 35 34 33 32 32 31 31 31
33 35 38 39 40 43 45 47 50 51 53 57 56 59 64 61 60 60 60 60 60 59 58 57 56 55 54 52 51 51 49 47 45 43 41 39 37 36 35 34 34 33 33 32
33 34 36 37 38 41 44 47 48 50 53 57 54 59 63 57 56 58 59 59 59 59 59 59 57 56 55 54 52 52 51 49 47 45 43 41 39 38 37 36 35 35 34 34
33 33 34 36 36 37 40 45 48 49 50 53 53 58 59 54 53 54 57 58 59 60 60 60 58 57 56 55 53 52 51 50 48 46 44 42 41 40 39 38 37 36 35 35
32 31 31 32 35 37 39 43 44 45 47 49 53 54 54 53 53 52 54 56 57 58 58 58 58 57 56 56 54 52 51 50 49 48 46 44 43 42 40 39 38 38 37 36
30 29 28 29 32 36 39 40 41 43 45 47 49 50 52 52 51 51 50 51 53 57 58 58 57 57 56 55 54 53 52 51 50 49 48 46 44 42 42 41 40 39 38 38
29 30 28 27 28 31 38 42 42 43 44 45 47 48 46 47 48 49 49 49 50 53 55 56 56 56 56 54 54 54 53 51 50 49 48 46 45 44 43 42 41 40 39 38
28 30 29 29 26 29 34 39 42 45 46 45 44 43 40 42 44 46 45 46 47 49 52 54 54 55 55 54 53 53 53 52 50 49 48 47 45 45 43 42 41 40 39 38
27 29 29 28 28 29 32 36 40 43 45 44 43 41 40 38 40 43 44 44 45 47 50 51 52 53 54 53 52 52 52 52 50 49 48 48 46 45 43 42 40 40 39 38
28 29 29 28 28 30 34 36 39 42 44 44 42 39 38 38 38 40 42 43 43 44 46 49 50 51 52 53 52 51 51 50 50 48 47 46 45 44 42 41 40 39 39 38
27 28 29 30 30 33 35 36 38 41 43 45 41 39 37 36 37 38 41 41 41 42 43 45 48 49 51 52 52 50 49 49 48 47 46 44 44 43 42 41 40 39 39 38
26 28 29 30 30 33 36 37 38 39 41 43 43 42 38 37 36 36 39 41 41 41 41 43 45 47 49 50 50 49 48 47 47 46 45 44 43 42 41 40 39 38 38 37
27 27 29 30 30 33 35 35 36 37 38 42 43 41 40 39 39 37 36 40 42 42 42 43 44 44 46 47 48 49 48 47 46 45 44 44 43 41 40 39 38 37 37 36
27 25 27 29 30 33 29 32 34 36 38 41 42 41 40 39 39 39 38 38 40 41 41 42 43 44 45 45 46 47 47 46 44 44 43 43 42 40 39 38 37 37 36 35
26 26 27 28 31 31 28 28 31 34 37 40 41 41 42 40 40 39 39 40 40 40 41 42 42 43 43 43 44 44 44 43 42 41 40 40 40 38 38 37 36 36 35 35
24 26 27 28 29 31 27 26 27 32 35 37 40 42 41 41 40 39 39 39 39 41 42 42 42 43 43 43 42 42 41 40 39 39 38 38 37 37 36 36 35 34 34 33
23 25 26 28 29 29 27 26 28 32 33 34 39 41 42 41 39 38 39 39 40 40 42 42 42 42 42 41 41 40 40 39 39 38 37 37 36 35 34 34 34 33 33 33
23 24 26 27 29 27 25 28 30 32 34 33 36 40 43 43 41 39 40 40 41 40 41 41 42 42 41 41 41 40 39 38 38 37 36 35 35 34 33 33 32 32 32 32
25 25 27 29 29 27 26 29 30 33 35 35 36 39 42 43 42 41 40 40 40 40 40 41 41 41 41 40 40 40 39 38 37 36 35 34 34 33 33 32 31 31 31 30
26 27 28 29 28 27 27 29 31 32 35 35 36 37 39 41 43 42 42 42 41 40 40 40 40 41 40 39 39 39 39 38 36 35 34 33 33 32 32 31 31 30 30 30
28 29 30 30 28 28 29 30 31 33 34 35 36 36 37 38 40 42 43 44 43 42 41 40 40 40 39 39 39 38 38 37 36 34 33 32 31 31 31 30 30 30 29 29
26 28 29 29 28 30 30 32 33 32 33 34 35 36 36 36 37 39 41 42 43 42 41 41 41 41 40 40 39 37 37 36 35 34 33 32 31 30 30 30 29 29 29 29

GEFSCGP_500_meanwind_144.txt.gz
Wind_Speed
32 34 34 34 37 38 41 44 45 45 47 51 54 55 55 55 55 57 58 58 57 56 55 53 52 51 50 48 46 44 42 41 40 39 37 36 35 34 32 31 31 29 28 27
32 32 32 35 37 38 40 43 45 45 46 50 54 56 55 57 56 56 58 59 58 57 57 56 53 52 51 50 48 46 45 42 41 39 38 37 36 35 34 33 31 30 29 28
31 30 32 34 36 39 40 41 43 45 46 49 52 56 55 56 57 57 58 59 59 58 58 57 55 54 52 51 50 48 46 44 42 41 40 39 38 36 34 33 32 31 30 30
30 30 32 34 35 38 39 39 42 44 47 49 50 55 54 54 56 56 57 58 59 58 58 57 56 55 53 52 51 49 47 45 44 43 42 40 38 36 34 34 33 32 31 30
28 29 32 32 32 36 36 38 41 43 45 49 50 54 53 52 55 55 55 56 58 58 58 57 57 55 54 53 52 51 49 47 46 45 43 41 39 37 36 35 34 33 32 31
28 28 30 31 32 34 35 36 40 42 44 49 47 51 54 51 51 52 54 55 56 58 58 57 57 57 55 54 53 52 51 49 48 46 44 43 40 39 38 36 35 34 33 32
26 26 28 30 32 33 35 35 38 41 44 47 44 49 51 48 47 49 51 53 55 56 58 58 58 58 57 55 54 53 52 51 49 47 46 44 42 41 39 38 37 35 34 33
25 24 26 27 29 31 33 35 36 39 42 44 44 47 47 46 46 48 49 52 55 56 58 59 58 58 58 56 54 54 53 51 49 48 46 44 43 42 41 39 38 36 35 34
26 24 23 26 28 30 31 32 33 36 39 41 44 45 44 43 45 46 49 51 54 56 57 58 59 59 59 58 56 54 53 52 50 48 47 46 44 43 41 40 39 38 37 36
25 25 23 25 27 29 30 30 32 34 37 39 42 43 42 41 42 44 47 49 51 54 56 57 58 59 59 58 57 55 54 52 50 49 48 47 45 44 42 41 40 39 38 37
25 26 24 25 25 27 28 30 31 33 36 38 41 42 38 37 39 42 44 47 49 52 55 56 56 56 58 58 57 56 55 53 51 50 48 47 45 44 43 42 40 39 39 38
23 24 23 24 25 27 29 30 31 32 34 37 39 40 36 35 36 38 41 44 47 50 53 54 55 56 57 58 57 56 55 54 52 51 49 48 46 45 44 43 42 40 39 39
22 23 23 23 24 27 29 30 32 33 34 35 37 37 35 35 34 36 39 43 45 47 51 53 55 56 57 57 57 57 55 54 53 52 50 49 48 46 45 44 43 42 41 39
22 24 24 24 23 25 29 30 32 35 36 36 36 34 35 36 36 36 39 42 44 45 48 51 53 55 56 56 56 56 55 54 53 53 51 49 48 47 45 44 43 42 41 41
24 26 26 25 25 26 27 29 31 33 34 35 33 33 34 36 37 37 39 41 42 44 46 49 51 53 53 54 54 54 54 53 53 52 52 49 47 46 45 45 44 43 42 42
25 26 26 25 25 27 27 27 29 31 32 33 33 32 32 36 36 38 39 40 42 44 46 48 50 50 51 51 53 53 53 52 52 51 50 50 49 47 46 45 44 44 43 42
24 26 27 27 25 27 27 24 25 29 31 33 34 31 32 35 36 37 38 39 40 43 45 47 49 50 49 50 52 52 52 51 51 51 50 50 49 47 46 45 44 43 42 42
24 24 26 26 26 27 23 22 23 26 30 33 34 33 34 35 36 36 37 37 38 41 44 47 48 49 48 49 50 51 51 51 51 51 50 49 49 48 46 45 44 43 41 40
23 23 24 24 25 26 23 21 22 25 28 31 32 32 34 35 36 36 37 37 37 39 44 47 48 49 48 49 50 51 51 50 50 50 49 49 48 47 46 45 43 41 40 38
22 23 24 25 26 26 21 21 24 26 28 29 30 31 33 35 36 35 37 37 38 38 41 45 46 48 48 49 49 50 51 50 50 50 49 48 47 46 45 44 41 40 38 37
22 23 24 25 26 25 20 22 25 27 27 28 31 31 32 34 35 35 37 36 36 38 39 43 44 47 48 48 48 48 49 49 49 49 48 47 47 46 44 43 41 39 39 38
24 23 23 24 25 24 21 22 25 27 28 30 31 31 32 34 36 37 37 36 36 38 39 41 44 46 47 47 47 47 47 48 48 48 48 47 46 45 43 42 40 39 39 37
25 25 25 26 25 24 24 24 25 27 29 31 33 33 33 34 36 37 37 36 36 39 40 41 42 44 45 47 47 46 47 48 48 48 47 46 45 44 42 41 40 38 37 36
25 26 28 28 26 26 26 26 26 27 29 31 32 33 34 35 36 38 38 36 36 38 38 40 42 43 43 44 45 46 47 48 48 47 46 45 43 42 41 40 38 37 35 34
25 27 28 28 26 28 27 27 27 28 29 31 32 32 33 35 37 38 38 37 35 37 38 39 40 40 41 42 43 45 46 47 47 46 46 44 43 41 40 38 37 36 35 33
23 25 27 26 25 26 25 27 28 29 30 31 32 32 33 34 36 38 39 38 37 37 38 39 40 39 40 41 42 43 44 45 45 45 44 43 42 41 40 38 36 35 34 33

GEFSCGP_500_meanwind_150.txt.gz
Wind_Speed
38 36 35 35 37 38 38 40 40 38 40 43 45 48 47 48 50 51 54 56 58 58 59 59 58 57 56 55 53 51 50 49 48 47 45 43 42 41 40 38 37 36 34 33
37 34 34 35 36 37 38 39 38 37 39 42 43 45 45 46 48 49 51 54 57 58 59 60 59 58 57 56 54 52 51 51 49 47 46 45 44 43 41 40 39 37 36 34
36 34 35 35 35 36 37 38 37 38 39 40 42 44 44 45 47 49 51 52 55 58 59 60 61 59 58 57 55 54 52 51 50 48 47 46 45 44 42 40 39 38 37 36
35 34 35 35 34 35 35 35 37 38 39 38 39 43 43 43 46 49 51 52 53 56 58 60 61 60 58 57 56 55 54 53 51 49 47 46 45 43 42 41 40 39 38 37
34 34 34 34 33 35 35 34 36 37 38 39 37 42 42 42 43 46 49 51 53 56 58 60 61 61 59 58 57 57 56 54 52 51 48 47 46 44 43 42 41 40 39 37
33 33 34 33 33 33 33 34 35 36 38 40 37 41 41 40 40 42 46 49 52 55 57 59 61 62 61 60 59 58 57 56 54 52 50 48 46 45 43 42 41 40 39 37
33 32 33 32 31 31 32 33 34 35 37 38 35 39 38 35 38 40 42 47 51 54 55 58 60 62 62 61 60 59 57 57 56 54 52 50 47 46 44 42 41 40 39 37
34 31 31 30 30 30 30 31 33 35 36 36 35 37 36 34 35 39 40 45 49 53 55 57 59 60 62 62 61 60 58 58 57 55 53 50 48 47 46 44 42 41 40 38
35 31 29 29 29 28 28 28 30 32 33 35 35 35 34 34 34 37 39 43 47 52 54 56 59 59 60 61 62 61 59 58 57 56 54 52 50 49 47 45 44 42 41 40
35 33 30 29 29 29 29 27 27 30 31 32 33 32 32 32 34 36 38 40 44 49 53 55 57 58 59 60 61 62 61 60 58 56 55 52 51 50 48 46 45 43 42 41
34 34 30 29 28 28 29 28 28 29 30 31 31 29 29 30 31 34 38 40 42 46 52 54 55 56 58 60 61 61 61 60 58 57 55 54 52 51 49 47 45 43 43 41
33 33 31 28 27 27 28 28 29 31 31 31 32 29 27 28 29 31 36 39 42 45 50 54 55 56 58 60 60 61 61 60 59 57 56 54 53 52 51 49 47 44 43 42
32 32 31 28 28 28 28 28 29 32 33 33 33 29 26 27 28 29 34 38 40 43 47 51 54 55 57 59 60 60 60 60 59 58 57 55 54 53 52 50 49 46 44 42
31 31 30 29 28 29 29 28 29 32 34 34 33 29 26 28 29 29 32 36 39 42 44 47 52 54 55 57 59 59 60 60 59 59 58 56 54 53 51 50 49 47 45 44
31 31 30 30 28 29 29 29 30 32 33 34 33 31 27 28 30 30 32 36 38 41 43 45 49 52 54 56 58 59 59 59 59 59 58 57 55 54 52 51 50 49 47 45
32 32 31 31 30 30 30 28 28 29 31 33 33 32 29 30 31 31 32 35 38 41 43 45 48 50 52 54 56 57 58 58 58 58 58 58 56 55 53 52 51 49 48 46
31 31 32 31 30 31 30 26 27 27 28 30 32 31 30 31 31 31 32 36 38 40 41 44 47 49 51 52 55 56 57 57 58 58 58 58 57 56 54 52 51 50 49 47
31 31 31 32 30 30 26 26 27 27 27 28 30 30 30 31 31 32 33 34 37 39 40 43 46 48 49 51 53 55 56 57 56 57 57 57 57 56 54 52 51 51 49 48
30 30 30 30 30 29 24 24 26 27 27 26 27 28 30 31 31 31 32 33 36 38 40 42 45 47 48 50 52 54 55 56 55 55 56 57 56 55 54 52 50 49 48 47
29 29 29 30 31 29 24 23 24 26 27 25 26 26 27 29 30 29 31 33 34 36 38 41 44 46 48 49 50 52 53 54 54 53 54 55 55 55 54 53 51 49 48 47
27 28 29 30 30 28 24 23 23 25 25 26 26 26 26 28 29 29 31 32 33 34 36 40 43 46 47 48 49 50 51 53 53 52 52 54 55 54 54 53 51 50 48 47
28 28 28 28 29 26 25 25 25 25 26 27 26 26 27 27 28 29 31 33 34 34 35 38 43 45 46 47 48 49 50 51 53 52 52 53 54 54 53 51 50 49 48 47
28 28 30 30 28 27 27 28 28 28 27 28 27 27 26 26 28 30 31 34 35 36 35 37 41 43 44 45 47 48 48 49 51 52 51 51 53 53 51 50 49 48 47 46
28 29 30 30 27 27 28 28 29 29 28 28 29 28 27 27 28 29 31 33 35 36 37 37 40 42 43 45 46 47 47 48 49 50 51 50 51 52 51 50 48 47 46 44
27 29 30 30 27 28 27 27 27 27 27 27 28 29 29 28 28 29 31 33 36 37 37 38 39 42 44 45 46 46 47 47 48 49 49 49 49 50 50 49 47 46 45 44
26 30 31 30 29 30 28 29 30 29 28 27 27 28 29 27 27 29 31 33 35 37 37 37 39 42 44 45 46 45 46 47 47 47 48 48 48 49 49 48 47 45 43 42

GEFSCGP_500_meanwind_156.txt.gz
Wind_Speed
40 40 40 41 42 41 41 41 40 38 39 41 41 40 39 39 41 42 44 46 49 50 52 56 57 59 60 62 62 61 60 59 58 58 56 55 53 52 51 50 48 46 45 44
41 40 40 41 41 40 39 39 39 37 37 40 40 38 37 37 39 41 42 44 46 48 51 55 57 58 60 61 62 62 60 60 59 57 56 55 54 53 52 51 49 47 46 45
42 41 41 41 40 39 38 38 38 37 36 37 39 37 35 35 36 38 40 41 43 46 49 53 55 57 59 61 62 62 60 60 59 57 56 55 55 54 53 52 50 48 46 45
42 41 41 41 39 38 37 37 36 36 37 37 36 37 33 33 35 36 37 39 42 45 47 50 53 57 59 60 62 62 61 60 59 57 56 55 55 53 52 51 50 49 48 46
42 41 41 39 38 37 37 37 35 34 36 36 34 37 30 30 32 34 36 37 40 43 46 48 50 55 59 60 62 62 61 61 59 58 56 55 54 53 53 52 51 50 48 47
41 41 40 38 36 35 36 36 35 34 34 34 32 34 31 27 29 31 34 35 38 42 45 47 49 54 59 61 61 63 62 60 60 58 57 55 54 53 53 52 52 50 49 48
42 40 39 37 35 34 33 33 34 34 33 33 31 33 29 26 26 28 31 34 37 40 44 46 49 53 58 61 61 63 61 60 60 58 57 55 54 54 54 53 52 51 49 48
42 40 39 37 35 34 32 30 31 32 32 32 32 32 28 25 25 26 29 33 36 39 43 45 49 52 57 60 61 62 63 61 60 58 57 56 55 55 54 53 52 51 49 48
42 40 38 37 36 34 33 30 29 31 31 31 31 30 26 23 25 26 28 31 35 38 41 44 48 52 56 59 61 61 62 61 60 60 58 56 54 54 54 53 52 50 50 49
41 41 38 37 36 34 32 31 30 30 31 31 29 28 26 23 23 26 28 30 33 36 39 43 48 52 57 59 61 61 62 61 59 60 59 56 54 53 52 53 52 50 50 48
41 41 40 38 36 33 32 31 30 31 30 31 31 29 24 22 23 25 27 29 32 35 37 41 46 52 56 59 60 61 62 61 61 60 59 58 56 55 53 53 52 50 50 48
41 41 41 38 36 34 32 30 30 31 31 32 33 30 24 23 23 25 27 30 32 34 37 40 44 50 54 57 60 61 61 62 62 61 60 58 56 56 55 54 52 51 50 48
41 41 40 39 37 34 32 31 30 31 32 32 33 31 25 24 23 24 26 29 32 34 36 39 43 47 52 55 59 60 62 62 62 62 61 59 58 56 56 55 53 52 51 50
41 41 39 37 35 35 34 33 32 32 33 34 33 30 25 24 25 25 27 29 31 33 35 37 41 46 50 53 56 59 61 62 63 62 61 60 59 57 55 55 55 53 52 51
41 41 39 38 36 35 34 33 32 32 32 33 32 30 26 26 27 27 28 30 31 32 34 36 39 44 48 51 55 58 60 62 62 61 61 61 59 58 57 55 55 54 52 52
41 40 39 37 35 35 34 32 31 31 32 33 32 29 26 27 28 29 30 32 33 33 34 36 39 42 46 49 52 56 58 60 61 61 60 60 60 60 58 56 56 56 53 52
40 39 38 36 34 35 32 28 29 30 30 31 31 29 28 28 28 29 31 31 33 33 34 36 39 41 44 46 49 53 57 58 59 60 60 60 60 59 58 56 56 56 54 52
39 38 37 37 35 34 31 28 28 28 28 29 29 28 28 28 28 29 30 31 32 33 34 35 37 40 43 45 48 51 54 57 58 58 59 58 58 57 57 58 57 56 54 53
38 37 37 36 36 34 28 26 27 27 26 26 26 26 26 26 27 27 29 30 31 33 35 35 36 39 43 45 47 49 52 55 56 57 57 57 57 55 55 56 56 56 54 53
37 36 35 35 34 33 28 27 27 27 24 22 24 24 24 25 26 25 27 29 30 31 34 35 36 39 41 43 45 48 50 52 54 55 55 56 57 55 55 55 54 54 52 51
35 35 33 33 34 32 28 26 25 25 24 22 23 23 24 25 25 25 27 28 29 30 33 34 36 39 41 43 44 45 48 51 53 54 55 55 55 55 54 54 54 53 51 50
35 34 32 32 33 31 28 27 26 25 25 24 24 23 24 24 25 25 26 28 29 30 32 34 35 37 41 42 43 44 46 49 52 54 54 54 54 55 54 53 53 53 51 50
34 33 33 32 31 30 30 29 28 27 26 25 25 24 24 25 25 25 26 28 30 30 31 32 33 34 38 41 42 44 45 47 49 52 54 55 54 53 54 53 52 53 51 48
34 33 33 32 29 29 30 30 29 29 27 26 26 25 25 25 25 25 25 26 29 31 32 33 33 34 36 39 40 43 45 45 47 49 51 53 53 52 52 53 52 52 51 49
32 32 32 31 29 30 30 31 31 30 29 28 27 27 27 26 25 26 25 26 28 30 32 33 34 35 35 37 39 42 44 44 45 47 48 49 50 50 51 51 51 50 49 48
30 31 32 31 30 31 30 31 31 31 30 30 29 28 27 27 27 27 27 27 28 30 31 33 35 36 36 37 38 40 41 42 43 45 47 47 48 49 49 49 49 49 48 47

GEFSCGP_500_meanwind_162.txt.gz
Wind_Speed
38 38 39 40 41 43 44 44 44 44 43 46 47 47 45 44 44 43 44 44 44 44 44 46 48 50 49 50 53 54 57 59 61 62 63 62 61 59 56 56 55 54 54 52
40 40 41 41 43 43 45 45 45 45 44 45 46 45 44 42 42 42 41 40 41 41 42 44 47 49 49 49 52 52 55 58 61 62 62 62 61 60 57 56 55 53 53 51
41 41 42 43 43 44 44 44 46 46 45 44 46 45 41 40 39 39 39 38 38 40 40 40 43 46 47 48 50 52 54 56 59 62 64 63 61 60 58 55 55 55 53 52
42 42 43 44 43 44 43 43 45 45 45 44 44 47 40 38 38 37 36 36 36 37 39 41 41 44 46 47 49 52 54 55 58 61 63 63 62 60 58 56 54 53 54 52
44 44 44 43 42 43 44 44 44 45 44 44 41 44 40 37 36 34 33 34 35 35 37 39 41 42 45 46 49 51 53 54 56 59 63 63 61 60 59 56 54 54 55 53
44 44 44 43 42 42 44 44 44 44 43 43 38 41 41 36 35 34 33 33 34 35 36 38 39 41 43 44 47 49 51 53 55 57 62 62 62 60 60 57 55 55 56 54
45 44 44 43 42 42 43 44 44 44 43 41 38 39 39 37 36 34 33 33 32 33 34 35 36 38 40 43 45 47 50 51 54 56 59 60 61 60 59 58 56 54 54 54
46 45 44 44 43 43 42 42 42 44 44 43 39 38 36 35 34 33 32 31 31 31 32 33 34 35 37 40 43 46 50 51 53 56 59 60 61 59 58 57 55 53 52 52
47 46 44 44 43 42 41 41 41 43 45 44 40 37 35 33 32 31 30 29 30 30 30 31 32 33 34 37 40 44 49 51 52 55 58 59 59 59 57 55 53 51 50 50
47 47 44 43 43 42 41 41 41 41 43 43 41 37 34 32 30 30 29 28 29 30 30 30 31 32 33 35 39 42 47 50 52 54 57 56 57 58 58 56 54 52 49 49
47 48 47 45 43 42 42 41 41 41 41 41 42 36 32 32 31 31 29 28 28 28 28 29 30 31 32 35 39 41 44 48 51 54 56 55 55 57 57 56 54 53 50 48
47 49 48 46 44 43 42 40 40 41 41 41 43 40 32 31 31 31 30 29 28 28 28 28 29 32 33 34 38 41 43 46 50 52 55 55 55 57 56 53 53 52 51 50
48 49 49 47 45 44 42 40 40 41 42 41 42 40 33 33 32 31 31 30 29 28 28 28 28 31 32 33 35 40 43 45 49 51 52 53 55 57 56 54 54 52 50 49
48 48 47 47 44 44 43 41 40 41 42 43 41 39 34 33 34 32 31 30 29 29 29 28 29 31 32 33 35 39 43 46 48 50 51 52 53 54 56 54 53 53 51 49
48 49 48 46 43 43 43 42 41 42 42 43 40 39 35 34 33 31 31 29 29 29 29 29 29 31 32 34 36 39 42 45 48 50 51 51 52 53 55 54 52 53 51 48
48 48 47 45 43 43 43 41 41 41 41 41 40 37 34 35 33 31 30 29 29 29 28 29 30 31 33 34 35 37 41 44 47 50 51 52 52 53 53 53 52 51 51 50
47 46 46 45 43 44 43 40 39 39 38 38 39 37 34 33 32 30 29 28 28 28 28 29 30 31 32 34 35 36 40 43 46 48 50 53 53 51 52 53 52 51 51 50
45 45 46 46 45 46 43 39 39 39 37 37 37 34 34 33 32 31 30 28 28 29 29 30 31 32 32 33 34 36 39 42 45 47 51 53 52 50 51 53 52 50 51 50
44 44 46 46 47 47 42 39 38 38 36 34 34 33 33 32 31 30 29 28 28 30 30 31 31 32 33 33 33 35 38 41 44 46 49 52 54 52 51 51 51 50 50 50
44 44 45 46 47 47 42 40 39 38 37 33 33 32 31 31 30 28 28 28 28 28 30 31 32 32 33 34 34 34 38 40 42 45 48 50 53 53 52 51 50 49 49 49
44 44 45 45 46 46 41 40 39 37 36 34 32 31 31 31 30 28 27 28 27 27 29 30 32 33 33 34 34 34 37 40 42 44 46 49 52 53 52 52 51 50 48 47
45 46 45 44 45 43 40 40 38 37 36 35 33 32 31 30 29 28 28 28 28 28 28 30 31 32 33 33 33 33 36 39 41 42 44 47 50 50 51 52 52 51 49 48
46 45 45 44 43 42 41 39 37 37 37 36 34 32 31 30 29 29 29 29 29 29 29 30 31 31 32 33 33 33 35 38 40 41 42 44 46 47 50 51 51 50 49 48
45 45 45 44 42 41 40 38 37 37 37 35 34 33 33 32 30 31 31 30 29 29 29 30 30 31 32 34 35 34 35 38 39 38 40 42 43 44 46 48 50 49 48 47
45 45 44 43 41 41 39 38 37 37 36 34 33 33 33 33 32 31 30 30 30 30 29 30 30 31 32 34 36 35 36 37 39 39 39 41 42 42 42 44 46 47 47 46
42 43 43 42 41 41 39 38 37 36 35 34 33 33 33 33 32 32 30 29 30 30 30 30 30 31 32 34 35 35 36 37 37 39 39 40 41 42 41 41 43 45 44 43

GEFSCGP_500_meanwind_168.txt.gz
Wind_Speed
32 33 34 35 36 36 37 36 37 37 39 41 42 41 40 41 43 44 44 44 44 44 45 47 47 47 48 49 51 51 52 54 55 56 57 59 59 59 60 61 62 61 60 59
32 33 35 36 36 36 37 37 38 38 39 42 42 41 39 40 42 43 44 44 44 44 44 45 46 46 46 47 48 50 50 51 53 54 55 57 58 58 59 61 62 62 61 60
34 35 36 36 37 37 36 38 39 40 41 41 43 41 38 39 40 43 44 44 45 44 43 44 44 44 43 44 45 46 48 49 51 53 54 56 58 59 59 61 62 63 63 61
35 35 36 37 37 38 37 39 41 41 42 42 44 45 39 40 41 42 43 44 44 42 41 41 41 41 41 42 43 44 46 47 49 51 53 54 56 57 58 60 62 62 63 62
36 36 36 36 37 38 39 40 42 43 43 44 43 46 42 41 41 41 41 41 41 40 40 39 38 39 40 40 40 42 43 44 46 48 50 51 53 54 55 58 59 60 61 63
37 37 37 37 37 39 40 41 43 44 44 45 44 45 43 41 41 40 40 39 39 38 38 37 36 37 38 38 39 40 42 44 44 47 48 51 52 53 55 56 57 57 59 61
38 38 38 38 38 40 40 41 44 46 46 45 44 45 43 41 41 40 38 37 37 37 37 36 36 36 35 36 37 38 39 41 43 46 47 48 50 52 53 55 56 56 57 58
41 40 39 39 39 41 42 42 43 46 47 46 44 44 42 41 40 38 37 36 35 36 36 35 35 34 34 35 36 37 39 40 41 43 46 46 48 50 51 53 53 55 57 58
42 42 41 40 41 41 42 42 43 46 47 47 45 43 42 40 39 38 36 35 34 35 35 35 34 33 34 34 34 35 37 39 40 42 45 45 47 49 50 52 52 53 56 57
43 44 42 42 42 42 42 43 44 44 47 48 47 44 42 40 39 37 36 36 36 35 35 34 33 31 32 33 34 34 36 38 39 41 43 44 45 47 49 49 50 52 55 55
44 45 44 43 42 43 43 43 43 45 46 48 49 45 42 40 39 37 36 36 36 35 35 34 32 32 32 32 33 34 34 36 37 39 40 41 43 46 47 47 47 51 54 54
44 46 45 44 43 43 43 43 43 44 46 47 49 46 40 40 39 38 38 37 35 35 34 34 33 32 31 31 31 32 33 35 37 38 39 40 42 44 47 48 47 50 52 53
45 46 46 46 44 43 43 43 43 44 45 46 47 46 41 40 39 38 38 37 36 35 33 33 32 31 31 30 30 31 32 33 35 36 38 40 41 42 46 48 47 47 49 53
46 46 46 46 44 44 44 43 43 44 45 46 46 45 40 38 38 38 38 37 36 35 33 32 31 30 30 28 29 31 31 32 34 35 37 39 40 42 45 46 46 46 50 52
47 48 47 46 44 44 45 44 43 44 45 46 45 44 40 37 38 38 37 36 36 35 33 31 29 28 28 27 28 29 30 31 34 35 35 37 39 42 44 45 45 46 48 51
47 48 48 47 45 45 46 44 43 44 44 45 44 42 39 38 37 37 36 35 34 33 32 30 29 29 28 27 27 28 30 31 33 34 35 36 38 39 42 45 46 46 46 48
47 48 48 47 45 46 46 42 42 42 41 42 43 41 39 39 37 37 36 35 33 32 31 29 29 29 28 27 27 28 29 31 32 33 35 35 36 38 39 42 45 45 46 47
47 46 47 48 47 47 44 42 41 41 40 40 41 40 39 38 37 36 35 33 31 30 29 29 29 28 28 27 27 28 29 30 31 32 33 36 37 38 38 40 44 45 45 45
46 46 46 47 48 48 43 41 41 42 41 40 40 39 38 37 37 35 34 33 31 30 30 30 29 29 27 27 28 27 28 29 30 31 34 36 37 37 38 40 42 44 46 45
46 45 45 46 46 46 43 41 42 43 42 40 39 38 38 38 36 33 33 32 31 31 31 30 29 28 27 26 27 28 28 30 31 32 34 37 38 37 38 39 42 43 45 46
46 45 45 44 45 45 42 42 43 43 43 41 39 38 38 37 36 35 33 32 31 31 30 30 29 28 27 26 27 28 28 30 31 32 34 36 37 38 37 38 41 43 43 45
45 45 44 43 45 44 42 42 42 43 42 42 40 39 39 37 35 34 33 32 31 30 29 29 29 29 28 27 27 28 28 30 31 32 33 35 37 38 38 38 39 41 43 45
44 43 43 44 44 42 41 42 42 43 43 42 41 39 38 37 35 34 33 32 31 30 30 29 29 28 28 28 27 28 29 30 31 33 34 35 36 37 38 38 38 41 42 43
44 43 44 44 42 41 42 42 43 43 43 41 41 39 38 37 35 34 33 32 31 31 31 30 29 28 27 28 27 28 29 30 32 33 34 34 35 36 37 38 38 40 42 43
43 43 44 44 42 43 43 43 43 43 43 42 41 40 38 37 35 33 32 32 31 30 30 30 29 28 27 27 27 28 29 30 32 33 34 34 35 36 37 39 40 41 42 43
42 43 44 44 43 45 43 43 43 42 42 41 40 38 37 36 35 33 32 31 30 29 29 30 29 28 27 27 27 28 29 30 32 33 34 35 35 36 38 39 41 41 42 43

GEFSCGP_500_meanwind_174.txt.gz
Wind_Speed
28 29 29 30 31 33 34 35 35 35 36 37 36 35 35 38 41 43 44 45 46 47 48 49 50 51 51 52 52 51 54 55 56 57 58 59 59 58 60 61 63 62 62 61
30 31 31 32 34 34 35 36 36 36 38 39 37 35 36 38 41 43 44 45 47 47 48 49 49 50 51 51 51 51 51 52 55 57 58 58 59 58 59 60 62 63 63 62
32 33 34 34 35 36 36 37 37 38 38 39 39 36 36 38 40 42 44 46 47 48 49 50 50 49 50 50 50 51 51 52 53 54 56 57 58 58 58 59 61 62 62 62
35 35 36 36 36 38 37 38 39 39 40 39 40 41 37 39 39 42 44 46 48 49 50 50 50 49 49 50 51 50 50 51 51 52 53 54 55 55 56 57 59 61 62 62
37 37 37 37 38 38 39 39 40 41 41 41 41 43 40 40 42 44 46 47 48 49 49 49 50 50 49 50 51 50 49 49 50 50 51 50 50 51 53 54 56 59 60 61
39 39 39 39 39 40 41 41 42 42 42 43 43 44 44 43 45 46 47 48 49 49 49 48 48 49 49 49 48 48 48 47 47 47 48 49 48 48 49 50 53 56 57 59
40 40 40 40 40 41 42 42 44 45 45 45 45 47 45 45 46 47 47 48 49 49 49 48 48 47 48 47 47 46 46 45 45 45 46 46 46 46 47 47 50 53 54 56
43 41 41 41 41 42 42 43 44 46 48 47 47 48 46 45 46 47 47 48 48 48 48 47 46 46 46 46 45 45 44 44 45 45 45 45 44 44 45 46 47 50 51 52
44 43 42 42 42 42 43 43 44 46 49 50 49 49 47 46 46 47 48 48 48 48 48 47 46 45 44 43 43 44 43 43 43 43 43 43 42 41 42 44 45 46 49 51
44 45 44 43 43 42 43 44 45 46 49 52 51 50 49 47 46 47 48 48 48 47 47 46 45 44 43 43 43 43 43 42 41 41 41 41 40 40 41 43 43 44 46 48
45 46 45 45 43 44 44 45 46 47 49 51 53 51 49 47 47 47 47 47 48 47 46 45 44 43 42 42 42 42 40 40 39 40 39 38 39 39 41 43 43 43 44 45
45 47 47 46 45 45 46 46 47 48 49 50 54 53 48 47 46 46 46 47 47 47 45 44 43 42 41 41 41 40 39 38 37 36 36 36 36 37 40 42 42 42 43 44
46 47 48 48 47 46 47 47 48 49 51 52 53 54 49 48 46 46 47 47 47 46 45 44 42 42 41 40 39 38 36 36 35 34 33 33 34 35 38 39 40 41 41 42
48 49 48 48 47 48 48 48 48 50 52 53 53 53 49 47 48 48 48 48 47 46 45 44 42 41 39 39 39 37 35 35 35 34 33 32 33 34 36 37 39 40 41 41
48 50 49 48 47 48 48 48 49 50 50 52 52 52 49 48 49 49 48 48 47 46 44 43 41 40 38 37 37 37 35 34 35 34 34 32 33 34 35 36 37 38 39 40
48 50 50 50 48 48 49 48 47 48 49 51 52 51 47 48 49 49 48 47 46 45 43 42 40 39 38 36 36 35 34 34 34 33 33 32 32 33 34 35 36 37 38 38
48 49 50 51 48 50 50 46 46 47 48 49 51 50 48 48 48 47 46 45 44 43 42 41 39 38 38 37 36 35 33 31 32 32 31 31 31 31 32 34 34 34 35 36
48 49 50 50 50 52 49 47 47 48 48 48 49 48 48 48 47 45 45 44 43 42 42 40 39 37 36 36 35 34 32 31 31 30 30 30 30 31 32 33 33 34 34 35
48 49 50 51 52 53 49 46 46 47 49 47 48 48 48 47 46 45 44 44 43 42 41 40 38 37 36 35 34 33 32 31 30 30 29 29 30 31 31 32 32 33 34 34
48 49 50 51 52 53 49 46 46 49 50 46 47 47 47 46 45 43 42 42 41 41 41 40 38 36 35 34 33 31 29 29 29 29 29 29 30 30 30 31 31 32 34 34
49 49 50 50 51 52 48 47 48 49 49 47 47 47 46 45 44 43 42 41 42 42 41 40 38 36 34 32 31 29 27 26 25 25 26 27 29 29 29 31 31 31 33 33
49 50 50 49 51 50 47 48 48 48 48 48 48 47 46 45 43 42 42 42 42 42 41 39 36 34 33 31 29 28 26 25 24 23 23 25 27 28 28 29 29 30 32 33
49 49 49 50 50 49 48 49 48 48 48 48 48 47 45 45 44 43 42 42 42 41 40 38 35 33 31 30 29 28 26 25 24 24 24 25 25 27 28 29 30 29 30 31
48 47 49 50 49 48 48 48 47 48 48 48 48 46 46 45 44 43 42 42 42 41 39 36 34 32 30 30 30 28 27 25 25 25 25 26 26 27 29 29 30 30 30 31
48 48 49 49 47 47 47 47 47 48 48 48 46 45 45 45 43 43 42 41 41 39 37 34 32 31 30 29 29 29 28 26 26 25 25 26 26 27 28 30 29 30 30 32
45 45 46 47 45 46 46 46 47 47 47 46 45 44 44 44 43 42 41 40 39 37 34 33 31 31 30 29 29 29 28 27 26 27 27 27 27 28 28 30 30 30 30 32

GEFSCGP_500_meanwind_180.txt.gz
Wind_Speed
23 24 24 25 25 26 26 27 27 28 29 29 29 29 31 33 34 34 36 37 39 40 41 42 43 44 45 45 47 48 49 51 52 53 54 54 55 56 57 58 59 61 63 63
25 26 26 27 27 28 28 29 29 30 30 31 30 30 31 32 34 34 35 37 39 40 41 42 43 45 46 46 48 49 50 51 52 53 54 55 56 57 58 59 60 61 63 64
28 28 29 29 30 31 31 32 32 33 33 33 33 31 31 32 33 33 34 37 39 40 41 43 44 46 47 48 49 50 50 51 53 55 55 56 58 58 59 60 60 61 62 64
30 30 31 32 33 33 33 34 35 35 35 35 35 35 33 33 33 35 36 37 38 39 41 43 45 46 47 48 50 51 51 52 54 55 56 56 57 58 59 59 59 61 61 63
32 32 33 34 34 35 35 36 37 37 37 37 36 37 35 35 35 36 38 39 40 41 42 44 45 46 48 49 50 51 52 53 55 55 56 56 56 58 58 58 57 59 59 61
34 35 35 35 36 36 37 37 38 39 39 39 38 38 37 36 37 37 39 40 41 42 43 45 46 47 48 50 50 51 53 54 54 55 55 55 55 56 57 57 56 56 57 58
36 36 37 37 37 38 38 38 40 41 41 41 40 40 39 39 39 39 41 43 44 45 46 46 47 48 49 50 51 51 52 53 54 54 53 53 53 53 54 54 53 53 53 54
38 38 38 38 38 39 39 39 40 42 43 44 42 42 40 40 40 41 43 45 46 46 47 48 50 50 50 51 51 52 51 52 52 52 51 50 51 50 51 52 52 51 50 50
40 41 40 40 40 40 40 40 40 42 44 45 44 44 41 41 42 42 43 45 47 49 49 50 51 51 51 51 51 51 51 50 49 49 49 48 48 47 48 49 48 48 47 47
42 43 42 42 42 42 42 41 41 42 44 46 46 45 43 42 42 44 45 47 49 50 51 51 51 51 51 51 50 50 50 48 47 46 47 47 46 45 46 45 45 45 44 45
43 44 44 43 43 42 42 42 42 43 44 46 48 47 45 44 45 46 47 49 50 50 51 51 51 51 50 49 48 48 47 47 46 46 45 45 44 45 44 43 43 43 43 44
44 45 45 44 44 44 43 42 42 43 45 47 49 49 46 45 46 47 48 49 51 51 52 52 51 50 49 48 47 46 46 46 45 45 44 43 43 42 42 42 42 42 41 41
44 45 46 46 46 44 43 43 43 45 47 48 49 49 47 47 47 48 50 51 51 52 51 51 51 50 48 47 46 45 45 44 44 44 43 42 42 41 41 41 40 40 39 40
46 47 47 46 45 45 45 44 44 46 48 49 50 49 47 47 49 49 50 51 51 51 51 50 50 48 47 47 45 45 44 43 43 43 42 42 41 40 40 38 38 37 37 39
47 48 48 47 45 46 46 46 46 47 48 50 49 50 48 47 49 50 51 51 50 50 50 50 49 47 46 46 46 45 44 43 43 42 41 40 39 39 38 37 37 36 37 37
47 49 48 49 47 47 48 47 48 48 49 50 51 51 47 49 50 51 51 50 49 49 49 48 48 47 45 45 44 44 44 42 41 40 39 38 37 36 36 35 35 34 34 35
47 47 48 50 49 50 51 48 48 48 48 49 51 50 48 49 50 49 50 49 48 47 47 47 46 46 44 43 43 42 41 39 38 37 37 36 35 35 34 34 33 32 32 32
47 48 48 49 50 53 51 48 48 49 49 49 50 49 49 49 49 49 48 48 47 46 46 46 45 44 42 41 40 38 37 36 35 35 35 33 32 33 32 31 31 30 31 31
47 47 48 49 51 53 50 48 47 48 49 47 48 48 49 49 49 47 47 47 46 46 46 45 44 43 41 39 38 37 36 34 34 33 33 31 30 30 30 30 29 28 29 30
46 46 47 48 50 52 49 47 47 48 50 47 47 48 48 48 47 46 46 46 46 45 45 45 44 41 39 38 37 36 34 33 32 32 31 30 29 28 28 27 27 26 26 27
46 46 47 48 49 50 47 46 46 47 48 48 48 48 48 47 47 46 45 45 45 45 44 44 42 40 38 38 37 36 34 32 30 30 29 28 26 25 26 26 26 25 25 25
46 46 47 48 48 47 45 45 45 46 47 48 48 48 47 47 46 46 46 46 45 45 44 42 41 40 39 38 37 35 33 31 29 28 27 26 25 25 26 26 25 25 25 25
46 46 46 47 47 46 45 45 46 46 47 47 48 48 47 47 46 46 46 45 45 44 43 42 41 40 38 37 36 34 32 30 28 26 25 24 24 25 25 26 26 26 26 26
47 46 47 47 46 45 45 46 47 47 47 47 48 47 47 47 46 45 44 44 43 42 41 41 40 38 37 36 35 33 31 29 27 25 25 24 23 24 25 25 25 26 25 25
45 46 47 47 46 47 46 47 47 48 47 47 46 46 46 45 44 43 43 43 42 41 40 39 38 37 35 34 33 31 30 28 26 25 24 23 22 22 23 24 24 25 25 25
41 42 44 44 44 46 45 45 45 45 45 44 43 43 43 43 43 43 42 42 41 39 38 37 36 35 34 33 32 30 28 26 25 25 24 23 22 22 23 24 24 26 26 25

GEFSCGP_500_meanwind_186.txt.gz
Wind_Speed
26 26 26 26 26 26 27 27 27 28 28 28 28 28 28 30 31 31 33 34 35 35 36 37 38 39 40 40 42 43 44 45 46 47 49 50 51 51 53 54 55 56 57 58
29 28 28 28 28 28 28 28 29 30 30 30 30 30 30 30 31 33 33 34 35 36 38 38 39 40 41 42 43 44 46 47 48 49 50 51 52 52 54 55 56 57 58 58
31 30 30 30 30 30 31 31 31 32 32 32 33 32 31 31 32 33 34 35 35 37 38 39 40 41 42 43 44 46 47 48 49 50 51 52 53 54 55 56 57 58 59 59
34 33 32 32 32 32 33 33 33 34 34 35 35 36 32 33 33 34 35 36 36 37 39 40 40 42 44 45 46 47 48 49 51 52 53 54 55 55 56 57 58 59 60 60
35 34 34 34 33 34 35 35 35 36 37 38 37 38 35 35 34 34 35 36 37 38 40 41 41 43 44 45 46 48 49 50 51 53 54 55 56 57 57 58 59 60 61 61
37 37 36 36 36 36 37 37 38 39 39 40 38 39 38 37 36 36 36 37 38 40 41 42 43 43 44 46 48 49 50 51 52 54 56 57 58 58 59 59 60 61 61 62
39 39 38 38 38 38 38 39 40 41 42 42 41 41 40 39 38 39 39 39 40 41 43 43 44 44 46 47 48 50 51 52 54 55 57 58 59 59 59 60 60 61 61 61
42 41 40 40 40 40 40 40 41 42 44 44 44 44 42 41 41 41 41 42 42 44 45 45 46 47 48 49 50 51 52 53 54 55 56 57 58 59 59 59 59 60 59 58
43 44 44 42 41 41 41 41 41 43 45 46 45 45 45 44 43 43 43 44 45 46 47 48 49 50 51 52 52 53 54 54 55 56 57 57 57 58 58 57 57 57 56 57
44 46 46 44 44 43 43 43 43 43 45 46 47 46 46 46 45 46 46 46 47 48 49 50 51 52 53 53 54 54 55 55 56 57 57 56 57 56 56 56 55 55 54 54
46 46 47 47 45 44 44 45 45 46 46 47 48 48 47 48 47 48 48 49 49 50 51 52 53 53 54 54 55 55 55 55 55 56 56 55 56 55 54 53 53 53 52 51
47 48 48 48 47 47 47 46 46 46 47 48 49 51 47 47 48 48 49 49 50 51 52 54 54 54 55 55 56 56 56 55 54 55 55 55 55 53 52 52 52 51 49 48
48 49 49 49 49 49 48 47 47 47 48 49 51 51 48 48 48 48 49 50 51 52 53 54 54 55 56 56 56 57 56 55 54 54 53 53 52 51 51 51 50 49 47 45
48 50 50 50 49 49 49 48 48 48 50 51 51 50 48 48 48 49 50 51 52 53 54 55 55 55 55 55 55 56 55 54 54 53 53 52 51 49 49 49 47 46 45 43
48 49 50 49 49 49 50 49 49 50 51 52 51 50 48 48 49 50 51 52 53 54 55 55 55 55 55 54 55 54 54 54 53 53 52 50 50 49 48 46 44 43 42 40
47 48 49 49 49 49 50 50 50 51 52 52 52 51 48 49 50 50 52 53 54 54 54 54 54 54 54 54 54 53 53 53 52 50 49 48 47 45 45 43 41 41 39 38
46 47 47 49 48 51 53 50 51 52 51 52 53 51 50 50 50 51 52 53 53 53 53 54 54 54 54 54 53 52 52 51 50 48 46 45 44 44 43 42 40 38 36 35
46 46 46 47 48 51 51 49 50 51 51 51 51 50 50 50 50 50 52 52 53 53 54 54 54 53 53 53 52 52 51 50 48 46 46 45 43 41 40 38 36 35 33 33
46 46 46 48 49 52 49 47 47 49 50 49 50 49 49 49 49 50 51 52 53 54 54 54 53 53 52 51 51 50 49 48 47 45 44 42 41 39 37 35 33 32 31 31
44 46 47 48 50 51 48 46 46 48 49 47 48 49 49 50 51 50 51 52 53 53 53 53 53 52 51 50 50 49 47 46 45 43 41 40 39 37 35 32 30 29 29 29
43 44 45 46 48 49 47 46 46 48 49 48 48 49 50 50 51 52 52 53 53 52 52 52 52 51 50 50 49 47 46 44 43 41 39 38 37 35 32 30 29 28 27 26
41 42 43 43 45 46 45 45 45 47 48 49 50 50 50 51 51 51 51 51 50 50 51 51 50 49 48 47 46 45 43 42 41 39 38 36 35 33 30 28 27 26 25 23
41 42 43 44 45 44 45 45 46 48 49 50 50 50 51 50 50 50 49 49 49 49 49 48 47 47 46 45 43 43 41 41 39 37 35 33 32 30 28 26 24 23 22 21
39 41 43 44 44 44 45 46 46 47 48 48 49 50 50 49 48 48 47 46 46 46 46 46 46 45 43 42 41 40 39 38 37 35 33 31 29 27 25 24 23 21 19 18
39 41 43 44 43 45 45 45 45 46 47 47 47 46 46 45 45 45 45 45 45 45 45 45 44 42 41 40 39 38 37 36 35 32 29 28 26 25 23 23 21 20 18 18
39 41 42 43 43 45 45 45 46 46 46 46 45 44 43 44 43 43 43 44 43 43 43 42 41 40 39 38 37 35 35 34 32 29 28 26 25 23 22 21 20 19 18 18

GEFSCGP_500_meanwind_192.txt.gz
Wind_Speed
30 30 28 27 27 27 27 26 26 25 26 26 25 25 26 27 27 27 27 28 28 29 30 31 33 34 34 35 36 36 37 37 38 39 40 41 42 43 44 46 47 48 49 50
32 31 30 30 30 29 29 28 28 28 28 28 27 26 26 26 27 28 28 29 29 30 31 31 33 34 35 36 37 38 38 39 39 40 41 42 44 45 46 48 49 50 51 52
34 33 33 33 32 32 31 31 30 30 30 30 30 29 27 27 28 28 29 30 30 31 31 32 34 35 36 37 38 39 40 40 41 42 43 44 46 47 48 49 50 52 53 54
37 35 35 34 34 34 34 33 33 33 32 32 32 32 29 29 29 30 30 31 31 32 33 34 35 36 38 39 40 41 41 42 44 45 46 47 48 49 51 51 52 53 55 56
38 37 37 36 35 35 35 35 35 35 35 35 34 35 33 31 31 31 32 32 33 33 34 36 37 37 38 40 41 42 43 44 45 47 49 50 51 52 52 53 54 56 57 58
40 39 38 37 36 37 37 37 37 37 37 38 36 37 36 34 33 33 34 35 35 35 36 37 38 38 39 41 42 43 44 45 47 48 50 51 53 54 54 55 56 58 59 60
41 40 39 38 38 38 38 37 38 39 40 40 38 39 39 37 36 36 36 37 37 38 38 39 39 40 41 43 44 45 46 47 48 50 52 53 54 55 56 57 58 59 61 61
42 41 40 40 39 38 38 38 39 41 42 41 41 41 40 40 39 38 39 39 39 39 40 41 41 42 43 44 45 47 48 49 50 51 53 55 56 57 58 59 60 61 62 62
43 43 42 41 40 40 40 40 40 42 44 44 44 44 42 41 41 41 41 41 41 41 42 42 43 44 45 46 47 48 49 50 51 53 55 56 57 58 60 60 61 61 61 62
43 44 44 43 43 43 42 41 41 42 44 45 46 45 44 43 42 42 43 43 43 43 44 44 45 46 47 48 48 50 50 51 53 54 56 57 58 58 59 59 60 61 61 61
43 45 45 45 45 44 43 43 43 44 45 46 47 46 45 44 44 44 44 44 44 44 45 46 47 48 49 49 50 51 52 53 54 55 57 57 58 58 58 59 60 60 60 59
43 44 45 45 45 45 45 45 45 46 46 47 48 47 45 45 45 45 45 45 46 46 47 48 48 48 49 50 51 52 53 55 55 56 57 57 57 58 58 59 59 59 58 57
43 44 45 46 46 45 46 45 45 46 46 47 48 47 46 45 45 45 45 45 46 47 48 49 49 49 50 51 52 53 53 55 56 56 56 57 57 57 57 57 57 56 55 55
43 45 45 45 45 44 45 45 44 45 46 47 47 46 44 44 45 45 45 46 47 48 49 50 50 51 51 52 53 54 54 55 56 56 56 56 57 57 56 55 54 54 53 52
44 45 45 45 46 45 45 45 45 46 46 47 46 46 44 44 45 45 46 47 48 48 50 50 51 52 52 53 54 54 55 55 56 56 56 55 55 55 55 54 53 52 51 49
44 45 45 46 46 47 47 46 47 47 46 47 47 46 44 45 46 47 47 47 48 49 50 50 51 52 52 53 53 54 54 55 55 55 55 54 54 53 52 52 51 50 48 46
44 44 45 46 46 47 49 47 47 47 46 46 46 45 45 46 46 47 48 48 49 50 50 50 51 51 52 53 53 53 53 53 53 53 53 53 53 51 50 49 47 46 45 43
41 41 42 44 45 47 46 45 45 46 46 46 46 46 46 47 47 47 48 49 49 49 50 50 51 52 52 53 53 53 52 53 52 52 52 52 50 48 47 46 44 42 41 39
39 40 41 42 44 46 44 42 43 45 45 45 46 46 46 47 47 48 48 48 48 49 50 51 51 51 52 51 51 51 52 52 51 51 50 49 47 45 43 42 41 40 38 36
39 39 40 40 42 43 42 42 43 44 45 44 45 46 46 47 47 46 46 46 47 49 49 50 50 50 50 50 51 51 51 50 49 49 47 46 44 43 41 39 38 36 35 33
38 38 39 39 40 41 40 40 41 42 43 43 43 44 44 45 45 45 45 46 47 47 48 48 49 49 49 49 50 49 49 48 47 46 44 43 42 42 40 38 36 34 32 29
36 37 38 38 39 38 37 39 40 41 41 41 41 42 43 43 43 44 45 46 47 47 48 48 48 48 48 48 48 47 46 45 44 43 42 41 41 39 38 36 33 31 29 26
34 35 36 38 38 37 36 36 38 38 39 40 41 42 43 44 44 45 46 46 47 47 47 47 48 47 47 48 47 46 45 44 43 42 41 40 38 37 35 33 30 28 26 24
33 33 34 35 36 36 36 36 37 38 38 39 41 41 42 42 43 44 44 45 45 45 45 46 46 46 46 46 45 44 43 42 41 40 39 38 36 34 32 30 27 25 22 21
34 34 34 34 34 35 35 36 37 38 38 39 40 41 42 42 41 41 41 42 42 42 42 43 43 43 43 43 42 42 41 40 39 38 37 35 33 31 29 27 25 22 19 18
33 34 34 34 34 35 35 35 36 37 39 40 40 41 41 42 41 41 41 41 41 40 41 41 41 41 41 40 40 40 39 39 37 35 33 31 29 27 25 23 21 19 17 16

GEFSCGP_500_meanwind_198.txt.gz
Wind_Speed
36 35 33 32 32 33 32 31 30 29 29 29 28 27 27 26 26 26 26 27 27 28 28 29 29 30 31 32 33 33 34 35 36 37 38 39 39 40 41 42 43 43 44 45
38 37 35 36 35 35 34 33 32 32 32 31 31 29 29 28 27 27 28 28 28 29 29 30 30 31 32 33 34 34 35 35 36 38 39 40 41 42 43 44 44 45 45 46
40 39 38 38 37 37 36 35 34 34 34 34 33 32 30 29 29 29 29 29 29 30 31 31 32 32 33 34 35 36 37 38 39 41 41 42 43 44 44 45 46 47 47 48
43 41 41 40 39 39 38 37 36 36 37 36 36 35 32 31 31 30 30 30 31 31 32 33 34 34 35 35 37 38 39 40 42 43 44 44 45 46 46 47 48 48 50 51
44 43 42 42 40 40 40 39 39 39 39 39 38 39 34 33 32 32 32 32 32 33 33 34 35 36 36 37 38 40 41 43 44 45 46 47 47 48 48 49 49 50 51 53
46 45 44 43 42 42 42 41 41 42 42 43 40 40 38 35 34 33 34 34 34 34 35 35 36 37 38 39 40 41 43 44 46 47 48 48 49 50 50 51 51 52 53 55
47 47 46 45 44 44 43 43 43 44 45 44 42 42 40 37 36 35 35 35 36 36 36 37 37 38 39 40 41 42 44 46 47 48 49 49 50 51 52 52 53 54 55 57
46 46 46 46 45 44 44 44 44 45 46 45 44 44 41 39 38 37 37 37 37 37 38 38 39 40 41 42 43 44 45 46 48 49 50 51 52 52 53 54 55 56 57 58
45 46 46 45 44 44 45 45 44 45 46 46 46 44 42 41 39 38 38 38 38 39 39 40 41 42 43 44 44 45 46 48 48 49 50 51 53 54 55 56 57 58 59 60
45 46 45 45 45 45 45 44 43 44 46 46 47 45 43 41 40 40 39 39 39 40 41 42 43 43 44 45 46 47 48 48 49 50 51 52 54 55 57 58 59 60 60 61
45 46 46 46 46 45 45 45 45 46 47 47 47 46 44 42 42 41 41 41 41 41 42 42 43 45 46 47 48 48 49 49 50 51 52 53 55 56 58 59 60 61 61 62
45 47 47 47 47 46 46 46 46 46 47 47 47 47 45 44 43 43 43 42 43 43 43 44 45 46 47 48 49 49 50 51 51 52 53 55 56 58 59 59 60 60 61 62
44 47 48 48 48 48 48 46 46 47 48 48 48 47 45 45 45 45 44 44 44 45 45 46 47 47 48 49 50 50 51 53 54 55 55 56 57 58 58 59 59 60 61 62
43 45 46 47 46 47 47 47 46 46 48 49 48 46 45 45 45 46 46 46 47 47 47 48 48 49 49 50 50 51 53 54 55 56 56 57 57 57 58 58 59 60 61 61
43 44 44 45 45 45 46 47 47 47 47 48 47 47 46 46 47 47 48 48 48 48 49 49 49 49 50 50 51 52 54 54 55 56 56 56 57 57 57 57 58 59 59 58
42 43 44 45 45 46 46 47 47 47 47 48 48 48 47 48 48 49 49 49 49 49 50 50 50 50 51 51 52 53 54 55 55 55 55 56 56 56 56 56 56 56 55 54
44 44 44 46 47 47 48 46 46 47 47 47 48 48 48 49 49 49 50 50 51 51 51 51 51 51 51 52 53 53 54 55 55 55 55 56 56 55 55 55 54 53 52 51
42 43 44 46 47 49 48 47 47 47 47 48 48 48 49 50 50 49 50 50 51 51 51 51 51 51 52 53 54 54 54 55 55 55 55 55 55 54 53 52 51 50 49 48
39 40 41 43 45 47 46 45 46 47 48 47 48 48 48 49 49 48 48 49 49 50 50 51 51 51 52 53 54 54 54 54 54 53 54 53 53 52 50 49 48 47 46 45
36 38 39 40 41 42 43 43 44 46 46 46 47 47 47 48 48 47 47 48 49 50 50 51 51 51 52 53 53 53 52 52 51 51 51 51 50 49 48 47 46 45 44 43
36 36 37 37 38 38 39 40 41 42 43 44 45 45 45 46 47 46 47 47 48 49 50 50 50 51 51 51 51 50 49 48 49 49 49 49 48 47 47 46 45 43 42 41
34 35 36 35 36 35 35 37 38 39 40 41 41 42 43 43 44 44 44 45 46 46 47 47 48 48 49 49 48 47 47 46 47 48 48 47 46 46 45 44 42 41 40 38
33 34 34 35 34 35 35 36 37 38 39 39 40 40 40 41 41 42 43 44 44 45 46 47 47 47 47 48 47 47 46 46 46 46 45 44 43 43 43 42 40 39 37 35
32 32 33 33 33 34 35 35 36 37 37 38 39 39 39 40 40 40 41 42 42 44 45 46 47 47 47 47 47 46 46 46 46 45 44 42 41 41 40 39 37 35 34 32
32 32 32 32 32 34 34 34 35 36 36 37 38 39 39 39 40 40 40 40 42 43 44 46 46 46 46 46 46 45 45 44 44 43 41 40 39 39 38 36 34 32 30 29
31 32 33 33 33 34 34 34 35 35 36 37 38 38 39 39 40 40 40 41 42 43 44 44 44 44 44 44 43 42 42 41 41 40 39 38 37 36 35 33 31 30 28 27

GEFSCGP_500_meanwind_204.txt.gz
Wind_Speed
40 39 37 35 36 36 35 35 34 33 33 32 32 31 31 31 30 29 29 28 28 28 29 29 28 29 29 29 30 30 31 31 32 33 33 33 34 35 36 36 37 38 40 41
42 41 38 38 38 38 37 36 35 35 34 34 33 32 32 31 30 30 29 29 29 29 29 29 29 29 29 29 30 31 32 32 33 34 34 35 35 36 37 38 39 41 42 42
43 42 41 41 40 39 38 37 36 36 36 36 35 34 33 32 31 31 30 30 30 30 30 30 29 30 30 30 31 32 32 33 34 35 36 36 37 38 39 40 41 43 44 45
45 44 43 42 42 41 40 38 38 38 38 38 37 36 34 33 32 31 31 31 30 31 31 31 31 31 31 32 32 33 33 34 35 36 37 38 39 40 41 42 43 44 45 46
46 45 44 44 43 42 42 40 40 40 40 40 39 39 35 35 34 32 32 32 31 32 32 32 32 32 33 34 34 34 35 35 36 37 38 40 41 41 43 44 45 46 47 47
47 47 47 45 44 44 43 42 42 42 42 43 40 40 38 36 34 33 33 33 33 33 33 33 34 34 35 35 35 36 36 37 37 38 40 41 42 43 45 46 47 48 48 49
46 48 48 47 46 46 45 44 43 44 45 45 41 42 40 37 35 35 35 35 35 35 35 35 34 35 35 36 36 37 37 38 39 40 41 43 44 45 47 48 49 50 51 51
45 47 48 48 47 46 45 45 45 45 46 45 44 43 41 39 37 36 36 36 36 36 36 36 36 36 36 37 38 38 39 39 41 42 43 44 45 46 48 50 51 52 53 54
43 45 46 47 48 47 47 47 46 46 46 46 46 44 42 40 38 38 37 37 37 37 37 37 37 38 38 39 39 39 40 41 41 42 44 45 46 48 49 51 53 54 54 55
43 43 43 45 47 48 48 46 46 46 47 46 47 45 43 41 39 39 38 39 39 39 39 39 39 39 39 40 41 41 42 42 43 44 45 46 47 49 51 52 54 54 55 57
43 43 43 43 45 45 46 47 47 47 48 47 47 46 43 42 41 40 40 40 39 39 39 39 40 40 41 41 42 43 43 44 45 46 47 48 49 51 52 53 55 56 57 58
42 43 44 44 44 44 45 46 47 47 47 47 47 47 44 43 42 41 40 40 40 40 41 41 41 41 41 42 43 44 45 45 47 48 49 50 52 53 53 54 55 57 58 59
42 44 44 44 45 45 45 45 46 46 47 47 46 47 45 44 42 41 41 41 41 41 41 41 42 42 42 43 44 45 46 47 48 50 51 52 53 54 55 55 56 57 58 58
43 44 44 44 44 44 44 44 45 46 47 46 46 44 43 43 43 43 42 41 41 41 41 41 42 43 43 44 45 46 48 49 51 52 53 54 54 55 55 56 56 57 57 57
40 42 44 44 44 43 43 43 44 46 46 46 44 43 42 43 43 43 43 42 42 42 42 42 43 44 44 45 46 48 49 51 52 52 53 54 54 55 56 56 56 57 56 56
38 39 42 44 44 44 44 43 43 44 45 46 45 45 43 43 43 43 43 44 44 44 44 44 44 45 46 47 48 49 50 51 51 52 52 53 54 55 55 56 56 55 55 55
36 37 39 41 43 44 45 43 43 43 43 44 45 44 44 44 44 44 44 44 45 45 45 45 46 46 47 48 49 50 50 50 51 52 52 53 54 54 55 55 54 54 53 53
35 36 37 39 41 43 44 43 42 43 43 43 44 44 45 46 46 46 46 46 46 47 47 47 47 48 48 49 50 50 50 51 51 52 52 53 53 54 53 53 52 52 51 51
35 35 36 37 39 41 42 41 41 42 43 43 44 45 46 47 47 47 46 46 47 47 47 47 48 48 48 49 49 49 50 51 51 51 52 52 52 52 51 51 50 49 48 48
33 34 34 35 36 38 38 39 39 41 42 42 43 44 44 45 46 45 45 45 45 46 46 46 47 47 48 48 49 49 49 49 50 50 51 50 49 48 48 47 47 46 45 44
32 32 33 33 34 35 35 36 37 38 39 40 41 41 42 43 43 44 44 44 44 44 45 45 46 46 46 47 47 48 49 49 49 49 48 47 46 46 45 44 44 43 42 41
29 30 31 31 32 32 33 34 35 36 36 37 37 38 39 40 40 41 42 42 43 43 44 44 44 44 45 46 46 47 47 47 47 47 46 45 44 44 43 42 41 40 39 39
28 29 29 31 31 31 31 33 34 35 36 36 36 36 36 37 38 39 40 41 42 42 43 43 43 43 44 45 45 45 45 45 45 44 44 43 42 41 40 39 38 38 38 38
26 27 28 29 29 30 31 31 32 33 34 34 35 35 35 35 36 38 39 39 40 40 41 41 42 42 42 43 43 43 43 43 43 43 42 40 39 38 38 37 37 36 36 36
26 27 28 28 29 29 30 30 30 31 32 32 33 33 33 34 35 36 36 37 37 38 39 39 40 40 41 41 41 42 42 42 41 40 39 38 38 38 37 37 36 36 35 34
25 26 26 26 27 27 27 28 29 30 30 30 31 32 32 33 33 34 34 35 36 37 37 38 38 39 40 40 40 40 39 39 38 38 37 38 37 37 36 35 35 34 33 31

GEFSCGP_500_meanwind_210.txt.gz
Wind_Speed
44 44 43 41 40 39 39 39 38 39 38 38 37 37 36 35 34 34 33 32 32 32 32 31 31 31 30 30 30 30 30 31 31 32 32 32 33 33 34 34 35 35 36 37
45 44 41 42 41 41 41 40 39 40 39 38 38 38 37 36 35 35 34 33 32 32 33 32 32 31 31 31 31 31 31 31 32 32 33 33 34 34 35 36 36 37 38 39
45 43 42 42 42 42 42 40 39 40 40 40 39 39 38 37 36 36 35 34 34 34 33 33 33 33 32 32 32 32 32 32 32 33 33 34 34 35 36 37 38 39 40 41
45 45 44 44 43 43 42 41 41 41 41 40 41 41 38 37 37 36 35 35 35 34 34 34 34 34 33 33 33 33 33 33 33 33 34 34 35 36 37 38 39 41 42 43
45 45 45 44 43 43 43 42 42 42 42 43 42 42 40 38 37 36 35 36 35 35 35 35 34 34 35 34 34 34 34 34 34 35 35 36 37 37 38 40 41 42 43 44
46 45 45 45 44 44 44 43 43 43 44 45 42 43 42 39 38 36 35 36 36 36 36 36 35 35 36 35 35 35 35 35 36 36 37 37 38 39 40 41 42 43 44 45
46 46 46 45 45 45 45 45 44 45 46 46 43 44 44 40 38 37 36 37 37 37 37 37 36 36 36 36 36 36 36 37 37 38 38 39 39 40 41 42 43 44 45 46
45 45 45 45 45 44 45 45 44 44 45 46 44 45 44 41 40 39 38 38 38 38 38 38 37 37 37 37 37 38 38 38 39 39 40 41 41 42 43 44 45 45 46 47
45 45 45 44 44 44 45 45 44 44 45 46 46 46 44 42 41 40 40 39 39 39 39 39 38 38 38 38 38 39 39 40 41 41 42 43 44 44 45 46 46 47 48 49
45 45 45 44 44 45 45 44 44 45 45 45 46 45 45 43 42 41 40 40 40 40 39 39 39 39 39 39 40 40 40 41 42 43 44 44 45 46 47 48 48 49 50 51
45 45 45 45 45 44 44 45 45 45 46 45 44 45 45 44 43 42 41 41 40 40 40 40 40 40 40 40 41 41 42 43 43 44 45 45 46 47 48 49 50 51 52 53
42 44 45 45 44 44 44 45 45 46 46 45 44 45 43 42 42 42 42 41 41 41 41 40 41 41 41 41 42 43 43 44 45 46 46 47 47 48 49 50 51 52 53 54
39 42 44 45 45 45 45 45 46 46 46 45 44 45 45 44 43 42 42 41 40 41 41 41 42 42 42 42 43 44 45 45 46 47 47 48 49 50 51 52 53 54 55 56
40 42 43 44 44 43 44 44 44 45 46 46 45 43 43 44 44 44 43 42 41 41 41 41 42 42 43 43 44 45 45 46 47 48 48 49 50 51 52 53 54 55 55 55
39 40 41 42 44 44 43 43 43 44 45 45 44 43 43 43 43 42 42 42 42 43 43 43 43 43 43 44 45 45 46 47 48 48 49 49 50 51 52 54 54 54 54 54
37 38 39 39 41 42 43 43 43 44 44 45 44 44 43 43 43 43 42 42 42 43 43 43 43 44 44 44 45 45 46 47 48 48 49 50 51 52 53 53 53 53 53 53
35 36 37 38 38 40 42 41 42 42 43 43 44 43 44 44 44 44 44 43 43 43 43 43 44 44 45 46 46 46 47 48 48 49 49 50 51 51 52 52 52 53 53 53
33 34 36 36 36 39 40 39 40 40 42 43 44 44 45 45 45 45 45 45 44 44 44 44 44 45 45 46 46 47 48 48 49 49 49 50 50 51 51 51 52 52 52 52
34 34 34 35 37 37 38 38 38 39 40 41 42 43 43 44 45 45 45 45 45 44 44 44 44 45 45 46 46 47 47 48 48 48 49 49 50 50 50 51 51 50 50 50
34 35 34 35 36 36 36 36 37 38 39 40 41 42 42 42 43 43 44 44 44 43 43 43 43 44 44 45 45 46 46 47 47 47 48 48 49 49 49 49 48 48 48 48
34 34 34 34 35 35 34 35 35 37 38 38 39 40 41 41 41 42 42 43 43 43 43 43 43 43 43 44 44 45 46 46 46 46 46 47 47 47 47 47 47 46 46 45
32 33 33 34 34 34 32 34 35 35 36 37 38 39 40 40 40 40 41 42 42 42 43 43 42 42 43 44 44 45 45 45 44 44 45 45 45 45 45 45 45 45 44 43
28 30 31 33 33 32 32 33 34 34 35 35 36 36 37 38 39 39 39 40 40 41 42 42 42 42 43 44 44 44 43 43 43 43 44 44 45 45 45 45 45 44 43 42
25 26 28 29 30 32 32 32 33 33 33 34 34 35 35 36 37 38 38 38 38 39 40 41 42 42 43 43 43 42 42 43 43 43 44 44 45 45 45 45 44 44 43 42
24 26 26 27 28 29 31 31 32 32 32 33 34 34 35 35 36 36 37 37 38 38 39 40 40 41 41 41 41 41 42 42 42 43 43 43 44 44 44 44 43 42 41 40
24 25 25 26 26 27 27 29 29 29 30 30 31 32 33 34 35 35 36 36 37 37 38 38 39 40 40 40 40 41 41 42 42 42 42 42 42 42 42 40 39 38 38 37

GEFSCGP_500_meanwind_216.txt.gz
Wind_Speed
44 45 45 43 43 43 43 42 42 42 42 42 41 40 39 39 37 36 35 34 33 32 32 32 31 31 30 30 30 30 30 30 29 30 30 30 30 30 31 31 32 32 33 33
45 44 42 43 43 43 43 44 43 43 43 42 42 42 41 41 39 38 37 36 35 34 33 32 32 31 31 30 30 31 31 31 30 30 31 31 31 31 32 33 33 33 34 35
45 42 42 43 44 43 43 43 43 42 43 43 43 44 43 42 40 39 38 37 36 35 34 33 32 32 31 31 31 31 32 32 32 32 32 32 32 33 33 34 35 35 36 36
45 45 45 44 44 43 42 41 42 43 44 44 44 45 43 42 41 40 39 37 36 36 35 34 33 32 32 32 32 32 33 33 33 33 33 33 33 34 35 35 36 36 37 38
46 45 45 45 43 43 41 40 41 43 44 46 45 46 43 42 41 40 39 38 37 36 36 35 34 33 33 33 33 33 33 34 34 34 34 34 35 35 36 36 37 38 38 39
46 45 45 44 43 43 42 41 42 43 44 47 46 46 45 43 40 39 38 38 37 37 36 36 35 34 34 34 34 34 34 34 35 35 35 35 36 36 37 37 38 39 40 40
47 46 46 45 45 44 44 43 43 44 46 47 45 46 45 43 40 38 38 38 37 37 37 36 35 35 34 34 34 34 35 35 35 35 36 36 37 37 38 38 39 40 40 42
46 46 46 45 45 44 44 44 44 45 46 45 45 46 45 42 40 38 38 38 38 37 37 36 35 35 34 35 35 35 35 36 36 36 37 37 38 38 39 40 41 41 42 43
44 45 44 44 44 44 44 44 43 44 45 44 45 45 44 42 40 39 38 38 37 37 37 37 36 35 35 35 35 36 36 37 37 37 38 39 39 40 40 41 42 42 43 43
39 42 44 44 44 44 43 42 43 45 45 45 44 44 42 40 39 39 38 38 37 37 37 37 36 36 35 36 36 37 38 38 38 39 39 39 40 41 42 42 42 43 44 45
36 39 41 44 45 44 44 44 44 44 45 45 45 43 42 40 39 38 37 37 37 38 38 38 37 37 37 37 37 38 38 39 39 39 40 40 41 42 42 43 43 44 45 46
36 37 38 41 43 43 44 44 43 44 45 45 44 43 42 41 39 39 38 38 38 38 38 38 38 38 38 38 38 39 39 39 40 40 41 41 42 42 43 44 44 45 46 48
36 37 37 39 42 43 44 44 43 44 45 45 45 44 41 41 40 40 39 39 39 38 38 38 38 38 38 39 39 40 40 40 41 41 42 42 43 43 44 45 46 47 48 49
35 37 37 37 38 40 41 42 43 44 45 46 45 44 42 41 41 40 40 39 39 39 39 39 38 38 38 39 39 40 40 41 41 42 43 43 44 44 45 46 47 48 49 49
33 35 35 35 36 38 39 40 42 43 43 43 43 43 41 40 40 40 39 39 39 39 39 39 39 39 39 39 40 40 41 41 42 43 43 44 45 46 47 47 48 48 49 49
32 33 33 34 33 34 37 39 40 41 42 42 41 41 40 39 39 39 39 39 39 39 39 39 39 39 39 39 40 40 41 42 42 43 44 45 45 46 47 47 48 48 49 49
33 31 31 33 33 33 35 37 38 39 39 40 40 39 39 39 39 40 39 39 38 37 38 38 39 39 40 40 40 40 41 42 43 44 45 45 46 46 47 47 48 49 49 50
30 30 29 29 31 33 33 34 35 36 37 38 39 38 39 39 39 39 39 38 38 38 37 37 38 40 40 41 41 42 42 43 44 44 45 46 46 46 47 47 48 49 50 51
30 30 30 30 31 32 32 32 33 34 35 36 38 39 40 40 40 40 40 40 40 39 39 38 39 39 40 41 42 43 43 44 44 45 45 45 46 46 46 47 48 49 50 50
30 32 32 32 32 32 31 31 32 33 34 35 36 38 39 40 40 39 40 40 40 40 40 40 40 41 41 41 42 43 44 44 45 45 45 45 45 45 46 46 47 48 49 49
29 31 32 31 32 32 31 31 31 33 33 33 34 36 37 39 39 38 39 39 40 41 41 41 41 41 42 42 43 43 43 44 44 44 45 45 45 46 46 47 47 48 48 47
29 29 30 31 31 31 30 31 31 31 31 32 33 33 34 36 37 38 38 39 39 40 41 41 42 42 42 43 43 43 43 43 43 44 44 45 46 46 46 46 46 46 46 46
28 29 29 29 29 29 30 31 31 31 31 31 32 32 34 35 36 37 38 39 39 39 40 40 40 41 41 41 41 41 42 42 43 43 44 44 45 45 45 45 45 45 45 45
25 27 27 28 28 29 29 30 30 30 31 31 31 32 33 34 34 35 36 38 39 40 40 40 40 40 40 41 42 42 42 42 42 42 43 43 43 43 43 44 44 45 45 44
22 24 25 25 27 28 30 30 29 30 30 31 32 32 32 33 33 34 35 36 37 38 39 39 40 41 41 41 41 41 42 42 42 42 42 42 42 41 42 43 43 43 43 43
19 21 22 23 24 26 27 28 29 29 30 30 31 32 32 33 33 33 34 35 36 36 37 38 38 39 40 40 40 41 41 41 41 41 41 41 41 41 41 42 42 42 42 42

GEFSCGP_500_meanwind_222.txt.gz
Wind_Speed
47 48 48 46 46 46 46 45 44 43 44 45 45 44 43 43 42 41 40 39 38 38 37 36 35 35 34 33 32 32 32 32 31 30 30 30 30 30 30 31 30 30 30 31
46 48 46 45 46 46 46 46 45 44 44 45 46 45 44 44 42 40 40 39 38 38 38 37 36 35 34 33 33 33 33 33 33 32 32 32 32 32 31 31 31 31 32 32
46 45 45 46 46 47 47 45 44 44 44 45 46 46 45 44 43 42 41 40 39 38 38 37 36 35 35 34 34 34 34 34 34 34 34 33 33 33 33 33 33 33 33 34
46 46 46 46 46 46 46 44 44 45 45 46 46 46 45 45 44 43 42 40 39 39 38 38 37 36 36 35 35 35 35 35 35 34 34 34 34 34 34 34 34 35 35 35
46 46 47 46 45 45 44 44 44 45 46 46 46 47 45 45 44 43 42 41 40 40 39 39 38 37 37 37 37 36 36 36 35 35 35 35 35 35 35 36 36 36 37 37
46 46 46 45 44 45 45 44 45 45 46 48 46 47 46 44 43 42 42 42 41 41 40 40 39 39 38 38 38 37 37 36 36 36 36 36 36 36 36 37 38 38 38 39
45 46 46 46 45 46 47 46 46 46 48 49 46 47 46 43 42 42 41 41 42 42 41 41 40 40 39 39 38 38 37 37 37 37 37 36 37 37 37 38 38 39 40 40
42 44 46 46 46 47 46 46 47 47 48 48 46 47 45 44 43 42 42 41 41 41 41 41 40 40 39 39 38 38 38 38 37 37 37 37 38 38 38 39 39 40 40 41
41 41 43 45 45 45 45 45 45 46 47 47 47 46 45 43 43 42 42 42 41 41 41 41 41 40 39 39 39 39 38 38 38 38 39 39 39 39 39 40 40 41 41 42
38 40 41 43 45 46 45 44 44 45 46 46 46 46 44 41 41 41 42 42 42 42 42 41 41 41 40 40 40 40 40 40 39 39 39 39 40 40 40 41 42 42 43 44
37 39 40 41 44 45 45 45 45 44 45 45 45 44 42 40 40 40 40 41 42 42 42 42 41 41 41 41 41 41 41 40 40 40 40 40 41 41 41 42 43 43 44 44
36 38 38 40 42 43 45 45 45 45 45 44 44 43 41 39 38 38 39 40 41 41 41 41 41 41 41 41 41 41 42 41 41 41 41 42 42 42 43 43 44 44 44 45
35 36 37 39 41 42 44 45 46 45 45 44 43 43 41 39 38 37 38 38 39 39 40 40 41 41 40 41 42 42 42 42 42 43 43 43 43 43 43 44 44 45 45 45
34 36 37 38 38 38 40 42 44 45 46 45 44 42 40 39 38 37 38 38 38 38 39 39 40 40 41 41 41 42 42 43 43 43 43 43 44 44 44 45 45 45 45 46
33 34 36 37 36 36 37 39 41 43 44 44 42 42 41 40 39 38 38 39 39 39 39 39 40 41 41 41 42 42 42 43 43 44 44 44 45 45 45 45 45 45 45 46
32 32 34 35 35 35 35 37 39 41 42 42 42 42 41 40 40 40 39 40 40 40 40 40 41 41 42 42 42 43 43 43 44 44 44 45 45 46 46 46 46 46 46 47
30 30 31 34 35 35 35 36 37 39 40 40 40 40 41 41 40 40 40 41 41 41 41 41 41 41 41 41 42 43 43 44 45 45 45 46 46 46 47 47 47 47 47 48
28 28 29 30 33 35 35 34 36 37 37 38 39 39 40 40 40 40 40 39 40 40 40 40 40 40 41 41 42 42 43 44 44 45 45 45 46 47 47 47 47 48 48 48
28 28 28 29 31 33 33 33 33 35 36 36 37 37 38 39 39 39 39 38 38 39 39 39 40 40 41 41 42 43 43 43 43 44 45 45 46 47 47 47 48 47 47 48
27 28 28 29 30 31 32 32 31 32 34 34 34 35 37 37 37 36 37 37 37 38 38 39 39 40 41 42 42 42 43 44 44 45 45 45 46 46 46 46 46 47 47 48
27 28 29 29 30 31 31 31 31 31 31 32 33 33 35 36 35 36 36 37 38 38 38 39 40 40 41 42 42 43 43 44 45 45 45 45 44 44 44 44 45 46 47 48
27 27 27 28 29 30 31 31 31 30 30 30 31 32 33 33 33 34 35 36 37 37 37 38 39 39 40 41 42 43 44 44 44 45 45 45 44 44 45 45 46 46 47 48
27 27 27 28 28 28 30 32 32 31 30 30 31 31 32 33 34 34 35 36 37 37 37 38 39 39 40 40 41 42 43 43 44 45 45 45 45 45 45 45 45 46 46 46
26 27 27 27 28 28 29 30 31 32 32 31 31 30 31 32 33 35 35 35 36 37 38 38 39 39 40 41 41 42 42 43 43 43 43 44 44 44 44 45 45 45 45 45
22 25 27 27 28 28 29 31 32 32 32 32 32 31 31 31 32 34 35 36 36 37 37 38 39 39 40 40 41 41 42 43 43 43 43 43 43 43 43 44 44 44 44 43
19 21 22 24 26 27 28 29 30 31 31 32 33 33 32 32 32 33 34 35 36 36 37 38 38 39 40 41 41 42 42 42 42 43 43 43 43 43 43 43 43 43 42 42

GEFSCGP_500_meanwind_228.txt.gz
Wind_Speed
48 49 50 49 49 48 47 47 46 45 46 46 46 45 45 45 44 44 43 42 42 41 41 40 40 39 38 38 36 35 34 34 33 32 31 31 31 30 30 30 30 30 30 30
47 48 47 48 48 48 47 47 47 46 45 46 47 46 45 45 44 44 43 43 42 42 41 41 40 40 39 38 37 36 36 35 34 33 32 32 32 31 31 31 31 31 31 31
46 45 46 48 49 48 48 46 45 46 45 46 47 47 46 45 45 44 43 43 42 41 41 41 41 40 39 38 38 37 37 36 35 34 34 33 33 32 32 32 32 32 32 33
45 46 46 47 48 47 47 45 45 45 45 46 47 48 47 46 45 44 43 43 42 42 41 41 41 40 39 39 38 38 37 37 36 35 35 34 34 34 34 34 34 34 34 34
45 45 46 47 46 46 45 44 44 45 45 46 47 48 47 46 45 44 43 42 42 42 41 41 41 40 40 39 39 39 38 37 37 36 36 35 35 35 35 36 36 35 36 36
44 44 45 45 45 45 44 44 43 44 46 48 47 47 47 45 44 43 43 42 42 42 42 41 41 41 40 40 40 39 39 38 37 37 37 37 36 36 36 37 37 37 37 37
43 44 44 44 44 45 44 45 45 45 47 49 47 47 46 44 43 42 42 42 42 42 42 42 41 41 41 41 40 40 40 39 39 38 38 38 37 37 37 37 38 38 38 38
41 42 43 43 44 43 43 45 45 46 47 47 47 47 45 43 42 42 42 42 42 42 42 42 42 42 42 42 41 41 40 40 39 39 39 39 39 39 38 38 38 38 38 39
39 40 41 43 43 42 42 43 43 44 45 46 46 45 44 43 42 42 42 42 42 42 43 42 42 42 42 42 42 41 41 41 40 40 40 40 39 39 39 39 39 39 40 40
36 38 40 41 42 43 43 42 42 43 44 44 45 44 42 41 40 40 41 41 41 41 42 42 42 43 43 43 43 43 42 42 41 41 41 41 40 41 41 40 40 41 41 41
34 36 37 40 41 41 42 42 43 43 43 43 44 44 42 40 40 39 39 40 41 41 42 42 42 43 43 44 44 44 43 43 43 42 42 42 41 41 41 41 41 41 42 42
32 34 36 38 38 38 40 41 41 42 42 43 43 42 40 39 39 38 38 39 40 41 42 42 42 42 43 44 44 45 44 44 43 43 43 42 42 42 42 41 42 42 43 44
29 31 34 37 37 37 39 39 40 41 42 42 42 41 39 38 38 37 37 38 38 39 41 41 42 42 43 43 44 44 44 44 44 44 43 43 43 42 42 43 43 43 44 45
27 29 33 36 38 37 38 38 38 39 41 41 41 40 39 38 37 37 37 37 37 37 38 39 41 42 43 43 43 44 44 44 44 44 44 43 43 43 43 43 44 44 45 46
26 28 30 32 34 34 35 36 37 38 38 39 39 38 38 38 37 37 37 36 37 37 37 37 38 40 41 43 43 44 44 45 45 44 44 44 44 44 44 44 44 45 46 46
26 27 29 30 31 32 33 35 36 36 37 37 37 37 36 37 37 37 36 36 35 36 36 36 37 38 39 40 42 43 43 44 45 45 44 44 44 44 45 45 45 46 46 46
26 26 27 29 31 32 33 33 34 35 35 36 36 36 35 36 36 36 36 36 35 36 36 36 36 37 38 39 40 41 42 43 44 45 45 45 45 45 45 46 46 46 46 46
24 26 27 26 28 31 32 31 32 33 34 35 35 35 36 36 36 36 36 36 36 36 36 36 36 37 38 39 39 40 41 42 43 44 44 45 45 45 45 45 46 46 46 46
23 24 26 26 26 28 30 31 31 32 34 35 34 34 35 35 35 35 36 36 36 36 36 37 37 37 38 38 39 39 40 41 42 43 43 44 44 44 45 45 45 45 45 46
22 24 25 27 27 27 28 30 31 31 31 33 34 34 34 34 34 34 34 35 35 36 37 37 37 38 38 38 39 40 40 41 41 42 42 43 43 44 44 45 45 45 45 45
22 23 24 26 27 27 27 28 30 31 30 31 32 33 34 34 34 33 33 33 34 34 36 37 37 37 38 39 40 40 40 41 42 42 42 42 42 43 43 44 44 45 45 45
21 22 24 25 26 27 26 27 28 29 29 30 31 31 32 33 33 33 33 33 33 33 34 35 36 37 37 38 39 40 40 41 42 42 41 42 42 43 43 43 43 44 44 45
20 22 23 24 25 25 26 27 27 28 28 28 28 28 30 31 32 32 33 33 33 33 33 33 34 35 36 37 38 39 40 40 41 41 41 41 41 41 41 41 41 42 42 43
20 21 22 23 24 25 25 26 27 28 29 29 28 28 28 29 30 31 31 32 33 33 33 34 34 34 35 36 37 38 39 40 40 40 40 40 40 40 41 41 41 41 41 41
20 20 21 21 23 24 25 26 26 28 29 30 30 29 29 29 29 29 30 31 31 32 33 34 34 35 35 35 36 37 37 38 39 39 39 40 40 40 40 40 40 40 40 40
17 18 20 21 22 23 23 25 25 26 28 30 31 30 30 30 30 30 30 30 31 31 32 33 33 34 35 35 35 35 36 36 37 38 39 39 40 40 40 40 40 40 40 40

GEFSCGP_500_meanwind_234.txt.gz
Wind_Speed
43 45 46 45 46 46 47 48 48 47 47 48 48 48 47 47 47 47 46 45 45 44 44 43 43 42 41 40 39 39 38 37 36 36 35 34 33 32 31 30 30 30 30 30
44 45 43 43 44 45 46 47 47 47 47 47 48 48 48 47 47 47 47 46 46 45 44 44 43 42 42 41 40 40 39 38 37 37 36 35 34 33 32 31 30 30 30 30
42 42 43 43 43 44 46 47 47 46 47 47 47 48 48 47 47 47 47 46 46 45 44 43 42 42 42 41 41 40 40 39 38 37 37 36 35 34 33 32 31 31 30 30
39 41 44 43 42 43 44 45 46 46 47 47 47 48 48 47 47 47 46 45 45 45 44 43 42 42 42 42 41 41 41 40 39 38 37 36 35 34 33 33 33 32 32 32
38 39 42 44 43 42 43 44 45 46 46 47 47 48 48 47 47 46 45 45 44 44 44 43 43 43 43 42 41 41 41 40 39 39 37 37 36 35 35 35 34 34 33 34
36 39 40 41 41 41 41 42 43 44 45 47 47 48 48 47 46 45 45 44 44 44 43 43 43 43 42 42 41 41 41 40 40 39 38 38 37 36 36 36 36 36 35 35
35 38 39 40 40 41 41 41 41 42 44 47 46 47 48 46 46 45 44 44 44 44 43 42 42 42 41 41 41 42 41 41 40 39 39 38 37 37 37 37 37 37 37 37
33 37 39 39 40 39 40 40 41 41 43 44 44 46 47 46 45 45 44 44 44 44 43 42 42 42 41 41 42 42 42 41 41 40 39 39 38 38 38 38 38 38 38 38
30 34 37 38 38 39 40 40 39 39 40 41 42 43 44 45 45 44 43 43 43 43 43 43 43 42 42 42 42 43 43 42 42 41 41 40 40 40 39 39 39 39 39 39
27 29 34 37 38 40 39 37 38 38 38 40 41 42 42 42 43 43 43 43 43 43 43 43 43 43 43 43 43 44 43 43 43 42 42 42 41 41 40 40 40 40 40 40
26 29 31 35 38 39 39 39 39 39 38 38 40 41 40 41 41 42 42 42 42 42 43 43 43 42 43 43 43 44 44 44 43 43 43 43 42 42 41 41 41 40 41 41
25 28 30 32 35 38 38 39 38 38 39 39 39 39 39 39 39 39 40 40 40 41 41 41 41 42 42 43 44 44 45 45 45 44 44 44 44 43 43 42 42 42 42 42
25 27 29 32 34 37 37 38 37 38 39 38 38 39 37 37 37 38 38 39 39 39 40 40 40 40 40 41 43 44 45 45 45 46 46 45 44 44 44 43 43 43 43 43
24 24 27 30 33 34 36 36 35 36 38 37 38 39 39 37 36 36 37 38 38 39 38 39 39 39 39 40 41 43 44 45 45 45 46 46 45 44 44 44 44 43 44 44
24 23 25 28 30 31 33 35 34 34 35 36 37 38 39 38 37 36 36 37 37 37 38 38 38 38 38 39 40 41 42 43 44 45 46 46 45 45 44 44 44 44 45 44
24 24 25 26 28 30 31 33 33 33 34 34 35 36 36 36 37 37 36 36 37 37 38 38 38 38 38 38 40 41 41 42 42 43 45 45 45 45 45 44 44 45 44 44
23 24 25 26 27 29 30 31 33 34 34 34 34 35 34 35 35 36 37 36 36 37 37 37 38 38 39 39 39 39 40 41 41 42 43 43 44 44 45 45 45 45 44 44
23 22 23 25 27 29 29 29 31 33 33 33 33 34 34 34 34 35 36 36 36 36 37 37 37 37 38 38 38 39 40 40 40 41 42 43 43 44 44 44 45 44 44 44
22 23 22 23 24 27 28 28 29 32 33 33 33 33 33 33 34 34 34 35 35 35 36 36 36 36 36 37 37 37 38 39 40 40 41 42 43 43 43 43 44 44 45 45
21 22 22 23 24 25 26 27 29 31 33 33 33 33 34 33 33 34 34 34 34 34 34 35 35 36 36 36 36 37 37 38 39 39 40 40 41 42 42 42 43 43 44 45
21 23 24 24 24 24 26 27 27 29 31 33 34 33 33 34 34 33 34 34 34 34 34 34 34 35 36 36 37 37 37 38 39 39 40 40 40 41 41 42 42 43 43 44
20 21 23 24 25 25 25 26 27 27 29 31 32 33 34 34 35 34 34 33 33 33 34 34 34 34 35 36 37 38 38 38 39 39 40 40 40 40 40 41 41 41 42 42
21 21 22 23 24 25 25 25 26 27 28 29 30 31 32 33 34 34 34 33 32 32 33 33 33 33 34 35 36 37 37 38 39 39 39 40 40 40 40 40 41 41 41 41
21 22 23 23 23 24 24 25 25 26 28 29 30 30 31 32 32 33 33 33 33 32 32 33 33 33 33 34 35 37 38 38 38 38 38 38 39 40 40 40 40 39 40 40
19 22 23 23 24 25 25 25 25 25 26 26 27 29 30 31 31 32 32 33 33 33 33 33 33 34 34 34 35 35 36 37 37 37 37 38 38 39 39 38 39 39 39 39
18 20 22 23 24 25 26 26 26 25 25 26 26 27 29 30 30 31 31 32 32 32 33 33 33 34 34 34 34 34 34 35 35 36 36 36 37 37 38 38 38 38 38 38

GEFSCGP_500_meanwind_240.txt.gz
Wind_Speed
37 39 40 40 41 44 46 48 49 49 50 50 50 49 48 49 48 47 47 47 47 46 45 44 44 43 42 40 39 39 38 37 35 35 34 34 34 33 33 33 32 31 31 30
36 39 38 38 40 41 45 47 47 48 48 49 49 49 49 49 48 47 47 46 46 46 46 45 44 44 43 41 41 40 39 38 36 35 35 35 35 35 34 33 32 32 32 31
33 36 37 38 39 40 42 44 45 46 47 48 48 49 49 49 49 48 47 46 46 45 45 45 45 44 43 42 41 41 40 38 38 37 37 37 36 36 36 35 34 33 33 32
31 34 37 38 39 39 39 41 43 44 46 48 49 49 48 48 48 48 47 47 45 44 44 43 43 44 43 42 42 42 41 40 39 38 38 37 37 36 36 35 35 34 34 33
30 33 35 36 37 38 38 38 39 42 45 47 47 49 49 48 48 47 47 46 45 44 43 43 43 43 43 43 43 42 42 41 40 40 39 38 37 37 36 36 35 35 34 34
27 31 33 34 36 37 37 37 37 39 42 46 46 48 48 47 45 45 45 45 44 44 44 44 44 44 44 44 44 43 42 41 41 41 40 39 38 38 37 36 36 36 35 35
26 29 32 34 35 37 38 38 37 39 41 44 44 45 46 44 44 44 44 44 44 44 44 43 43 43 43 43 44 43 43 42 42 41 41 40 39 39 38 38 37 37 37 36
26 27 30 32 34 36 38 39 39 40 42 43 43 44 44 43 42 42 43 44 44 44 44 43 43 42 43 43 43 43 43 43 42 42 41 40 40 39 39 39 38 38 38 38
24 26 28 30 31 34 35 37 37 37 40 41 43 43 43 42 41 41 42 43 44 44 43 43 43 42 42 42 42 43 43 43 42 42 42 41 41 40 40 40 39 39 39 39
23 25 28 30 30 32 33 34 35 35 37 40 41 42 41 40 39 40 41 42 42 42 42 42 42 42 41 41 42 42 42 42 43 43 43 42 42 42 41 41 40 40 40 40
22 25 27 30 31 31 33 33 34 34 36 38 40 41 40 38 38 38 39 40 40 41 41 41 41 41 41 41 42 41 41 42 42 43 43 43 43 43 43 42 42 42 42 41
21 24 25 28 30 31 32 34 35 33 34 36 38 38 38 38 37 37 37 38 38 39 39 39 39 40 41 41 42 41 41 42 42 42 43 44 44 43 43 43 43 43 42 42
20 22 23 26 30 32 32 32 34 34 33 35 38 39 38 37 36 35 36 37 38 38 38 38 38 39 40 41 41 41 41 41 42 42 43 43 44 44 43 43 43 43 42 42
19 21 23 25 28 30 31 31 32 33 33 34 36 37 38 37 35 35 35 35 37 38 38 38 38 38 38 39 39 40 40 41 41 42 43 43 43 44 44 44 44 43 43 43
20 21 23 24 26 28 30 31 30 30 31 32 32 33 35 37 37 36 34 35 36 38 39 38 38 38 38 39 39 39 39 40 41 41 41 42 42 43 43 44 44 44 44 44
18 20 22 24 27 28 28 29 29 29 31 32 31 31 32 33 35 36 36 36 37 37 38 38 39 38 39 39 39 39 39 40 40 41 41 41 41 42 42 42 43 44 45 45
16 17 20 23 27 29 29 27 26 27 30 31 31 30 31 32 33 34 35 37 37 37 37 38 38 37 37 38 39 39 39 39 39 40 40 41 41 41 41 42 43 43 44 44
16 17 19 21 25 28 29 29 27 27 29 29 30 30 31 33 33 33 34 35 36 37 37 37 37 37 37 37 38 38 39 40 39 39 39 40 40 40 41 41 42 43 43 43
16 17 18 20 24 25 27 27 27 27 27 29 30 29 31 32 33 33 33 33 34 34 35 36 36 37 37 38 37 37 38 39 39 38 39 39 39 40 40 41 41 42 42 42
16 18 19 21 23 24 24 26 27 27 27 27 29 30 30 31 32 31 32 32 32 33 34 35 35 36 37 37 37 37 38 38 38 38 38 39 39 39 40 41 41 41 41 42
16 17 17 19 20 22 24 26 27 28 27 27 28 29 30 31 31 31 32 33 34 34 34 34 34 35 36 37 37 38 38 38 37 38 38 39 39 40 40 41 40 40 40 41
15 16 18 18 19 20 22 24 25 26 27 28 29 29 30 31 31 31 31 32 33 34 34 34 34 34 34 35 36 37 37 37 37 37 38 39 39 39 40 40 39 39 39 39
16 17 18 20 20 20 21 22 23 25 26 27 29 30 30 31 31 31 31 31 32 33 34 34 34 34 34 34 33 35 36 37 38 38 38 38 38 38 39 39 39 38 38 38
18 19 19 20 20 21 22 22 22 23 24 26 28 28 30 31 31 32 31 31 31 32 33 33 34 34 34 34 33 34 34 35 37 38 38 38 38 39 39 39 38 38 38 39
17 19 20 21 22 23 23 23 23 23 24 24 25 27 28 30 30 31 32 32 32 33 33 33 33 33 34 34 34 34 34 34 34 35 36 37 37 37 37 37 37 37 37 37
17 18 20 21 23 23 23 24 24 24 24 25 25 25 26 28 29 30 31 32 32 32 32 32 33 33 34 34 34 34 34 34 34 34 34 35 36 36 36 36 36 36 37 37

GEFSCGP_500_meanwind_246.txt.gz
Wind_Speed
31 35 37 37 38 39 42 44 46 46 46 48 50 49 50 50 49 49 49 48 48 47 45 45 43 43 43 42 42 41 40 39 38 37 36 35 35 34 34 33 33 32 31 31
29 32 33 35 36 38 40 42 44 45 46 47 49 50 50 51 50 50 49 48 48 48 47 46 46 45 44 43 43 42 41 40 39 38 37 36 36 35 35 35 35 34 34 33
26 28 30 33 34 35 39 41 41 43 45 47 49 51 50 50 50 50 50 49 49 49 49 49 46 46 45 44 43 43 43 41 40 40 39 38 37 37 37 36 36 35 35 35
25 28 29 30 32 34 36 38 40 41 43 45 48 51 51 50 50 50 50 49 49 48 48 48 47 46 45 45 44 44 44 43 42 42 40 40 39 38 38 37 37 37 36 35
24 26 28 28 29 31 33 36 38 39 41 44 45 50 51 50 50 50 49 48 47 47 47 46 46 46 46 46 45 45 45 43 43 43 42 41 41 40 39 37 37 37 36 35
22 24 26 27 28 30 30 33 37 37 38 43 44 46 49 49 48 48 48 47 47 47 47 46 45 46 46 46 45 45 44 44 44 44 43 43 42 41 40 39 38 37 37 37
21 23 24 26 28 29 29 31 33 34 37 40 41 44 46 46 46 47 47 47 47 47 47 46 45 45 45 46 45 45 44 44 44 44 43 43 44 43 41 40 39 38 38 38
19 22 24 25 27 28 29 30 33 34 37 38 40 42 43 43 44 45 45 46 46 46 46 45 45 45 46 45 44 45 44 43 44 44 44 44 44 43 42 40 40 39 39 39
18 20 23 24 25 27 28 29 31 32 35 36 39 39 41 42 42 42 43 43 45 45 44 44 44 45 45 46 45 45 45 44 44 44 43 43 43 42 42 41 41 40 40 39
17 18 21 24 26 28 28 28 30 31 32 36 37 39 40 40 40 41 42 42 43 43 43 43 44 44 45 45 46 46 46 44 44 45 44 44 43 43 42 42 42 41 41 41
18 19 20 23 26 28 29 28 30 32 32 34 36 38 38 38 39 40 40 41 41 42 42 42 43 44 45 45 45 45 45 45 45 45 45 44 43 43 43 42 42 42 42 41
17 19 20 23 25 28 30 29 29 31 31 33 36 37 36 37 37 38 38 39 40 41 41 42 43 44 45 45 45 45 44 44 45 45 44 44 44 43 43 42 42 42 42 42
17 19 20 23 26 28 30 30 30 31 31 31 34 36 38 37 36 36 37 38 40 41 41 42 43 43 44 44 44 45 45 44 43 44 43 43 43 42 42 42 42 42 42 42
16 18 20 23 26 29 30 31 31 32 33 32 31 33 36 38 37 37 37 38 38 40 41 41 42 42 43 44 44 44 44 44 43 43 43 43 42 42 42 42 42 42 42 43
16 17 19 20 23 28 30 30 30 31 33 33 32 33 34 36 37 37 38 38 38 39 40 41 41 42 42 42 44 44 44 44 44 43 43 43 43 42 42 41 42 42 43 43
16 17 18 19 20 25 28 29 29 30 31 32 33 33 34 35 36 37 37 37 38 39 39 40 41 41 41 42 43 44 45 44 44 43 43 43 43 42 42 42 42 42 42 43
15 16 17 18 19 22 24 26 27 27 29 32 33 32 34 35 36 36 36 37 37 38 39 40 40 41 42 42 42 43 43 43 43 43 42 42 42 42 42 42 42 43 43 43
15 16 17 17 18 21 22 23 26 28 29 30 30 31 32 33 35 36 36 36 37 38 38 39 40 41 41 42 42 43 42 41 41 41 41 42 42 42 42 42 43 43 44 44
16 16 17 17 19 20 21 22 23 26 29 31 31 30 31 32 33 34 35 35 36 36 37 38 39 40 41 42 42 42 42 42 41 42 41 42 42 42 42 43 44 44 44 44
16 16 17 17 19 20 21 23 23 24 26 28 31 32 31 31 32 32 33 34 35 35 36 37 38 39 40 42 42 42 41 41 41 42 42 42 42 42 43 43 43 43 43 44
17 18 18 18 19 20 21 22 23 24 24 25 28 31 32 32 33 33 33 33 34 34 35 36 37 38 39 40 41 42 42 41 41 41 41 41 41 42 42 42 42 41 42 42
19 20 20 21 20 20 21 22 23 24 24 25 27 28 30 31 32 33 33 33 33 34 36 37 37 37 38 39 40 41 41 42 41 41 41 41 41 41 41 40 40 40 40 40
20 21 22 22 21 21 22 22 23 24 24 25 26 27 29 30 31 31 32 32 33 33 35 36 37 37 37 38 39 40 40 41 42 42 41 40 40 40 39 38 38 39 39 39
20 20 21 22 21 22 22 22 23 24 25 25 26 27 28 29 30 31 31 31 31 32 34 35 36 35 35 36 37 37 38 38 38 40 40 40 40 40 39 39 38 38 38 38
20 21 21 20 20 21 22 22 23 24 25 26 26 26 27 29 30 31 31 31 31 31 32 33 35 35 35 35 36 37 36 37 38 38 38 39 39 39 39 38 38 38 39 38
21 21 21 20 21 22 21 21 21 22 24 26 27 27 27 28 29 30 30 31 32 32 32 33 34 33 34 34 35 36 36 36 36 36 36 37 36 36 37 37 38 37 38 37

GEFSCGP_500_meanwind_252.txt.gz
Wind_Speed
22 25 28 31 34 36 38 40 42 42 42 43 44 44 45 44 45 45 45 46 46 47 47 47 47 47 46 44 43 42 42 41 41 40 40 39 38 37 36 36 37 36 35 34
21 23 24 26 29 32 35 37 39 40 40 42 44 44 45 46 45 45 46 46 46 47 47 47 46 45 45 44 43 43 42 42 41 41 41 40 40 39 38 38 38 37 37 36
18 21 21 24 27 29 33 35 36 36 38 39 41 44 45 46 45 45 46 46 46 47 47 47 47 45 44 45 44 44 43 42 41 42 41 40 40 41 41 40 39 39 39 38
16 19 19 21 25 27 30 32 33 34 34 36 39 41 44 45 46 45 46 46 45 46 47 47 47 46 45 45 45 45 44 44 43 41 41 41 40 41 41 41 40 40 39 39
13 16 16 18 22 26 27 30 31 32 33 34 36 39 43 44 45 45 45 46 45 46 47 47 47 47 46 46 47 46 45 44 43 41 41 41 40 39 39 39 39 39 40 39
12 14 15 16 19 22 25 27 29 31 32 33 35 36 40 42 43 44 45 45 45 46 47 48 48 48 48 47 47 47 46 45 44 43 42 42 42 41 40 39 40 40 40 40
11 13 13 14 17 20 23 25 26 29 31 33 33 35 38 39 41 42 44 45 45 46 46 47 47 48 47 48 47 47 46 46 45 44 44 43 43 42 42 42 41 41 41 41
10 11 14 13 15 17 21 24 26 28 30 33 34 35 35 36 38 40 42 44 45 46 46 45 47 48 48 48 47 47 47 46 45 45 45 44 43 43 43 43 42 41 41 41
10 11 14 15 15 16 19 23 25 26 28 30 33 34 33 34 35 36 39 41 43 43 43 44 44 45 46 47 47 47 47 46 46 46 46 46 45 43 43 44 43 42 42 42
10 12 14 15 16 17 18 21 23 24 26 29 31 33 34 34 35 35 36 38 40 41 41 42 43 44 44 44 45 46 46 46 46 47 47 46 45 44 43 43 44 43 43 42
11 12 14 16 18 18 20 21 23 25 25 27 29 31 32 33 34 35 35 36 38 40 41 42 42 43 43 43 44 44 45 46 46 47 47 46 45 44 44 44 43 43 42 42
13 13 13 16 18 19 20 22 23 25 26 26 28 30 31 32 33 34 36 37 38 39 40 42 41 41 42 42 43 43 44 45 46 46 46 46 45 45 45 44 44 44 43 42
14 14 14 15 18 19 22 23 25 25 26 27 28 29 30 30 31 33 34 36 38 39 40 41 42 42 41 41 42 43 43 44 44 44 45 46 45 44 44 44 44 44 43 42
13 14 14 15 16 18 20 23 25 26 26 27 29 31 30 30 31 32 34 35 36 38 39 40 42 43 42 42 42 42 42 42 43 43 44 45 45 45 45 45 44 43 42 42
13 14 15 15 16 18 20 21 25 25 26 27 27 29 30 31 32 32 33 35 36 37 38 39 40 42 42 41 41 42 43 42 42 42 43 44 44 44 44 44 44 43 42 42
14 15 15 15 16 18 21 22 23 24 26 27 28 28 29 31 32 33 34 34 35 37 38 38 39 41 41 41 41 41 42 43 43 43 43 43 43 43 43 43 43 42 42 42
14 14 15 15 16 18 20 21 22 24 26 27 29 28 28 30 32 33 34 35 35 36 37 38 39 41 42 42 42 42 43 43 43 43 43 43 43 43 43 43 43 43 42 43
15 15 15 16 16 17 18 20 22 24 24 25 27 29 29 29 29 31 33 35 36 37 38 39 39 40 41 41 41 42 42 42 42 43 43 43 44 44 43 43 43 43 43 43
15 16 17 18 18 18 18 20 22 24 25 24 25 27 28 28 29 31 32 33 35 36 37 38 39 39 40 40 41 41 42 42 42 42 42 42 43 43 44 44 44 43 43 43
16 16 17 18 19 19 18 20 20 22 23 24 25 26 28 29 29 30 31 32 33 34 35 37 38 38 39 40 41 42 42 41 41 41 41 42 42 42 43 43 43 43 44 43
18 17 17 18 19 20 19 19 20 21 22 23 25 26 29 31 31 31 31 32 33 34 34 35 36 37 38 40 40 41 41 42 42 42 41 41 42 42 42 42 42 43 43 43
19 19 18 18 18 19 19 20 20 20 21 23 24 25 28 30 31 32 33 32 33 33 34 34 35 36 37 38 39 39 40 40 41 42 43 43 42 42 42 42 42 42 41 41
20 20 20 19 19 19 20 20 21 21 20 21 23 24 26 28 30 32 33 32 33 33 33 33 34 34 35 36 37 38 38 39 40 41 41 42 42 42 42 41 40 40 40 40
22 21 21 20 19 20 20 21 21 21 20 20 21 21 24 26 28 29 31 31 32 32 33 33 34 34 34 34 35 35 37 38 38 38 39 40 40 40 40 39 39 39 39 38
23 22 22 20 19 19 20 21 21 21 21 20 20 21 22 24 25 27 28 29 31 32 32 32 33 33 33 33 33 34 35 35 36 35 35 36 37 38 38 38 38 38 37 37
23 22 22 21 20 20 20 21 21 21 21 21 21 21 21 22 23 24 26 28 28 29 30 31 32 32 33 33 34 34 34 34 34 33 33 33 33 35 36 37 37 37 36 36